Darstellungsparameter: Aktuell verwendete Einstellungen:
Skalierung der Graphiken ... ?
xyx+y,   Skalierungsfaktor:      Skalierung: Modus: x, Faktor: 1
Darstellungszeitraum ... ?
Vom - - bis: - -   Zeitraum: 03.08.2015 - 02.08.2020
Min/Max/Avg-Anzeige ... ?
Zeige MMA aktuell
Zeige MMA Monat
Zeige MMA alles
Zeige --A aktuell
Zeige --A Monat
Zeige --A alles
Keine MMA-Anzeige
MMA:
Keine MMA-Graphiken
MMA-Basis: 03.08.2015 - 02.08.2020
Quicknavigation für Darstellung... ?
Tage:      1T, 2T, 3T, 5T -1T -2T -3T -5T +1T +2T +3T +5T
Wochen: 1W, 2W, 3W -1W -2W -3W +1W +2W +3W
Monate: 1M, 3M, 6M -1M -3M -6M +1M +3M +6M
Jahre:    1J, 3J, 5J, 10J -1J -3J -5J -10J +1J +3J +5J +10J
Nutze für die Darstellung ... ?
Originaldaten oder ...
Mittelwerte Minima Maxima auf...
Stundenbasis Tagesbasis Wochenbasis
Monatsbasis Jahresbasis      Datenbasis: Mittelwerte auf Tagesbasis
Darstellen als:
Statistik (Auto) Statistik J:M      Darstellung:
Zur Graphik,    zurück zur Übersicht aller Sensoren.
 
Tabellarische Datenbersicht: ?
 
Sensor: Nr:Datum:Temp:Feuchte:
Aussen-T/F 1 03-08-2015 00:00:00 23.50333 C 44.3083 %
2 04-08-2015 00:00:00 19.1575 C 64.7917 %
3 05-08-2015 00:00:00 20.32667 C 60.8500 %
4 06-08-2015 00:00:00 24.22667 C 51.2917 %
5 07-08-2015 00:00:00 26.84583 C 43.1000 %
6 08-08-2015 00:00:00 23.22583 C 56.8250 %
7 09-08-2015 00:00:00 22.54 C 54.8750 %
8 10-08-2015 00:00:00 20.13583 C 63.9667 %
9 11-08-2015 00:00:00 22.12917 C 54.1167 %
10 12-08-2015 00:00:00 23.5925 C 55.8667 %
11 13-08-2015 00:00:00 25.41083 C 52.2583 %
12 14-08-2015 00:00:00 24.8725 C 48.6583 %
13 15-08-2015 00:00:00 21.19667 C 51.7000 %
14 16-08-2015 00:00:00 15.85333 C 76.6667 %
15 17-08-2015 00:00:00 14.77917 C 76.5750 %
16 18-08-2015 00:00:00 15.985 C 67.1167 %
17 19-08-2015 00:00:00 15.55667 C 62.6583 %
18 20-08-2015 00:00:00 17.8975 C 56.5500 %
19 21-08-2015 00:00:00 18.76 C 55.2583 %
20 22-08-2015 00:00:00 18.9875 C 50.1583 %
21 23-08-2015 00:00:00 19.48417 C 48.7167 %
22 24-08-2015 00:00:00 19.7175 C 67.7583 %
23 25-08-2015 00:00:00 17.94583 C 48.2417 %
24 26-08-2015 00:00:00 19.86833 C 48.8500 %
25 27-08-2015 00:00:00 18.44167 C 67.6167 %
Sensor: Nr:Datum:Temp:Feuchte:
Aussen-T/F 26 28-08-2015 00:00:00 17.17167 C 72.7583 %
27 29-08-2015 00:00:00 20.18333 C 69.6583 %
28 30-08-2015 00:00:00 23.21917 C 66.6083 %
29 31-08-2015 00:00:00 24.31417 C 55.9917 %
30 01-09-2015 00:00:00 17.54 C 77.1833 %
31 02-09-2015 00:00:00 15.07917 C 71.6750 %
32 03-09-2015 00:00:00 14.1425 C 71.6833 %
33 04-09-2015 00:00:00 13.65917 C 64.6833 %
34 05-09-2015 00:00:00 13.05583 C 69.7417 %
35 06-09-2015 00:00:00 13.10917 C 56.4833 %
36 07-09-2015 00:00:00 13.455 C 71.1750 %
37 08-09-2015 00:00:00 15.4175 C 67.9250 %
38 09-09-2015 00:00:00 15.76167 C 57.9417 %
39 10-09-2015 00:00:00 12.94833 C 61.4583 %
40 11-09-2015 00:00:00 13.1675 C 62.5833 %
41 12-09-2015 00:00:00 15.18667 C 66.6583 %
42 13-09-2015 00:00:00 16.93167 C 79.4833 %
43 14-09-2015 00:00:00 15.35833 C 80.5417 %
44 15-09-2015 00:00:00 13.065 C 73.8583 %
45 16-09-2015 00:00:00 14.7 C 83.4250 %
46 17-09-2015 00:00:00 14.20833 C 80.5000 %
47 18-09-2015 00:00:00 14.38667 C 73.0167 %
48 19-09-2015 00:00:00 14.08917 C 73.5250 %
49 20-09-2015 00:00:00 13.44417 C 70.9167 %
50 21-09-2015 00:00:00 12.42583 C 74.5917 %
Sensor: Nr:Datum:Temp:Feuchte:
Aussen-T/F 51 22-09-2015 00:00:00 12.75833 C 80.1333 %
52 23-09-2015 00:00:00 11.50667 C 85.6250 %
53 24-09-2015 00:00:00 13.10833 C 79.6333 %
54 25-09-2015 00:00:00 13.78333 C 71.6917 %
55 26-09-2015 00:00:00 12.60917 C 72.9083 %
56 27-09-2015 00:00:00 11.13167 C 71.3417 %
57 28-09-2015 00:00:00 10.20667 C 70.9417 %
58 29-09-2015 00:00:00 10.215 C 70.4167 %
59 30-09-2015 00:00:00 10.06583 C 66.1000 %
60 01-10-2015 00:00:00 9.29917 C 61.2667 %
61 02-10-2015 00:00:00 8.59917 C 74.0083 %
62 03-10-2015 00:00:00 10.44917 C 75.1833 %
63 04-10-2015 00:00:00 12.28417 C 78.5750 %
64 05-10-2015 00:00:00 11.84583 C 79.5750 %
65 06-10-2015 00:00:00 15.80167 C 83.4417 %
66 07-10-2015 00:00:00 14.7 C 74.2167 %
67 08-10-2015 00:00:00 13.32333 C 68.8000 %
68 09-10-2015 00:00:00 12.07083 C 80.7417 %
69 10-10-2015 00:00:00 12.105 C 72.4833 %
70 11-10-2015 00:00:00 7.89833 C 59.4083 %
71 12-10-2015 00:00:00 4.42167 C 68.4750 %
72 13-10-2015 00:00:00 3.95167 C 78.6917 %
73 14-10-2015 00:00:00 3.28417 C 89.8583 %
74 15-10-2015 00:00:00 3.80417 C 90.4250 %
75 16-10-2015 00:00:00 6.35 C 81.6917 %
Sensor: Nr:Datum:Temp:Feuchte:
Aussen-T/F 76 17-10-2015 00:00:00 6.735 C 73.5833 %
77 18-10-2015 00:00:00 7.18 C 77.1667 %
78 19-10-2015 00:00:00 8.16667 C 76.7333 %
79 20-10-2015 00:00:00 9.0175 C 82.7417 %
80 21-10-2015 00:00:00 9.47 C 80.4667 %
81 22-10-2015 00:00:00 10.8575 C 70.3000 %
82 23-10-2015 00:00:00 9.86917 C 85.9750 %
83 24-10-2015 00:00:00 10.69583 C 72.8083 %
84 25-10-2015 00:00:00 11.2568 C 79.4000 %
85 26-10-2015 00:00:00 8.69667 C 85.5250 %
86 27-10-2015 00:00:00 8.0525 C 82.0167 %
87 28-10-2015 00:00:00 9.38917 C 72.9917 %
88 29-10-2015 00:00:00 9.7475 C 80.2750 %
89 30-10-2015 00:00:00 7.32333 C 86.3250 %
90 31-10-2015 00:00:00 6.77583 C 83.6250 %
91 01-11-2015 00:00:00 6.29 C 87.0333 %
92 02-11-2015 00:00:00 4.25083 C 91.1250 %
93 03-11-2015 00:00:00 4.7125 C 84.8500 %
94 04-11-2015 00:00:00 7.2225 C 83.8667 %
95 05-11-2015 00:00:00 9.55417 C 87.5250 %
96 06-11-2015 00:00:00 12.8575 C 78.4333 %
97 07-11-2015 00:00:00 15.96833 C 79.7667 %
98 08-11-2015 00:00:00 12.09333 C 87.1417 %
99 09-11-2015 00:00:00 14.4975 C 61.9250 %
100 10-11-2015 00:00:00 12.95167 C 58.9500 %
Sensor: Nr:Datum:Temp:Feuchte:
Aussen-T/F 101 11-11-2015 00:00:00 11.47167 C 60.8250 %
102 12-11-2015 00:00:00 11.10833 C 67.1417 %
103 13-11-2015 00:00:00 10.18 C 68.2667 %
104 14-11-2015 00:00:00 8.45667 C 58.9833 %
105 15-11-2015 00:00:00 12.26417 C 57.5667 %
106 16-11-2015 00:00:00 11.36917 C 57.1750 %
107 17-11-2015 00:00:00 13.67167 C 66.9000 %
108 18-11-2015 00:00:00 13.59083 C 45.0667 %
109 19-11-2015 00:00:00 11.8225 C 65.8333 %
110 20-11-2015 00:00:00 7.22083 C 84.0833 %
111 21-11-2015 00:00:00 3.41917 C 75.5000 %
112 22-11-2015 00:00:00 2.13833 C 82.4667 %
113 23-11-2015 00:00:00 1.88 C 76.4500 %
114 24-11-2015 00:00:00 1.28583 C 77.3333 %
115 25-11-2015 00:00:00 4.00833 C 74.3167 %
116 26-11-2015 00:00:00 4.22333 C 78.5917 %
117 27-11-2015 00:00:00 1.90417 C 82.8750 %
118 28-11-2015 00:00:00 3.72167 C 64.4917 %
119 29-11-2015 00:00:00 8.60917 C 59.6500 %
120 30-11-2015 00:00:00 9.42083 C 70.1917 %
121 01-12-2015 00:00:00 10.81583 C 72.9000 %
122 02-12-2015 00:00:00 9.32917 C 63.8917 %
123 03-12-2015 00:00:00 6.91 C 65.0667 %
124 04-12-2015 00:00:00 6.15833 C 77.1333 %
125 05-12-2015 00:00:00 5.30417 C 71.3500 %
Sensor: Nr:Datum:Temp:Feuchte:
Aussen-T/F 126 06-12-2015 00:00:00 7.65083 C 65.3750 %
127 07-12-2015 00:00:00 7.24333 C 79.5333 %
128 08-12-2015 00:00:00 3.85333 C 92.6417 %
129 09-12-2015 00:00:00 5.81417 C 86.4083 %
130 10-12-2015 00:00:00 2.24167 C 82.4000 %
131 11-12-2015 00:00:00 4.06583 C 76.6167 %
132 12-12-2015 00:00:00 7.5325 C 83.2833 %
133 13-12-2015 00:00:00 8.14 C 69.1250 %
134 14-12-2015 00:00:00 5.15417 C 90.8417 %
135 15-12-2015 00:00:00 4.89833 C 89.1833 %
136 16-12-2015 00:00:00 9.15083 C 89.9750 %
137 17-12-2015 00:00:00 11.63417 C 75.1167 %
138 18-12-2015 00:00:00 10.56667 C 76.0500 %
139 19-12-2015 00:00:00 10.50417 C 68.5583 %
140 20-12-2015 00:00:00 7.115 C 88.6750 %
141 21-12-2015 00:00:00 9.43583 C 63.8417 %
142 22-12-2015 00:00:00 11.1725 C 48.5000 %
143 23-12-2015 00:00:00 9.01167 C 57.9417 %
144 24-12-2015 00:00:00 8.45833 C 72.2833 %
145 25-12-2015 00:00:00 10.48417 C 60.2500 %
146 26-12-2015 00:00:00 9.345 C 61.1667 %
147 27-12-2015 00:00:00 6.45333 C 76.4917 %
148 28-12-2015 00:00:00 2.05083 C 89.9000 %
149 29-12-2015 00:00:00 2.285 C 91.8750 %
150 30-12-2015 00:00:00 3.93417 C 81.2500 %
Sensor: Nr:Datum:Temp:Feuchte:
Aussen-T/F 151 31-12-2015 00:00:00 4.05417 C 73.4333 %
152 01-01-2016 00:00:00 3.65167 C 83.7833 %
153 02-01-2016 00:00:00 3.92083 C 70.8833 %
154 03-01-2016 00:00:00 4.92917 C 64.7583 %
155 04-01-2016 00:00:00 4.6675 C 74.2000 %
156 05-01-2016 00:00:00 5.86833 C 64.5917 %
157 06-01-2016 00:00:00 5.34667 C 76.1417 %
158 07-01-2016 00:00:00 4.32417 C 76.2500 %
159 08-01-2016 00:00:00 2.07833 C 65.9667 %
160 09-01-2016 00:00:00 0.6125 C 88.5167 %
161 10-01-2016 00:00:00 5.36218 C 74.0840 %
162 11-01-2016 00:00:00 4.41333 C 78.4417 %
163 12-01-2016 00:00:00 4.76167 C 54.9417 %
164 13-01-2016 00:00:00 4.1675 C 55.5500 %
165 14-01-2016 00:00:00 2.565 C 55.8250 %
166 15-01-2016 00:00:00 2.09667 C 60.7500 %
167 16-01-2016 00:00:00 1.19 C 66.6250 %
168 17-01-2016 00:00:00 -0.53083 C 48.5583 %
169 18-01-2016 00:00:00 -5.885 C 57.7333 %
170 19-01-2016 00:00:00 -6.08333 C 53.1500 %
171 20-01-2016 00:00:00 -2.2525 C 57.0583 %
172 21-01-2016 00:00:00 -0.195 C 66.5583 %
173 22-01-2016 00:00:00 -3.03833 C 60.6333 %
174 23-01-2016 00:00:00 3.43583 C 67.1417 %
175 24-01-2016 00:00:00 4.5925 C 67.4167 %
Sensor: Nr:Datum:Temp:Feuchte:
Aussen-T/F 176 25-01-2016 00:00:00 6.55917 C 65.2583 %
177 26-01-2016 00:00:00 8.70083 C 45.6583 %
178 27-01-2016 00:00:00 10.98917 C 31.4833 %
179 28-01-2016 00:00:00 6.53417 C 55.1333 %
180 29-01-2016 00:00:00 4.86917 C 53.8667 %
181 30-01-2016 00:00:00 6.82167 C 49.3750 %
182 31-01-2016 00:00:00 5.65333 C 53.5417 %
183 01-02-2016 00:00:00 11.48583 C 43.6167 %
184 02-02-2016 00:00:00 10.0775 C 46.2083 %
185 03-02-2016 00:00:00 4.48833 C 46.5167 %
186 04-02-2016 00:00:00 3.8175 C 58.8833 %
187 05-02-2016 00:00:00 6.95917 C 59.9667 %
188 06-02-2016 00:00:00 7.20083 C 56.1333 %
189 07-02-2016 00:00:00 8.2525 C 37.4667 %
190 08-02-2016 00:00:00 7.405 C 40.7250 %
191 09-02-2016 00:00:00 6.3125 C 48.5500 %
192 10-02-2016 00:00:00 4.2375 C 44.8083 %
193 11-02-2016 00:00:00 4.22833 C 49.3500 %
194 12-02-2016 00:00:00 2.40917 C 49.6917 %
195 13-02-2016 00:00:00 0.93917 C 68.9833 %
196 14-02-2016 00:00:00 4.075 C 74.4500 %
197 15-02-2016 00:00:00 1.52083 C 58.3750 %
198 16-02-2016 00:00:00 -0.7275 C 42.6083 %
199 17-02-2016 00:00:00 -0.33333 C 53.4250 %
200 18-02-2016 00:00:00 1.44583 C 49.3833 %
Sensor: Nr:Datum:Temp:Feuchte:
Aussen-T/F 201 19-02-2016 00:00:00 0.79417 C 58.8333 %
202 20-02-2016 00:00:00 5.52417 C 63.4000 %
203 21-02-2016 00:00:00 11.48417 C 44.6750 %
204 22-02-2016 00:00:00 9.25167 C 42.6667 %
205 23-02-2016 00:00:00 1.70083 C 74.3167 %
206 24-02-2016 00:00:00 1.25 C 67.2667 %
207 25-02-2016 00:00:00 0.10917 C 60.8667 %
208 26-02-2016 00:00:00 1.8675 C 47.5667 %
209 27-02-2016 00:00:00 1.35083 C 40.6333 %
210 28-02-2016 00:00:00 1.14833 C 40.8167 %
211 29-02-2016 00:00:00 2.51 C 31.5917 %
212 01-03-2016 00:00:00 0.29417 C 46.5000 %
213 02-03-2016 00:00:00 5.84 C 42.0250 %
214 03-03-2016 00:00:00 3.0875 C 47.3000 %
215 04-03-2016 00:00:00 1.0725 C 69.0667 %
216 05-03-2016 00:00:00 4.1 C 62.7917 %
217 06-03-2016 00:00:00 2.515 C 59.7833 %
218 07-03-2016 00:00:00 1.795 C 65.8667 %
219 08-03-2016 00:00:00 1.35667 C 59.3500 %
220 09-03-2016 00:00:00 1.89667 C 45.6500 %
221 10-03-2016 00:00:00 2.14917 C 47.1250 %
222 11-03-2016 00:00:00 3.7425 C 45.0833 %
223 12-03-2016 00:00:00 3.90583 C 30.9667 %
224 13-03-2016 00:00:00 4.57167 C 31.1833 %
225 14-03-2016 00:00:00 3.825 C 30.8417 %
Sensor: Nr:Datum:Temp:Feuchte:
Aussen-T/F 226 15-03-2016 00:00:00 2.91833 C 38.5833 %
227 16-03-2016 00:00:00 4.03667 C 32.4833 %
228 17-03-2016 00:00:00 3.92083 C 39.7500 %
229 18-03-2016 00:00:00 4.26833 C 40.0000 %
230 19-03-2016 00:00:00 5.375 C 40.8000 %
231 20-03-2016 00:00:00 5.61917 C 31.5500 %
232 21-03-2016 00:00:00 6.80333 C 40.1750 %
233 22-03-2016 00:00:00 7.90167 C 33.8500 %
234 23-03-2016 00:00:00 7.75 C 36.0500 %
235 24-03-2016 00:00:00 6.74417 C 40.9500 %
236 25-03-2016 00:00:00 6.3375 C 53.9250 %
237 26-03-2016 00:00:00 8.95333 C 46.6167 %
238 27-03-2016 00:00:00 9.04783 C 40.2957 %
239 28-03-2016 00:00:00 7.90667 C 40.1750 %
240 29-03-2016 00:00:00 9.055 C 31.4333 %
241 30-03-2016 00:00:00 9.75 C 41.6917 %
242 31-03-2016 00:00:00 6.63583 C 56.8333 %
243 01-04-2016 00:00:00 6.93083 C 50.1417 %
244 02-04-2016 00:00:00 8.0475 C 51.6750 %
245 03-04-2016 00:00:00 13.42583 C 38.0667 %
246 04-04-2016 00:00:00 13.64583 C 46.2083 %
247 05-04-2016 00:00:00 10.9925 C 55.3417 %
248 06-04-2016 00:00:00 10.6875 C 44.1083 %
249 07-04-2016 00:00:00 8.1575 C 34.2667 %
250 08-04-2016 00:00:00 5.99083 C 43.5583 %
Sensor: Nr:Datum:Temp:Feuchte:
Aussen-T/F 251 09-04-2016 00:00:00 7.77083 C 41.4333 %
252 10-04-2016 00:00:00 11.51583 C 29.2333 %
253 11-04-2016 00:00:00 11.9225 C 31.8917 %
254 12-04-2016 00:00:00 10.91917 C 41.5500 %
255 13-04-2016 00:00:00 8.84833 C 59.7333 %
256 14-04-2016 00:00:00 11.13 C 45.5583 %
257 15-04-2016 00:00:00 13.36 C 32.9000 %
258 16-04-2016 00:00:00 11.87917 C 35.3083 %
259 17-04-2016 00:00:00 9.01167 C 40.1167 %
260 18-04-2016 00:00:00 7.2325 C 38.2167 %
261 19-04-2016 00:00:00 8.9975 C 25.7167 %
262 20-04-2016 00:00:00 9.22 C 32.0333 %
263 21-04-2016 00:00:00 11.33083 C 29.5500 %
264 22-04-2016 00:00:00 13.95583 C 21.0667 %
265 23-04-2016 00:00:00 8.31083 C 30.3000 %
266 24-04-2016 00:00:00 5.44 C 28.0917 %
267 25-04-2016 00:00:00 4.0775 C 43.0917 %
268 26-04-2016 00:00:00 4.38 C 39.0417 %
269 27-04-2016 00:00:00 5.32667 C 23.8250 %
270 28-04-2016 00:00:00 6.70333 C 30.5583 %
271 29-04-2016 00:00:00 7.80583 C 30.1000 %
272 30-04-2016 00:00:00 7.91583 C 30.9333 %
273 01-05-2016 00:00:00 10.01083 C 35.3833 %
274 02-05-2016 00:00:00 10.51083 C 42.4750 %
275 03-05-2016 00:00:00 11.25917 C 31.6333 %
Sensor: Nr:Datum:Temp:Feuchte:
Aussen-T/F 276 04-05-2016 00:00:00 9.2375 C 32.9917 %
277 05-05-2016 00:00:00 11.535 C 29.8083 %
278 06-05-2016 00:00:00 15.30667 C 31.8167 %
279 07-05-2016 00:00:00 17.3 C 30.4750 %
280 08-05-2016 00:00:00 18.64833 C 20.2833 %
281 09-05-2016 00:00:00 18.325 C 21.9833 %
282 10-05-2016 00:00:00 17.15833 C 26.3000 %
283 11-05-2016 00:00:00 17.9975 C 38.7333 %
284 12-05-2016 00:00:00 18.35667 C 21.6500 %
285 13-05-2016 00:00:00 14.43917 C 42.0583 %
286 14-05-2016 00:00:00 10.66167 C 30.2500 %
287 15-05-2016 00:00:00 9.19333 C 21.1750 %
288 16-05-2016 00:00:00 10.65167 C 22.1667 %
289 17-05-2016 00:00:00 13.08417 C 23.7167 %
290 18-05-2016 00:00:00 15.07 C 26.4167 %
291 19-05-2016 00:00:00 14.705 C 31.9083 %
292 20-05-2016 00:00:00 14.36917 C 27.7333 %
293 21-05-2016 00:00:00 18.82083 C 30.1667 %
294 22-05-2016 00:00:00 19.6125 C 26.3750 %
295 23-05-2016 00:00:00 14.36417 C 28.3667 %
296 24-05-2016 00:00:00 11.07083 C 39.1667 %
297 25-05-2016 00:00:00 13.16083 C 39.4917 %
298 26-05-2016 00:00:00 15.82333 C 37.5500 %
299 27-05-2016 00:00:00 17.00333 C 47.2000 %
300 28-05-2016 00:00:00 17.40167 C 48.0833 %
Sensor: Nr:Datum:Temp:Feuchte:
Aussen-T/F 301 29-05-2016 00:00:00 18.06417 C 41.2500 %
302 30-05-2016 00:00:00 17.56333 C 48.6833 %
303 31-05-2016 00:00:00 16.76452 C 37.3387 %
304 01-06-2016 00:00:00 15.94792 C 43.6458 %
305 02-06-2016 00:00:00 17.97014 C 45.8819 %
306 03-06-2016 00:00:00 16.98542 C 47.4514 %
307 04-06-2016 00:00:00 18.03125 C 41.6979 %
308 05-06-2016 00:00:00 19.83507 C 41.0556 %
309 06-06-2016 00:00:00 19.82222 C 34.2014 %
310 07-06-2016 00:00:00 21.12847 C 28.7604 %
311 08-06-2016 00:00:00 20.43993 C 25.7188 %
312 09-06-2016 00:00:00 18.36771 C 23.1875 %
313 10-06-2016 00:00:00 18.63125 C 23.3715 %
314 11-06-2016 00:00:00 18.52465 C 22.4410 %
315 12-06-2016 00:00:00 17.77604 C 31.9792 %
316 13-06-2016 00:00:00 15.89306 C 47.6493 %
317 14-06-2016 00:00:00 16.98229 C 36.8542 %
318 15-06-2016 00:00:00 15.80937 C 33.7951 %
319 16-06-2016 00:00:00 14.31493 C 43.6597 %
320 17-06-2016 00:00:00 14.91493 C 39.4757 %
321 18-06-2016 00:00:00 15.14896 C 40.0104 %
322 19-06-2016 00:00:00 16.51979 C 24.7535 %
323 20-06-2016 00:00:00 11.56903 C 28.5044 %
324 21-06-2016 00:00:00 18.65833 C 35.7667 %
325 22-06-2016 00:00:00 21.28833 C 37.0667 %
Sensor: Nr:Datum:Temp:Feuchte:
Aussen-T/F 326 23-06-2016 00:00:00 24.72417 C 30.6083 %
327 24-06-2016 00:00:00 22.49417 C 33.0667 %
328 25-06-2016 00:00:00 16.69 C 56.2917 %
329 26-06-2016 00:00:00 15.84 C 41.2917 %
330 27-06-2016 00:00:00 16.38083 C 29.8417 %
331 28-06-2016 00:00:00 18.94333 C 36.5667 %
332 29-06-2016 00:00:00 19.7075 C 23.8250 %
333 30-06-2016 00:00:00 19.33333 C 24.7167 %
334 01-07-2016 00:00:00 20.47833 C 25.5250 %
335 02-07-2016 00:00:00 17.3875 C 25.1167 %
336 03-07-2016 00:00:00 15.7475 C 25.1667 %
337 04-07-2016 00:00:00 18.435 C 26.2833 %
338 05-07-2016 00:00:00 19.94667 C 23.7917 %
339 06-07-2016 00:00:00 17.5575 C 24.4167 %
340 07-07-2016 00:00:00 17.9175 C 26.9333 %
341 08-07-2016 00:00:00 19.34833 C 26.2250 %
342 09-07-2016 00:00:00 21.7525 C 22.1750 %
343 10-07-2016 00:00:00 22.6725 C 26.1833 %
344 11-07-2016 00:00:00 22.19583 C 23.5083 %
345 12-07-2016 00:00:00 19.9525 C 24.3500 %
346 13-07-2016 00:00:00 15.24 C 37.0917 %
347 14-07-2016 00:00:00 15.65 C 34.8167 %
348 15-07-2016 00:00:00 16.855 C 23.0750 %
349 16-07-2016 00:00:00 17.50333 C 26.4917 %
350 17-07-2016 00:00:00 21.88917 C 26.5250 %
Sensor: Nr:Datum:Temp:Feuchte:
Aussen-T/F 351 18-07-2016 00:00:00 22.8375 C 27.4083 %
352 19-07-2016 00:00:00 22.66917 C 25.7000 %
353 20-07-2016 00:00:00 24.1625 C 25.4250 %
354 21-07-2016 00:00:00 21.46167 C 33.7500 %
355 22-07-2016 00:00:00 21.44167 C 39.8500 %
356 23-07-2016 00:00:00 20.57167 C 37.5917 %
357 24-07-2016 00:00:00 22.89083 C 37.5500 %
358 25-07-2016 00:00:00 22.56417 C 25.9000 %
359 26-07-2016 00:00:00 20.86333 C 26.3667 %
360 27-07-2016 00:00:00 20.36667 C 26.3583 %
361 28-07-2016 00:00:00 21.32 C 23.3917 %
362 29-07-2016 00:00:00 20.3725 C 27.6167 %
363 30-07-2016 00:00:00 21.31667 C 25.1000 %
364 31-07-2016 00:00:00 19.395 C 24.8500 %
365 01-08-2016 00:00:00 17.6775 C 27.5167 %
366 02-08-2016 00:00:00 16.10333 C 37.3833 %
367 03-08-2016 00:00:00 18.46667 C 38.4083 %
368 04-08-2016 00:00:00 17.91417 C 46.6333 %
369 05-08-2016 00:00:00 16.71833 C 33.8500 %
370 06-08-2016 00:00:00 18.14583 C 31.5833 %
371 07-08-2016 00:00:00 19.73 C 30.8917 %
372 08-08-2016 00:00:00 19.59083 C 23.6917 %
373 09-08-2016 00:00:00 17.05833 C 22.3000 %
374 10-08-2016 00:00:00 13.89917 C 26.0167 %
375 11-08-2016 00:00:00 12.59832 C 32.7059 %
Sensor: Nr:Datum:Temp:Feuchte:
Aussen-T/F 376 12-08-2016 00:00:00 17.455 C 33.2250 %
377 13-08-2016 00:00:00 21.15833 C 31.2167 %
378 14-08-2016 00:00:00 19.95 C 30.1750 %
379 15-08-2016 00:00:00 19.69667 C 27.2250 %
380 16-08-2016 00:00:00 18.98167 C 26.7333 %
381 17-08-2016 00:00:00 18.93333 C 25.7417 %
382 18-08-2016 00:00:00 17.52 C 26.5500 %
383 19-08-2016 00:00:00 19.7325 C 28.2667 %
384 20-08-2016 00:00:00 19.64167 C 27.2333 %
385 21-08-2016 00:00:00 17.60333 C 26.8583 %
386 22-08-2016 00:00:00 17.8025 C 27.1750 %
387 23-08-2016 00:00:00 19.51 C 30.9333 %
388 24-08-2016 00:00:00 20.755 C 28.3583 %
389 25-08-2016 00:00:00 21.70333 C 28.8500 %
390 26-08-2016 00:00:00 22.62333 C 27.2417 %
391 27-08-2016 00:00:00 24.03 C 28.2583 %
392 28-08-2016 00:00:00 23.51417 C 25.0417 %
393 29-08-2016 00:00:00 19.5725 C 24.0250 %
394 30-08-2016 00:00:00 18.9625 C 29.8667 %
395 31-08-2016 00:00:00 18.09833 C 24.6000 %
396 01-09-2016 00:00:00 19.885 C 25.6167 %
397 02-09-2016 00:00:00 18.95833 C 28.4750 %
398 03-09-2016 00:00:00 21.2725 C 24.6250 %
399 04-09-2016 00:00:00 18.2375 C 25.8750 %
400 05-09-2016 00:00:00 18.54917 C 25.8167 %
Sensor: Nr:Datum:Temp:Feuchte:
Aussen-T/F 401 06-09-2016 00:00:00 16.93333 C 34.4917 %
402 07-09-2016 00:00:00 17.405 C 33.5750 %
403 08-09-2016 00:00:00 19.405 C 32.5083 %
404 09-09-2016 00:00:00 20.46333 C 21.3833 %
405 10-09-2016 00:00:00 19.22583 C 28.1083 %
406 11-09-2016 00:00:00 19.21667 C 26.7417 %
407 12-09-2016 00:00:00 19.5625 C 29.1333 %
408 13-09-2016 00:00:00 21.00833 C 29.4083 %
409 14-09-2016 00:00:00 20.675 C 27.7083 %
410 15-09-2016 00:00:00 19.8875 C 25.4083 %
411 16-09-2016 00:00:00 17.43917 C 39.9167 %
412 17-09-2016 00:00:00 15.91333 C 35.6083 %
413 18-09-2016 00:00:00 17.29167 C 42.7083 %
414 19-09-2016 00:00:00 15.64833 C 27.5250 %
415 20-09-2016 00:00:00 15.07833 C 30.5000 %
416 21-09-2016 00:00:00 13.86667 C 27.4167 %
417 22-09-2016 00:00:00 11.25083 C 34.2583 %
418 23-09-2016 00:00:00 13.09417 C 32.6000 %
419 24-09-2016 00:00:00 13.36667 C 40.9167 %
420 25-09-2016 00:00:00 13.76917 C 38.9417 %
421 26-09-2016 00:00:00 14.44333 C 39.0333 %
422 27-09-2016 00:00:00 13.11333 C 52.0083 %
423 28-09-2016 00:00:00 15.245 C 38.0583 %
424 29-09-2016 00:00:00 18.65167 C 25.3417 %
425 30-09-2016 00:00:00 15.06167 C 29.6500 %
Sensor: Nr:Datum:Temp:Feuchte:
Aussen-T/F 426 01-10-2016 00:00:00 13.58917 C 51.5333 %
427 02-10-2016 00:00:00 12.33333 C 43.2667 %
428 03-10-2016 00:00:00 12.23083 C 37.2000 %
429 04-10-2016 00:00:00 11.06833 C 47.8083 %
430 05-10-2016 00:00:00 8.02083 C 40.7917 %
431 06-10-2016 00:00:00 7.89917 C 32.8250 %
432 07-10-2016 00:00:00 10.76917 C 41.6833 %
433 08-10-2016 00:00:00 9.0625 C 53.2250 %
434 09-10-2016 00:00:00 8.21917 C 43.8417 %
435 10-10-2016 00:00:00 6.4375 C 44.8333 %
436 11-10-2016 00:00:00 7.66667 C 44.1250 %
437 12-10-2016 00:00:00 8.5225 C 34.6417 %
438 13-10-2016 00:00:00 7.0825 C 42.1917 %
439 14-10-2016 00:00:00 9.04333 C 34.3583 %
440 15-10-2016 00:00:00 10.78083 C 44.4417 %
441 16-10-2016 00:00:00 8.045 C 54.9250 %
442 17-10-2016 00:00:00 10.0225 C 63.0667 %
443 18-10-2016 00:00:00 10.67917 C 47.8917 %
444 19-10-2016 00:00:00 8.77083 C 33.0917 %
445 20-10-2016 00:00:00 7.5975 C 52.8000 %
446 21-10-2016 00:00:00 7.21667 C 51.6083 %
447 22-10-2016 00:00:00 7.28167 C 49.5250 %
448 23-10-2016 00:00:00 6.66083 C 50.6500 %
449 24-10-2016 00:00:00 8.92167 C 63.3000 %
450 25-10-2016 00:00:00 11.005 C 51.3333 %
Sensor: Nr:Datum:Temp:Feuchte:
Aussen-T/F 451 26-10-2016 00:00:00 8.985 C 42.9167 %
452 27-10-2016 00:00:00 8.2675 C 50.5250 %
453 28-10-2016 00:00:00 11.03667 C 37.9750 %
454 29-10-2016 00:00:00 11.12583 C 38.1417 %
455 30-10-2016 00:00:00 7.1712 C 54.7680 %
456 31-10-2016 00:00:00 6.11333 C 61.1167 %
457 01-11-2016 00:00:00 6.55083 C 60.1167 %
458 02-11-2016 00:00:00 6.48667 C 37.7417 %
459 03-11-2016 00:00:00 5.62917 C 36.2750 %
460 04-11-2016 00:00:00 4.18583 C 57.1667 %
461 05-11-2016 00:00:00 6.1875 C 59.2417 %
462 06-11-2016 00:00:00 4.91833 C 30.0917 %
463 07-11-2016 00:00:00 3.88333 C 40.0667 %
464 08-11-2016 00:00:00 2.37583 C 46.3750 %
465 09-11-2016 00:00:00 2.99583 C 53.2667 %
466 10-11-2016 00:00:00 4.55333 C 50.0000 %
467 11-11-2016 00:00:00 4.3825 C 59.9250 %
468 12-11-2016 00:00:00 1.26417 C 47.5333 %
469 13-11-2016 00:00:00 1.32333 C 37.8333 %
470 14-11-2016 00:00:00 -1.67833 C 46.0917 %
471 15-11-2016 00:00:00 3.8725 C 39.5000 %
472 16-11-2016 00:00:00 9.1725 C 50.0750 %
473 17-11-2016 00:00:00 10.28167 C 32.9917 %
474 18-11-2016 00:00:00 8.59583 C 26.5250 %
475 19-11-2016 00:00:00 4.45417 C 39.7333 %
Sensor: Nr:Datum:Temp:Feuchte:
Aussen-T/F 476 20-11-2016 00:00:00 8.31583 C 26.6583 %
477 21-11-2016 00:00:00 9.31917 C 45.5333 %
478 22-11-2016 00:00:00 9.50167 C 52.0583 %
479 23-11-2016 00:00:00 7.95417 C 67.0083 %
480 24-11-2016 00:00:00 7.5675 C 53.7583 %
481 25-11-2016 00:00:00 7.12917 C 22.5167 %
482 26-11-2016 00:00:00 6.3675 C 25.9417 %
483 27-11-2016 00:00:00 4.2 C 40.8667 %
484 28-11-2016 00:00:00 -1.0125 C 46.3583 %
485 29-11-2016 00:00:00 -4.42 C 35.8000 %
486 30-11-2016 00:00:00 -4.23833 C 36.9833 %
487 01-12-2016 00:00:00 2.62667 C 21.5583 %
488 02-12-2016 00:00:00 4.245 C 43.0250 %
489 03-12-2016 00:00:00 -0.60083 C 60.1250 %
490 04-12-2016 00:00:00 -3.84417 C 47.8167 %
491 05-12-2016 00:00:00 -5.46833 C 44.0333 %
492 06-12-2016 00:00:00 -4.63417 C 45.9417 %
493 07-12-2016 00:00:00 -1.23 C 55.7333 %
494 08-12-2016 00:00:00 -0.39583 C 54.6667 %
495 09-12-2016 00:00:00 5.92583 C 21.0417 %
496 10-12-2016 00:00:00 3.77833 C 40.4750 %
497 11-12-2016 00:00:00 7.3925 C 25.0750 %
498 12-12-2016 00:00:00 5.93583 C 39.9833 %
499 13-12-2016 00:00:00 3.34583 C 65.2250 %
500 14-12-2016 00:00:00 5.935 C 48.1167 %
Sensor: Nr:Datum:Temp:Feuchte:
Aussen-T/F 501 15-12-2016 00:00:00 6.37417 C 39.5917 %
502 16-12-2016 00:00:00 4.1375 C 22.6833 %
503 17-12-2016 00:00:00 3.35083 C 34.1750 %
504 18-12-2016 00:00:00 4.61167 C 41.6167 %
505 19-12-2016 00:00:00 3.69083 C 40.5917 %
506 20-12-2016 00:00:00 -0.2625 C 40.4500 %
507 21-12-2016 00:00:00 1.50833 C 37.0917 %
508 22-12-2016 00:00:00 3.135 C 42.5833 %
509 23-12-2016 00:00:00 3.4975 C 50.4417 %
510 24-12-2016 00:00:00 6.43833 C 23.7750 %
511 25-12-2016 00:00:00 7.98083 C 27.9917 %
512 26-12-2016 00:00:00 6.85083 C 28.5167 %
513 27-12-2016 00:00:00 3.36083 C 31.3417 %
514 28-12-2016 00:00:00 2.765 C 32.3750 %
515 29-12-2016 00:00:00 -2.31583 C 49.4333 %
516 30-12-2016 00:00:00 -2.7975 C 45.7583 %
517 31-12-2016 00:00:00 -4.97167 C 40.1167 %
518 01-01-2017 00:00:00 -2.645 C 37.8583 %
519 02-01-2017 00:00:00 -0.26417 C 43.1250 %
520 03-01-2017 00:00:00 0.27717 C 59.5652 %
521 04-01-2017 00:00:00 2.4725 C 33.8417 %
522 05-01-2017 00:00:00 -1.62667 C 32.9833 %
523 06-01-2017 00:00:00 -8.04417 C 33.4250 %
524 07-01-2017 00:00:00 -5.00833 C 28.8833 %
525 08-01-2017 00:00:00 -0.27333 C 48.8667 %
Sensor: Nr:Datum:Temp:Feuchte:
Aussen-T/F 526 09-01-2017 00:00:00 1.305 C 49.9167 %
527 10-01-2017 00:00:00 0.33833 C 54.5917 %
528 11-01-2017 00:00:00 2.7675 C 49.3083 %
529 12-01-2017 00:00:00 3.39 C 26.6583 %
530 13-01-2017 00:00:00 1.16833 C 32.4417 %
531 14-01-2017 00:00:00 1.5625 C 26.2083 %
532 15-01-2017 00:00:00 -0.2875 C 38.9417 %
533 16-01-2017 00:00:00 -2.95333 C 40.8917 %
534 17-01-2017 00:00:00 -5.14333 C 33.6917 %
535 18-01-2017 00:00:00 -7.12917 C 33.7333 %
536 19-01-2017 00:00:00 -8.02917 C 34.5500 %
537 20-01-2017 00:00:00 -8.47167 C 31.5833 %
538 21-01-2017 00:00:00 -7.91167 C 34.8083 %
539 22-01-2017 00:00:00 -9.46417 C 33.6583 %
540 23-01-2017 00:00:00 -6.45667 C 35.5667 %
541 24-01-2017 00:00:00 -1.59917 C 36.1417 %
542 25-01-2017 00:00:00 -2.06134 C 21.1008 %
543 26-01-2017 00:00:00 -3.27167 C 23.9917 %
544 27-01-2017 00:00:00 -4.87833 C 33.7583 %
545 28-01-2017 00:00:00 -3.13417 C 35.4000 %
546 29-01-2017 00:00:00 1.74917 C 38.4417 %
547 30-01-2017 00:00:00 3.64583 C 50.8083 %
548 31-01-2017 00:00:00 2.45083 C 33.8167 %
549 01-02-2017 00:00:00 2.82417 C 29.1583 %
550 02-02-2017 00:00:00 3.84417 C 50.3250 %
Sensor: Nr:Datum:Temp:Feuchte:
Aussen-T/F 551 03-02-2017 00:00:00 4.79833 C 53.5417 %
552 04-02-2017 00:00:00 4.85833 C 34.5500 %
553 05-02-2017 00:00:00 3.81333 C 37.2333 %
554 06-02-2017 00:00:00 2.905 C 39.3000 %
555 07-02-2017 00:00:00 3.68333 C 32.7000 %
556 08-02-2017 00:00:00 2.47583 C 26.7500 %
557 09-02-2017 00:00:00 -0.87083 C 28.4083 %
558 10-02-2017 00:00:00 0.07583 C 21.2250 %
559 11-02-2017 00:00:00 1.1675 C 39.9583 %
560 12-02-2017 00:00:00 1.77167 C 49.6917 %
561 13-02-2017 00:00:00 2.44917 C 24.7083 %
562 14-02-2017 00:00:00 0.02083 C 31.7250 %
563 15-02-2017 00:00:00 0.65333 C 38.4083 %
564 16-02-2017 00:00:00 2.98583 C 54.9000 %
565 17-02-2017 00:00:00 5.05167 C 53.0917 %
566 18-02-2017 00:00:00 5.56917 C 38.1000 %
567 19-02-2017 00:00:00 2.74417 C 39.9417 %
568 20-02-2017 00:00:00 7.83667 C 30.5667 %
569 21-02-2017 00:00:00 9.77417 C 33.2917 %
570 22-02-2017 00:00:00 10.86167 C 22.7083 %
571 23-02-2017 00:00:00 8.95167 C 22.1250 %
572 24-02-2017 00:00:00 4.4525 C 26.0917 %
573 25-02-2017 00:00:00 3.06333 C 34.4667 %
574 26-02-2017 00:00:00 8.2025 C 22.5667 %
575 27-02-2017 00:00:00 10.56417 C 22.7417 %
Sensor: Nr:Datum:Temp:Feuchte:
Aussen-T/F 576 28-02-2017 00:00:00 5.03667 C 25.5167 %
577 01-03-2017 00:00:00 6.07333 C 27.2250 %
578 02-03-2017 00:00:00 7.615 C 21.8417 %
579 03-03-2017 00:00:00 5.64417 C 27.7417 %
580 04-03-2017 00:00:00 10.41667 C 24.1750 %
581 05-03-2017 00:00:00 6.48667 C 29.1917 %
582 06-03-2017 00:00:00 5.80083 C 30.7583 %
583 07-03-2017 00:00:00 5.375 C 37.1500 %
584 08-03-2017 00:00:00 4.1425 C 57.5333 %
585 09-03-2017 00:00:00 10.71 C 40.6917 %
586 10-03-2017 00:00:00 7.1775 C 21.1917 %
587 11-03-2017 00:00:00 5.8775 C 29.0333 %
588 12-03-2017 00:00:00 5.82167 C 27.9833 %
589 13-03-2017 00:00:00 5.775 C 26.7667 %
590 14-03-2017 00:00:00 8.80333 C 26.7000 %
591 15-03-2017 00:00:00 10.8 C 22.7333 %
592 16-03-2017 00:00:00 7.71667 C 32.6833 %
593 17-03-2017 00:00:00 8.33917 C 22.4167 %
594 18-03-2017 00:00:00 8.97583 C 28.3167 %
595 19-03-2017 00:00:00 12.0025 C 29.0167 %
596 20-03-2017 00:00:00 11.53917 C 20.0000 %
597 21-03-2017 00:00:00 8.86 C 25.1667 %
598 22-03-2017 00:00:00 5.1675 C 32.8583 %
599 23-03-2017 00:00:00 8.915 C 31.3000 %
600 24-03-2017 00:00:00 9.54583 C 23.0250 %
Sensor: Nr:Datum:Temp:Feuchte:
Aussen-T/F 601 25-03-2017 00:00:00 9.54417 C 26.8417 %
602 26-03-2017 00:00:00 9.08696 C 20.0000 %
603 27-03-2017 00:00:00 8.34583 C 26.6083 %
604 28-03-2017 00:00:00 9.97417 C 22.6583 %
605 29-03-2017 00:00:00 12.77833 C 22.9417 %
606 30-03-2017 00:00:00 14.22417 C 22.9833 %
607 31-03-2017 00:00:00 13.35333 C 29.3000 %
608 01-04-2017 00:00:00 13.83417 C 20.9000 %
609 02-04-2017 00:00:00 11.94167 C 24.9167 %
610 03-04-2017 00:00:00 10.62 C 26.7750 %
611 04-04-2017 00:00:00 9.20333 C 28.3417 %
612 05-04-2017 00:00:00 8.82333 C 22.4667 %
613 06-04-2017 00:00:00 9.21083 C 20.3667 %
614 07-04-2017 00:00:00 10.40583 C 23.0667 %
615 08-04-2017 00:00:00 13.42167 C 20.0917 %
616 09-04-2017 00:00:00 12.59 C 28.2250 %
617 10-04-2017 00:00:00 10.98833 C 23.4333 %
618 11-04-2017 00:00:00 10.6675 C 20.0000 %
619 12-04-2017 00:00:00 11.54667 C 20.0083 %
620 13-04-2017 00:00:00 12.27417 C 20.7667 %
621 14-04-2017 00:00:00 10.30417 C 22.3083 %
622 15-04-2017 00:00:00 8.6675 C 21.4500 %
623 16-04-2017 00:00:00 7.34417 C 23.7417 %
624 17-04-2017 00:00:00 6.805 C 28.0667 %
625 18-04-2017 00:00:00 5.69667 C 20.6333 %
Sensor: Nr:Datum:Temp:Feuchte:
Aussen-T/F 626 19-04-2017 00:00:00 4.65667 C 28.3500 %
627 20-04-2017 00:00:00 6.6825 C 23.4667 %
628 21-04-2017 00:00:00 8.16917 C 22.1500 %
629 22-04-2017 00:00:00 9.88 C 20.0000 %
630 23-04-2017 00:00:00 7.65 C 20.5333 %
631 24-04-2017 00:00:00 6.5875 C 27.3250 %
632 25-04-2017 00:00:00 7.13193 C 20.0000 %
633 26-04-2017 00:00:00 7.62583 C 20.1500 %
634 27-04-2017 00:00:00 7.74917 C 23.9083 %
635 28-04-2017 00:00:00 6.26083 C 27.3167 %
636 29-04-2017 00:00:00 9.68667 C 30.5750 %
637 30-04-2017 00:00:00 11.3975 C 20.0000 %
638 01-05-2017 00:00:00 9.75083 C 27.4250 %
639 02-05-2017 00:00:00 8.5825 C 45.3500 %
640 03-05-2017 00:00:00 10.7175 C 39.5000 %
641 04-05-2017 00:00:00 11.94833 C 30.7750 %
642 05-05-2017 00:00:00 12.685 C 23.2667 %
643 06-05-2017 00:00:00 13.30333 C 33.1667 %
644 07-05-2017 00:00:00 12.8375 C 37.3083 %
645 08-05-2017 00:00:00 9.69083 C 26.5500 %
646 09-05-2017 00:00:00 11.87667 C 24.9000 %
647 10-05-2017 00:00:00 11.33833 C 26.9167 %
648 11-05-2017 00:00:00 14.63833 C 25.1750 %
649 12-05-2017 00:00:00 16.395 C 30.7500 %
650 13-05-2017 00:00:00 18.05917 C 28.5167 %
Sensor: Nr:Datum:Temp:Feuchte:
Aussen-T/F 651 14-05-2017 00:00:00 16.575 C 24.9333 %
652 15-05-2017 00:00:00 16.65 C 33.9583 %
653 16-05-2017 00:00:00 20.58167 C 20.0000 %
654 17-05-2017 00:00:00 21.33 C 20.8417 %
655 18-05-2017 00:00:00 18.02917 C 26.7583 %
656 19-05-2017 00:00:00 13.17667 C 46.5833 %
657 20-05-2017 00:00:00 12.655 C 37.4083 %
658 21-05-2017 00:00:00 14.64917 C 29.2750 %
659 22-05-2017 00:00:00 17.3675 C 27.8667 %
660 23-05-2017 00:00:00 19.65167 C 23.7417 %
661 24-05-2017 00:00:00 17.405 C 20.4000 %
662 25-05-2017 00:00:00 20.29 C 21.8917 %
663 26-05-2017 00:00:00 19.73833 C 24.5250 %
664 27-05-2017 00:00:00 22.6075 C 24.8667 %
665 28-05-2017 00:00:00 21.81583 C 24.8250 %
666 29-05-2017 00:00:00 24.57833 C 34.4500 %
667 30-05-2017 00:00:00 22.94833 C 21.0500 %
668 31-05-2017 00:00:00 20.15917 C 21.0333 %
669 01-06-2017 00:00:00 20.24833 C 23.6500 %
670 02-06-2017 00:00:00 19.48083 C 25.5083 %
671 03-06-2017 00:00:00 19.46417 C 36.0000 %
672 04-06-2017 00:00:00 16.96583 C 37.9333 %
673 05-06-2017 00:00:00 17.975 C 34.7083 %
674 06-06-2017 00:00:00 16.04667 C 23.7250 %
675 07-06-2017 00:00:00 14.48333 C 20.5500 %
Sensor: Nr:Datum:Temp:Feuchte:
Aussen-T/F 676 08-06-2017 00:00:00 19.25 C 21.2917 %
677 09-06-2017 00:00:00 18.0925 C 23.5250 %
678 10-06-2017 00:00:00 19.44 C 25.5417 %
679 11-06-2017 00:00:00 21.575 C 23.5750 %
680 12-06-2017 00:00:00 22.1675 C 20.1333 %
681 13-06-2017 00:00:00 19.81833 C 20.2667 %
682 14-06-2017 00:00:00 20.985 C 24.1917 %
683 15-06-2017 00:00:00 22.28333 C 21.9500 %
684 16-06-2017 00:00:00 20.18667 C 20.0000 %
685 17-06-2017 00:00:00 18.07917 C 20.4667 %
686 18-06-2017 00:00:00 23.58667 C 21.1333 %
687 19-06-2017 00:00:00 24.0825 C 23.3000 %
688 20-06-2017 00:00:00 25.57083 C 21.0333 %
689 21-06-2017 00:00:00 27.36167 C 20.0000 %
690 22-06-2017 00:00:00 24.04083 C 25.6833 %
691 23-06-2017 00:00:00 23.645 C 21.6583 %
692 24-06-2017 00:00:00 21.56417 C 21.1667 %
693 25-06-2017 00:00:00 20.95 C 20.0000 %
694 26-06-2017 00:00:00 23.18333 C 20.0000 %
695 27-06-2017 00:00:00 19.20417 C 25.8000 %
696 28-06-2017 00:00:00 20.19167 C 37.8250 %
697 29-06-2017 00:00:00 18.5125 C 27.5083 %
698 30-06-2017 00:00:00 18.34833 C 22.5167 %
699 01-07-2017 00:00:00 16.22083 C 30.4250 %
700 02-07-2017 00:00:00 16.92 C 32.0250 %
Sensor: Nr:Datum:Temp:Feuchte:
Aussen-T/F 701 03-07-2017 00:00:00 18.83333 C 27.3833 %
702 04-07-2017 00:00:00 21.9375 C 21.4833 %
703 05-07-2017 00:00:00 23.425 C 23.6833 %
704 06-07-2017 00:00:00 22.78417 C 24.7917 %
705 07-07-2017 00:00:00 24.54667 C 34.9667 %
706 08-07-2017 00:00:00 24.04167 C 22.1750 %
707 09-07-2017 00:00:00 23.87667 C 21.6750 %
708 10-07-2017 00:00:00 19.995 C 36.4250 %
709 11-07-2017 00:00:00 19.97417 C 25.9167 %
710 12-07-2017 00:00:00 17.8025 C 27.7583 %
711 13-07-2017 00:00:00 17.10583 C 27.2083 %
712 14-07-2017 00:00:00 16.94333 C 24.9917 %
713 15-07-2017 00:00:00 17.56583 C 24.2833 %
714 16-07-2017 00:00:00 19.83833 C 21.7500 %
715 17-07-2017 00:00:00 22.11583 C 25.7917 %
716 18-07-2017 00:00:00 23.18917 C 26.1500 %
717 19-07-2017 00:00:00 24.29083 C 22.7083 %
718 20-07-2017 00:00:00 22.56083 C 28.0583 %
719 21-07-2017 00:00:00 21.25917 C 21.7417 %
720 22-07-2017 00:00:00 22.86083 C 31.7667 %
721 23-07-2017 00:00:00 19.16417 C 32.9917 %
722 24-07-2017 00:00:00 15.17 C 34.9083 %
723 25-07-2017 00:00:00 14.17917 C 53.8250 %
724 26-07-2017 00:00:00 17.7925 C 34.8833 %
725 27-07-2017 00:00:00 19.165 C 34.9917 %
Sensor: Nr:Datum:Temp:Feuchte:
Aussen-T/F 726 28-07-2017 00:00:00 17.4625 C 30.7500 %
727 29-07-2017 00:00:00 20.93333 C 25.8500 %
728 30-07-2017 00:00:00 23.44917 C 24.9833 %
729 31-07-2017 00:00:00 21.3325 C 25.8250 %
730 01-08-2017 00:00:00 20.18333 C 47.5000 %
731 02-08-2017 00:00:00 22.01833 C 35.3417 %
732 03-08-2017 00:00:00 21.82833 C 28.1250 %
733 04-08-2017 00:00:00 21.0775 C 24.1917 %
734 05-08-2017 00:00:00 19.94833 C 23.8417 %
735 06-08-2017 00:00:00 18.32583 C 25.1000 %
736 07-08-2017 00:00:00 17.93417 C 26.7083 %
737 08-08-2017 00:00:00 17.9375 C 27.5583 %
738 09-08-2017 00:00:00 18.1525 C 23.5583 %
739 10-08-2017 00:00:00 15.35 C 47.5833 %
740 11-08-2017 00:00:00 14.705 C 51.5167 %
741 12-08-2017 00:00:00 15.305 C 40.2750 %
742 13-08-2017 00:00:00 18.60917 C 28.7333 %
743 14-08-2017 00:00:00 18.56167 C 33.7917 %
744 15-08-2017 00:00:00 18.83833 C 38.5333 %
745 16-08-2017 00:00:00 19.97167 C 37.3917 %
746 17-08-2017 00:00:00 19.57167 C 33.3667 %
747 18-08-2017 00:00:00 18.17417 C 43.5167 %
748 19-08-2017 00:00:00 14.47417 C 43.3667 %
749 20-08-2017 00:00:00 14.925 C 30.8417 %
750 21-08-2017 00:00:00 16.3575 C 28.8917 %
Sensor: Nr:Datum:Temp:Feuchte:
Aussen-T/F 751 22-08-2017 00:00:00 16.08833 C 31.8500 %
752 23-08-2017 00:00:00 17.92583 C 30.8917 %
753 24-08-2017 00:00:00 19.9075 C 26.1917 %
754 25-08-2017 00:00:00 18.30833 C 37.3750 %
755 26-08-2017 00:00:00 20.88833 C 44.3167 %
756 27-08-2017 00:00:00 19.63083 C 34.5250 %
757 28-08-2017 00:00:00 19.4775 C 30.1667 %
758 29-08-2017 00:00:00 20.03667 C 34.9500 %
759 30-08-2017 00:00:00 20.91167 C 31.6750 %
760 31-08-2017 00:00:00 17.32857 C 27.5210 %
761 01-09-2017 00:00:00 14.1 C 34.5083 %
762 02-09-2017 00:00:00 14.51417 C 34.0667 %
763 03-09-2017 00:00:00 12.90417 C 31.6750 %
764 04-09-2017 00:00:00 13.94167 C 34.8750 %
765 05-09-2017 00:00:00 17.87 C 36.6833 %
766 06-09-2017 00:00:00 17.47083 C 25.8083 %
767 07-09-2017 00:00:00 15.90083 C 21.1083 %
768 08-09-2017 00:00:00 15.99583 C 20.6583 %
769 09-09-2017 00:00:00 14.54 C 39.9417 %
770 10-09-2017 00:00:00 13.27583 C 43.1833 %
771 11-09-2017 00:00:00 14.27083 C 26.4083 %
772 12-09-2017 00:00:00 14.32583 C 26.1417 %
773 13-09-2017 00:00:00 13.965 C 38.8333 %
774 14-09-2017 00:00:00 11.75417 C 39.2750 %
775 15-09-2017 00:00:00 12.5175 C 33.8750 %
Sensor: Nr:Datum:Temp:Feuchte:
Aussen-T/F 776 16-09-2017 00:00:00 10.11333 C 40.9500 %
777 17-09-2017 00:00:00 9.67 C 51.4833 %
778 18-09-2017 00:00:00 10.46 C 46.2417 %
779 19-09-2017 00:00:00 11.76 C 32.8500 %
780 20-09-2017 00:00:00 11.29583 C 42.5167 %
781 21-09-2017 00:00:00 10.49 C 44.7417 %
782 22-09-2017 00:00:00 11.12417 C 43.8917 %
783 23-09-2017 00:00:00 13.495 C 40.1917 %
784 24-09-2017 00:00:00 12.475 C 44.1417 %
785 25-09-2017 00:00:00 12.56583 C 44.0250 %
786 26-09-2017 00:00:00 13.27167 C 41.8333 %
787 27-09-2017 00:00:00 13.05083 C 43.9333 %
788 28-09-2017 00:00:00 14.64667 C 44.6000 %
789 29-09-2017 00:00:00 17.38667 C 38.5083 %
790 30-09-2017 00:00:00 14.205 C 48.5667 %
791 01-10-2017 00:00:00 10.23667 C 56.3000 %
792 02-10-2017 00:00:00 13.38833 C 43.6167 %
793 03-10-2017 00:00:00 12.20667 C 42.3667 %
794 04-10-2017 00:00:00 11.05583 C 31.0333 %
795 05-10-2017 00:00:00 12.92833 C 21.9667 %
796 06-10-2017 00:00:00 9.4 C 33.6250 %
797 07-10-2017 00:00:00 9.55083 C 31.6583 %
798 08-10-2017 00:00:00 11.81833 C 41.5417 %
799 09-10-2017 00:00:00 10.9925 C 47.1583 %
800 10-10-2017 00:00:00 12.88917 C 31.8167 %
Sensor: Nr:Datum:Temp:Feuchte:
Aussen-T/F 801 11-10-2017 00:00:00 13.19167 C 31.2083 %
802 12-10-2017 00:00:00 13.13667 C 36.6500 %
803 13-10-2017 00:00:00 13.9275 C 38.7583 %
804 14-10-2017 00:00:00 12.47167 C 50.0167 %
805 15-10-2017 00:00:00 11.94833 C 54.6750 %
806 16-10-2017 00:00:00 12.63333 C 51.4833 %
807 17-10-2017 00:00:00 12.20667 C 52.4250 %
808 18-10-2017 00:00:00 11.85333 C 50.4167 %
809 19-10-2017 00:00:00 11.0025 C 50.7750 %
810 20-10-2017 00:00:00 11.63697 C 37.7479 %
811 21-10-2017 00:00:00 11.28083 C 38.1917 %
812 22-10-2017 00:00:00 10.28417 C 24.4167 %
813 23-10-2017 00:00:00 10.42417 C 23.7667 %
814 24-10-2017 00:00:00 12.76333 C 33.7917 %
815 25-10-2017 00:00:00 15.1425 C 27.6500 %
816 26-10-2017 00:00:00 13.17917 C 29.2667 %
817 27-10-2017 00:00:00 10.80833 C 33.6167 %
818 28-10-2017 00:00:00 10.09833 C 24.5250 %
819 29-10-2017 00:00:00 10.1184 C 26.6160 %
820 30-10-2017 00:00:00 6.43917 C 30.2667 %
821 31-10-2017 00:00:00 7.06917 C 27.1250 %
822 01-11-2017 00:00:00 7.99917 C 24.8000 %
823 02-11-2017 00:00:00 7.76917 C 32.9583 %
824 03-11-2017 00:00:00 6.735 C 45.5833 %
825 04-11-2017 00:00:00 7.89167 C 53.2917 %
Sensor: Nr:Datum:Temp:Feuchte:
Aussen-T/F 826 05-11-2017 00:00:00 8.26167 C 46.6500 %
827 06-11-2017 00:00:00 5.14 C 33.5917 %
828 07-11-2017 00:00:00 4.24333 C 45.0833 %
829 08-11-2017 00:00:00 6.0575 C 55.0333 %
830 09-11-2017 00:00:00 7.38917 C 46.1583 %
831 10-11-2017 00:00:00 6.65917 C 26.9667 %
832 11-11-2017 00:00:00 5.63583 C 40.7000 %
833 12-11-2017 00:00:00 3.91583 C 58.4500 %
834 13-11-2017 00:00:00 4.73833 C 41.6917 %
835 14-11-2017 00:00:00 3.73417 C 47.8500 %
836 15-11-2017 00:00:00 6.5375 C 27.1083 %
837 16-11-2017 00:00:00 4.27833 C 39.8500 %
838 17-11-2017 00:00:00 5.2975 C 48.8250 %
839 18-11-2017 00:00:00 2.87083 C 39.8833 %
840 19-11-2017 00:00:00 4.78583 C 32.4167 %
841 20-11-2017 00:00:00 4.46917 C 31.8667 %
842 21-11-2017 00:00:00 8.65667 C 28.5833 %
843 22-11-2017 00:00:00 7.285 C 30.5250 %
844 23-11-2017 00:00:00 8.5175 C 46.0583 %
845 24-11-2017 00:00:00 9.68 C 41.3083 %
846 25-11-2017 00:00:00 4.5475 C 53.6583 %
847 26-11-2017 00:00:00 2.92583 C 28.8917 %
848 27-11-2017 00:00:00 4.8625 C 21.2917 %
849 28-11-2017 00:00:00 3.22667 C 51.1000 %
850 29-11-2017 00:00:00 2.265 C 55.6667 %
Sensor: Nr:Datum:Temp:Feuchte:
Aussen-T/F 851 30-11-2017 00:00:00 1.60417 C 52.1417 %
852 01-12-2017 00:00:00 -0.2175 C 65.1167 %
853 02-12-2017 00:00:00 0.44833 C 41.3833 %
854 03-12-2017 00:00:00 -0.00667 C 31.2250 %
855 04-12-2017 00:00:00 2.29 C 46.3167 %
856 05-12-2017 00:00:00 3.6025 C 38.3333 %
857 06-12-2017 00:00:00 5.19833 C 24.6583 %
858 07-12-2017 00:00:00 4.21333 C 22.9083 %
859 08-12-2017 00:00:00 2.61083 C 31.9250 %
860 09-12-2017 00:00:00 0.24417 C 20.0083 %
861 10-12-2017 00:00:00 1.39167 C 28.5667 %
862 11-12-2017 00:00:00 4.91083 C 48.9333 %
863 12-12-2017 00:00:00 2.8125 C 21.0417 %
864 13-12-2017 00:00:00 2.70083 C 32.0833 %
865 14-12-2017 00:00:00 3.58417 C 33.7083 %
866 15-12-2017 00:00:00 2.05167 C 59.1500 %
867 16-12-2017 00:00:00 2.14667 C 54.8167 %
868 17-12-2017 00:00:00 2.22583 C 28.7000 %
869 18-12-2017 00:00:00 0.71333 C 56.1333 %
870 19-12-2017 00:00:00 2.67 C 67.9667 %
871 20-12-2017 00:00:00 4.95083 C 67.4833 %
872 21-12-2017 00:00:00 6.82667 C 61.0083 %
873 22-12-2017 00:00:00 8.10417 C 67.4917 %
874 23-12-2017 00:00:00 8.1975 C 39.8417 %
875 24-12-2017 00:00:00 8.37583 C 20.1083 %
Sensor: Nr:Datum:Temp:Feuchte:
Aussen-T/F 876 25-12-2017 00:00:00 6.34167 C 20.0583 %
877 26-12-2017 00:00:00 3.55917 C 38.0083 %
878 27-12-2017 00:00:00 4.2 C 40.9333 %
879 28-12-2017 00:00:00 2.28083 C 30.6667 %
880 29-12-2017 00:00:00 1.6 C 29.8333 %
881 30-12-2017 00:00:00 6.22583 C 44.3250 %
882 31-12-2017 00:00:00 12.09667 C 23.3583 %
883 01-01-2018 00:00:00 7.035 C 28.9500 %
884 02-01-2018 00:00:00 5.395 C 28.4083 %
885 03-01-2018 00:00:00 7.40667 C 26.8250 %
886 04-01-2018 00:00:00 7.375 C 35.2167 %
887 05-01-2018 00:00:00 7.45583 C 34.5250 %
888 06-01-2018 00:00:00 5.4075 C 71.1333 %
889 07-01-2018 00:00:00 4.365 C 39.4167 %
890 08-01-2018 00:00:00 3.86417 C 21.1167 %
891 09-01-2018 00:00:00 4.01083 C 35.8167 %
892 10-01-2018 00:00:00 5.88833 C 39.9000 %
893 11-01-2018 00:00:00 6.29167 C 52.8750 %
894 12-01-2018 00:00:00 5.70083 C 50.0167 %
895 13-01-2018 00:00:00 4.70917 C 38.6750 %
896 14-01-2018 00:00:00 2.06917 C 25.5583 %
897 15-01-2018 00:00:00 2.675 C 35.7000 %
898 16-01-2018 00:00:00 5.00167 C 27.7500 %
899 17-01-2018 00:00:00 2.35 C 27.4500 %
900 18-01-2018 00:00:00 4.8775 C 25.4667 %
Sensor: Nr:Datum:Temp:Feuchte:
Aussen-T/F 901 19-01-2018 00:00:00 2.92583 C 27.3750 %
902 20-01-2018 00:00:00 2.10833 C 38.1000 %
903 21-01-2018 00:00:00 1.73917 C 43.8167 %
904 22-01-2018 00:00:00 4.38583 C 45.1083 %
905 23-01-2018 00:00:00 6.65593 C 27.4831 %
906 24-01-2018 00:00:00 10.79316 C 24.5470 %
907 25-01-2018 00:00:00 9.13917 C 43.9750 %
908 26-01-2018 00:00:00 5.89167 C 56.7333 %
909 27-01-2018 00:00:00 4.26583 C 45.6667 %
910 28-01-2018 00:00:00 6.63917 C 22.5333 %
911 29-01-2018 00:00:00 9.275 C 22.7417 %
912 30-01-2018 00:00:00 4.25333 C 35.1167 %
913 31-01-2018 00:00:00 6.62917 C 32.6500 %
914 01-02-2018 00:00:00 2.0675 C 36.1083 %
915 02-02-2018 00:00:00 2.36417 C 31.6667 %
916 03-02-2018 00:00:00 2.65042 C 30.2269 %
917 04-02-2018 00:00:00 0.38667 C 29.6333 %
918 05-02-2018 00:00:00 -0.98583 C 20.2500 %
919 06-02-2018 00:00:00 -1.55167 C 25.9583 %
920 07-02-2018 00:00:00 -0.79667 C 32.3833 %
921 08-02-2018 00:00:00 -3.34333 C 28.9667 %
922 09-02-2018 00:00:00 -2.8975 C 36.1833 %
923 10-02-2018 00:00:00 1.41833 C 24.0167 %
924 11-02-2018 00:00:00 2.22 C 26.3667 %
925 12-02-2018 00:00:00 1.25083 C 34.8917 %
Sensor: Nr:Datum:Temp:Feuchte:
Aussen-T/F 926 13-02-2018 00:00:00 -1.44 C 29.8417 %
927 14-02-2018 00:00:00 -3.14333 C 28.8667 %
928 15-02-2018 00:00:00 0.80417 C 40.6583 %
929 16-02-2018 00:00:00 0.98667 C 60.1667 %
930 17-02-2018 00:00:00 -0.55 C 48.8833 %
931 18-02-2018 00:00:00 -2.16917 C 38.4250 %
932 19-02-2018 00:00:00 0.37083 C 35.6500 %
933 20-02-2018 00:00:00 -0.54083 C 33.3417 %
934 21-02-2018 00:00:00 -0.04917 C 22.5333 %
935 22-02-2018 00:00:00 -1.265 C 21.2167 %
936 23-02-2018 00:00:00 -2.0175 C 20.0000 %
937 24-02-2018 00:00:00 -2.72667 C 20.0000 %
938 25-02-2018 00:00:00 -3.74417 C 20.0000 %
939 26-02-2018 00:00:00 -5.06167 C 20.0000 %
940 27-02-2018 00:00:00 -7.2225 C 20.3500 %
941 28-02-2018 00:00:00 -7.98333 C 20.0000 %
942 01-03-2018 00:00:00 -3.74917 C 20.0000 %
943 02-03-2018 00:00:00 -2.59083 C 20.0917 %
944 03-03-2018 00:00:00 -0.72083 C 28.3583 %
945 04-03-2018 00:00:00 3.2 C 37.8833 %
946 05-03-2018 00:00:00 5.22833 C 42.3583 %
947 06-03-2018 00:00:00 4.25 C 40.7750 %
948 07-03-2018 00:00:00 4.89167 C 43.0333 %
949 08-03-2018 00:00:00 5.66417 C 23.5833 %
950 09-03-2018 00:00:00 4.83667 C 41.9500 %
Sensor: Nr:Datum:Temp:Feuchte:
Aussen-T/F 951 10-03-2018 00:00:00 9.51333 C 45.7833 %
952 11-03-2018 00:00:00 9.60833 C 40.1667 %
953 12-03-2018 00:00:00 9.04083 C 37.0250 %
954 13-03-2018 00:00:00 6.84083 C 24.1083 %
955 14-03-2018 00:00:00 6.32917 C 26.1667 %
956 15-03-2018 00:00:00 5.73833 C 33.0750 %
957 16-03-2018 00:00:00 7.00917 C 47.9667 %
958 17-03-2018 00:00:00 -0.93917 C 20.2583 %
959 18-03-2018 00:00:00 -2.1675 C 20.0000 %
960 19-03-2018 00:00:00 -0.63417 C 20.0000 %
961 20-03-2018 00:00:00 -0.4175 C 20.0167 %
962 21-03-2018 00:00:00 0.5225 C 24.8500 %
963 22-03-2018 00:00:00 2.45417 C 30.2000 %
964 23-03-2018 00:00:00 5.83583 C 38.3250 %
965 24-03-2018 00:00:00 4.74917 C 35.3167 %
966 25-03-2018 00:00:00 4.60522 C 30.4870 %
967 26-03-2018 00:00:00 7.34167 C 20.0250 %
968 27-03-2018 00:00:00 5.52083 C 29.7083 %
969 28-03-2018 00:00:00 8.02667 C 36.4167 %
970 29-03-2018 00:00:00 6.93667 C 20.9833 %
971 30-03-2018 00:00:00 6.38833 C 34.0000 %
972 31-03-2018 00:00:00 7.84583 C 39.4917 %
973 01-04-2018 00:00:00 7.26083 C 20.4250 %
974 02-04-2018 00:00:00 8.7875 C 27.6500 %
975 03-04-2018 00:00:00 13.26583 C 20.0000 %
Sensor: Nr:Datum:Temp:Feuchte:
Aussen-T/F 976 04-04-2018 00:00:00 10.6625 C 24.3500 %
977 05-04-2018 00:00:00 7.485 C 30.3417 %
978 06-04-2018 00:00:00 6.66833 C 35.5583 %
979 07-04-2018 00:00:00 12.16083 C 22.7583 %
980 08-04-2018 00:00:00 14.75333 C 22.3333 %
981 09-04-2018 00:00:00 13.84583 C 24.6917 %
982 10-04-2018 00:00:00 12.68 C 28.0833 %
983 11-04-2018 00:00:00 11.99333 C 34.9833 %
984 12-04-2018 00:00:00 13.34833 C 37.0500 %
985 13-04-2018 00:00:00 9.9075 C 32.0833 %
986 14-04-2018 00:00:00 12.74 C 36.2167 %
987 15-04-2018 00:00:00 14.41667 C 27.2750 %
988 16-04-2018 00:00:00 13.76083 C 31.1917 %
989 17-04-2018 00:00:00 14.02167 C 29.2083 %
990 18-04-2018 00:00:00 15.74583 C 26.0333 %
991 19-04-2018 00:00:00 17.22083 C 26.6000 %
992 20-04-2018 00:00:00 17.00083 C 24.1667 %
993 21-04-2018 00:00:00 18.43667 C 23.5750 %
994 22-04-2018 00:00:00 18.55417 C 25.1083 %
995 23-04-2018 00:00:00 18.66417 C 20.2833 %
996 24-04-2018 00:00:00 14.27333 C 24.2167 %
997 25-04-2018 00:00:00 13.4125 C 21.6750 %
998 26-04-2018 00:00:00 11.21 C 20.0000 %
999 27-04-2018 00:00:00 12.55083 C 22.6167 %
1000 28-04-2018 00:00:00 12.6075 C 23.1000 %
Sensor: Nr:Datum:Temp:Feuchte:
Aussen-T/F 1001 29-04-2018 00:00:00 14.48167 C 29.9583 %
1002 30-04-2018 00:00:00 13.82167 C 24.6083 %
1003 01-05-2018 00:00:00 9.82667 C 20.0500 %
1004 02-05-2018 00:00:00 9.81083 C 27.0250 %
1005 03-05-2018 00:00:00 12.9575 C 23.3250 %
1006 04-05-2018 00:00:00 13.49833 C 21.9583 %
1007 05-05-2018 00:00:00 15.83583 C 20.0667 %
1008 06-05-2018 00:00:00 17.25 C 20.1167 %
1009 07-05-2018 00:00:00 17.88167 C 21.1000 %
1010 08-05-2018 00:00:00 18.43583 C 22.6667 %
1011 09-05-2018 00:00:00 17.19333 C 22.2583 %
1012 10-05-2018 00:00:00 14.13917 C 25.9500 %
1013 11-05-2018 00:00:00 14.92083 C 27.9167 %
1014 12-05-2018 00:00:00 17.0825 C 28.2750 %
1015 13-05-2018 00:00:00 14.3425 C 37.0500 %
1016 14-05-2018 00:00:00 17.16333 C 35.6750 %
1017 15-05-2018 00:00:00 16.0375 C 27.9417 %
1018 16-05-2018 00:00:00 15.7475 C 27.4000 %
1019 17-05-2018 00:00:00 14.55667 C 23.4833 %
1020 18-05-2018 00:00:00 13.17083 C 21.1083 %
1021 19-05-2018 00:00:00 13.845 C 23.5250 %
1022 20-05-2018 00:00:00 14.06917 C 31.8333 %
1023 21-05-2018 00:00:00 17.55333 C 27.4333 %
1024 22-05-2018 00:00:00 17.09833 C 29.9833 %
1025 23-05-2018 00:00:00 17.23083 C 36.1833 %
Sensor: Nr:Datum:Temp:Feuchte:
Aussen-T/F 1026 24-05-2018 00:00:00 17.22083 C 27.4917 %
1027 25-05-2018 00:00:00 20.19417 C 26.8083 %
1028 26-05-2018 00:00:00 21.1325 C 26.3667 %
1029 27-05-2018 00:00:00 20.4375 C 27.6917 %
1030 28-05-2018 00:00:00 21.70917 C 33.5833 %
1031 29-05-2018 00:00:00 20.88333 C 27.1500 %
1032 30-05-2018 00:00:00 21.6725 C 28.2333 %
1033 31-05-2018 00:00:00 23.08167 C 20.2750 %
1034 01-06-2018 00:00:00 19.3725 C 29.3667 %
1035 02-06-2018 00:00:00 19.64917 C 23.6750 %
1036 03-06-2018 00:00:00 20.04167 C 24.8250 %
1037 04-06-2018 00:00:00 21.5125 C 24.5417 %
1038 05-06-2018 00:00:00 21.2475 C 22.2500 %
1039 06-06-2018 00:00:00 21.6775 C 24.0000 %
1040 07-06-2018 00:00:00 21.58667 C 22.6167 %
1041 08-06-2018 00:00:00 21.40167 C 24.3000 %
1042 09-06-2018 00:00:00 22.3959 C 23.5984 %
1043 10-06-2018 00:00:00 21.64333 C 33.3000 %
1044 11-06-2018 00:00:00 19.07083 C 41.7083 %
1045 12-06-2018 00:00:00 16.44167 C 37.5250 %
1046 13-06-2018 00:00:00 15.1 C 22.7000 %
1047 14-06-2018 00:00:00 15.48083 C 30.2917 %
1048 15-06-2018 00:00:00 17.9025 C 35.7250 %
1049 16-06-2018 00:00:00 20.2775 C 26.1583 %
1050 17-06-2018 00:00:00 18.42583 C 22.8083 %
Sensor: Nr:Datum:Temp:Feuchte:
Aussen-T/F 1051 18-06-2018 00:00:00 18.235 C 21.9750 %
1052 19-06-2018 00:00:00 19.13333 C 25.5583 %
1053 20-06-2018 00:00:00 23.4825 C 24.4667 %
1054 21-06-2018 00:00:00 18.58 C 22.6500 %
1055 22-06-2018 00:00:00 14.12167 C 20.0000 %
1056 23-06-2018 00:00:00 14.19167 C 21.2750 %
1057 24-06-2018 00:00:00 16.46667 C 22.7833 %
1058 25-06-2018 00:00:00 17.57167 C 21.5583 %
1059 26-06-2018 00:00:00 18.34083 C 24.8583 %
1060 27-06-2018 00:00:00 19.81083 C 24.3333 %
1061 28-06-2018 00:00:00 21.28417 C 20.6000 %
1062 29-06-2018 00:00:00 24.82417 C 20.0000 %
1063 30-06-2018 00:00:00 22.8375 C 20.4583 %
1064 01-07-2018 00:00:00 21.52333 C 20.0000 %
1065 02-07-2018 00:00:00 21.06583 C 20.0000 %
1066 03-07-2018 00:00:00 21.34917 C 20.0000 %
1067 04-07-2018 00:00:00 19.00917 C 27.2667 %
1068 05-07-2018 00:00:00 19.70667 C 33.6083 %
1069 06-07-2018 00:00:00 20.57333 C 25.0417 %
1070 07-07-2018 00:00:00 21.3521 C 23.5630 %
1071 08-07-2018 00:00:00 20.38417 C 21.0583 %
1072 09-07-2018 00:00:00 20.71083 C 21.4167 %
1073 10-07-2018 00:00:00 17.5975 C 22.4000 %
1074 11-07-2018 00:00:00 16.2875 C 33.6667 %
1075 12-07-2018 00:00:00 19.71583 C 32.5000 %
Sensor: Nr:Datum:Temp:Feuchte:
Aussen-T/F 1076 13-07-2018 00:00:00 20.13 C 24.9667 %
1077 14-07-2018 00:00:00 22.01333 C 24.7500 %
1078 15-07-2018 00:00:00 22.10833 C 22.6333 %
1079 16-07-2018 00:00:00 23.10667 C 21.7167 %
1080 17-07-2018 00:00:00 21.59583 C 20.3583 %
1081 18-07-2018 00:00:00 20.9475 C 22.7500 %
1082 19-07-2018 00:00:00 21.47667 C 21.5833 %
1083 20-07-2018 00:00:00 21.81583 C 20.1917 %
1084 21-07-2018 00:00:00 20.94083 C 22.6750 %
1085 22-07-2018 00:00:00 22.115 C 25.1500 %
1086 23-07-2018 00:00:00 22.98917 C 21.2167 %
1087 24-07-2018 00:00:00 24.11417 C 22.5833 %
1088 25-07-2018 00:00:00 25.90417 C 20.1583 %
1089 26-07-2018 00:00:00 27.54333 C 20.0167 %
1090 27-07-2018 00:00:00 26.46167 C 20.0000 %
1091 28-07-2018 00:00:00 22.24 C 22.3250 %
1092 29-07-2018 00:00:00 23.87667 C 23.3500 %
1093 30-07-2018 00:00:00 24.435 C 20.3250 %
1094 31-07-2018 00:00:00 25.8025 C 21.1500 %
1095 01-08-2018 00:00:00 20.68583 C 32.5500 %
1096 02-08-2018 00:00:00 24.12 C 31.7333 %
1097 03-08-2018 00:00:00 26.79583 C 20.9083 %
1098 04-08-2018 00:00:00 26.84 C 20.0667 %
1099 05-08-2018 00:00:00 25.5025 C 20.1667 %
1100 06-08-2018 00:00:00 24.4075 C 20.1500 %
Sensor: Nr:Datum:Temp:Feuchte:
Aussen-T/F 1101 07-08-2018 00:00:00 26.99333 C 20.0000 %
1102 08-08-2018 00:00:00 25.83667 C 20.0000 %
1103 09-08-2018 00:00:00 20.8725 C 26.6583 %
1104 10-08-2018 00:00:00 18.73667 C 20.8917 %
1105 11-08-2018 00:00:00 18.76667 C 20.0000 %
1106 12-08-2018 00:00:00 18.38667 C 21.9833 %
1107 13-08-2018 00:00:00 17.82083 C 28.9750 %
1108 14-08-2018 00:00:00 18.755 C 28.1167 %
1109 15-08-2018 00:00:00 19.59583 C 29.0833 %
1110 16-08-2018 00:00:00 20.84333 C 28.0000 %
1111 17-08-2018 00:00:00 20.11583 C 22.3500 %
1112 18-08-2018 00:00:00 19.2675 C 26.3417 %
1113 19-08-2018 00:00:00 20.68667 C 23.5250 %
1114 20-08-2018 00:00:00 21.20333 C 20.6833 %
1115 21-08-2018 00:00:00 22.2425 C 24.3417 %
1116 22-08-2018 00:00:00 23.51417 C 22.7667 %
1117 23-08-2018 00:00:00 23.22 C 23.0167 %
1118 24-08-2018 00:00:00 19.31833 C 20.6583 %
1119 25-08-2018 00:00:00 14.65417 C 21.6083 %
1120 26-08-2018 00:00:00 13.95083 C 28.0000 %
1121 27-08-2018 00:00:00 18.20917 C 20.3667 %
1122 28-08-2018 00:00:00 18.39833 C 20.7167 %
1123 29-08-2018 00:00:00 17.005 C 30.8917 %
1124 30-08-2018 00:00:00 17.4125 C 25.9167 %
1125 31-08-2018 00:00:00 15.33167 C 23.6000 %
Sensor: Nr:Datum:Temp:Feuchte:
Aussen-T/F 1126 01-09-2018 00:00:00 14.445 C 26.6667 %
1127 02-09-2018 00:00:00 14.24833 C 24.8000 %
1128 03-09-2018 00:00:00 18.13417 C 22.9917 %
1129 04-09-2018 00:00:00 20.0425 C 27.0167 %
1130 05-09-2018 00:00:00 20.69 C 25.3083 %
1131 06-09-2018 00:00:00 18.0925 C 32.7583 %
1132 07-09-2018 00:00:00 15.6675 C 33.8500 %
1133 08-09-2018 00:00:00 13.5425 C 30.5333 %
1134 09-09-2018 00:00:00 16.80833 C 23.2500 %
1135 10-09-2018 00:00:00 17.5025 C 23.9000 %
1136 11-09-2018 00:00:00 18.86667 C 26.0333 %
1137 12-09-2018 00:00:00 19.03167 C 24.0083 %
1138 13-09-2018 00:00:00 16.5775 C 25.7417 %
1139 14-09-2018 00:00:00 17.1375 C 25.2000 %
1140 15-09-2018 00:00:00 15.17 C 21.0833 %
1141 16-09-2018 00:00:00 14.51 C 27.7833 %
1142 17-09-2018 00:00:00 16.24583 C 25.3583 %
1143 18-09-2018 00:00:00 18.72833 C 26.0000 %
1144 19-09-2018 00:00:00 20.545 C 25.3250 %
1145 20-09-2018 00:00:00 19.08833 C 26.8417 %
1146 21-09-2018 00:00:00 15.91167 C 24.5750 %
1147 22-09-2018 00:00:00 12.6825 C 25.6333 %
1148 23-09-2018 00:00:00 12.18083 C 47.2250 %
1149 24-09-2018 00:00:00 9.66 C 36.3583 %
1150 25-09-2018 00:00:00 8.06417 C 42.7083 %
Sensor: Nr:Datum:Temp:Feuchte:
Aussen-T/F 1151 26-09-2018 00:00:00 8.5625 C 35.2583 %
1152 27-09-2018 00:00:00 10.55833 C 35.5667 %
1153 28-09-2018 00:00:00 9.67833 C 43.7167 %
1154 29-09-2018 00:00:00 7.75083 C 41.1250 %
1155 30-09-2018 00:00:00 7.2475 C 35.9250 %
1156 01-10-2018 00:00:00 9.41583 C 29.7833 %
1157 02-10-2018 00:00:00 8.87917 C 33.7167 %
1158 03-10-2018 00:00:00 11.93917 C 34.0750 %
1159 04-10-2018 00:00:00 9.37167 C 38.3000 %
1160 05-10-2018 00:00:00 10.05917 C 42.4917 %
1161 06-10-2018 00:00:00 12.08583 C 44.5417 %
1162 07-10-2018 00:00:00 12.625 C 37.2750 %
1163 08-10-2018 00:00:00 9.9775 C 39.4833 %
1164 09-10-2018 00:00:00 11.14583 C 44.1500 %
1165 10-10-2018 00:00:00 12.71667 C 45.8500 %
1166 11-10-2018 00:00:00 13.6775 C 40.8667 %
1167 12-10-2018 00:00:00 15.05417 C 38.8667 %
1168 13-10-2018 00:00:00 14.68833 C 38.8250 %
1169 14-10-2018 00:00:00 13.92083 C 36.1000 %
1170 15-10-2018 00:00:00 12.87417 C 37.7167 %
1171 16-10-2018 00:00:00 12.0325 C 38.6083 %
1172 17-10-2018 00:00:00 12.01333 C 41.5083 %
1173 18-10-2018 00:00:00 13.73917 C 38.0333 %
1174 19-10-2018 00:00:00 11.66417 C 37.7167 %
1175 20-10-2018 00:00:00 10.57167 C 36.9583 %
Sensor: Nr:Datum:Temp:Feuchte:
Aussen-T/F 1176 21-10-2018 00:00:00 6.7725 C 44.7500 %
1177 22-10-2018 00:00:00 7.16833 C 43.7083 %
1178 23-10-2018 00:00:00 8.68 C 39.8083 %
1179 24-10-2018 00:00:00 13.58167 C 33.8333 %
1180 25-10-2018 00:00:00 12.74667 C 31.1083 %
1181 26-10-2018 00:00:00 9.95417 C 28.9917 %
1182 27-10-2018 00:00:00 5.7925 C 48.4000 %
1183 28-10-2018 00:00:00 5.2 C 33.7840 %
1184 29-10-2018 00:00:00 5.97083 C 33.6667 %
1185 30-10-2018 00:00:00 5.80583 C 46.3667 %
1186 31-10-2018 00:00:00 6.87167 C 39.3333 %
1187 01-11-2018 00:00:00 5.49083 C 58.1333 %
1188 02-11-2018 00:00:00 8.22333 C 53.4750 %
1189 03-11-2018 00:00:00 3.10583 C 60.6667 %
1190 04-11-2018 00:00:00 6.64167 C 47.4000 %
1191 05-11-2018 00:00:00 9.7725 C 45.3417 %
1192 06-11-2018 00:00:00 7.78167 C 57.6917 %
1193 07-11-2018 00:00:00 8.4 C 54.3917 %
1194 08-11-2018 00:00:00 9.7 C 41.1583 %
1195 09-11-2018 00:00:00 8.83167 C 49.0500 %
1196 10-11-2018 00:00:00 11.32 C 42.0250 %
1197 11-11-2018 00:00:00 11.46583 C 47.7500 %
1198 12-11-2018 00:00:00 13.07917 C 44.0417 %
1199 13-11-2018 00:00:00 9.75583 C 50.0167 %
1200 14-11-2018 00:00:00 5.56917 C 61.4000 %
Sensor: Nr:Datum:Temp:Feuchte:
Aussen-T/F 1201 15-11-2018 00:00:00 6.72833 C 38.5000 %
1202 16-11-2018 00:00:00 5.12667 C 41.4000 %
1203 17-11-2018 00:00:00 1.785 C 48.8667 %
1204 18-11-2018 00:00:00 0.80333 C 30.7417 %
1205 19-11-2018 00:00:00 2.95833 C 26.3167 %
1206 20-11-2018 00:00:00 2.95167 C 25.6167 %
1207 21-11-2018 00:00:00 1.93 C 37.9750 %
1208 22-11-2018 00:00:00 2.22833 C 39.2750 %
1209 23-11-2018 00:00:00 -0.8425 C 54.2583 %
1210 24-11-2018 00:00:00 4.05833 C 58.0917 %
1211 25-11-2018 00:00:00 5.29 C 56.7917 %
1212 26-11-2018 00:00:00 6.09333 C 35.8583 %
1213 27-11-2018 00:00:00 3.6075 C 30.9583 %
1214 28-11-2018 00:00:00 2.97583 C 45.6917 %
1215 29-11-2018 00:00:00 4.98333 C 47.6917 %
1216 30-11-2018 00:00:00 6.67167 C 48.6583 %
1217 01-12-2018 00:00:00 6.67417 C 47.9750 %
1218 02-12-2018 00:00:00 10.59167 C 45.4750 %
1219 03-12-2018 00:00:00 11.02333 C 51.1333 %
1220 04-12-2018 00:00:00 5.62 C 45.3833 %
1221 05-12-2018 00:00:00 3.15546 C 56.8487 %
1222 06-12-2018 00:00:00 9.21333 C 47.7750 %
1223 07-12-2018 00:00:00 10.71583 C 33.9000 %
1224 08-12-2018 00:00:00 7.28083 C 37.2333 %
1225 09-12-2018 00:00:00 7.285 C 37.6917 %
Sensor: Nr:Datum:Temp:Feuchte:
Aussen-T/F 1226 10-12-2018 00:00:00 3.9825 C 44.3833 %
1227 11-12-2018 00:00:00 2.87417 C 51.3500 %
1228 12-12-2018 00:00:00 2.0375 C 58.1583 %
1229 13-12-2018 00:00:00 0.49 C 37.0417 %
1230 14-12-2018 00:00:00 0.48 C 20.9833 %
1231 15-12-2018 00:00:00 -0.09083 C 24.2083 %
1232 16-12-2018 00:00:00 0.045 C 43.8833 %
1233 17-12-2018 00:00:00 3.4775 C 51.8333 %
1234 18-12-2018 00:00:00 4.1675 C 41.5083 %
1235 19-12-2018 00:00:00 5.75 C 37.3000 %
1236 20-12-2018 00:00:00 6.87083 C 39.0583 %
1237 21-12-2018 00:00:00 10.1725 C 34.4750 %
1238 22-12-2018 00:00:00 9.26167 C 35.0083 %
1239 23-12-2018 00:00:00 7.89333 C 46.8500 %
1240 24-12-2018 00:00:00 4.10333 C 44.5000 %
1241 25-12-2018 00:00:00 1.0625 C 49.8500 %
1242 26-12-2018 00:00:00 -1.61083 C 52.7667 %
1243 27-12-2018 00:00:00 -0.68583 C 57.2917 %
1244 28-12-2018 00:00:00 -0.61667 C 51.7667 %
1245 29-12-2018 00:00:00 2.0175 C 45.4833 %
1246 30-12-2018 00:00:00 6.73917 C 37.6417 %
1247 31-12-2018 00:00:00 6.84917 C 56.5417 %
1248 01-01-2019 00:00:00 6.345 C 45.5833 %
1249 02-01-2019 00:00:00 2.72417 C 34.2083 %
1250 03-01-2019 00:00:00 1.28167 C 47.5833 %
Sensor: Nr:Datum:Temp:Feuchte:
Aussen-T/F 1251 04-01-2019 00:00:00 2.41333 C 45.7833 %
1252 05-01-2019 00:00:00 5.14417 C 47.4583 %
1253 06-01-2019 00:00:00 5.0725 C 44.3083 %
1254 07-01-2019 00:00:00 4.8875 C 41.5500 %
1255 08-01-2019 00:00:00 5.74917 C 36.7000 %
1256 09-01-2019 00:00:00 3.05083 C 34.6917 %
1257 10-01-2019 00:00:00 1.36 C 32.5417 %
1258 11-01-2019 00:00:00 2.05417 C 54.0417 %
1259 12-01-2019 00:00:00 5.01833 C 46.3583 %
1260 13-01-2019 00:00:00 6.9225 C 47.7417 %
1261 14-01-2019 00:00:00 4.06833 C 43.5667 %
1262 15-01-2019 00:00:00 4.06833 C 40.0333 %
1263 16-01-2019 00:00:00 4.52583 C 35.3417 %
1264 17-01-2019 00:00:00 4.27167 C 37.9583 %
1265 18-01-2019 00:00:00 -0.2025 C 49.3250 %
1266 19-01-2019 00:00:00 -3.87667 C 48.1333 %
1267 20-01-2019 00:00:00 -6.33 C 47.2250 %
1268 21-01-2019 00:00:00 -7.505 C 46.8917 %
1269 22-01-2019 00:00:00 -5.97917 C 44.1750 %
1270 23-01-2019 00:00:00 -2.435 C 39.5667 %
1271 24-01-2019 00:00:00 -2.72417 C 26.7667 %
1272 25-01-2019 00:00:00 -0.50917 C 39.3333 %
1273 26-01-2019 00:00:00 3.62167 C 45.9417 %
1274 27-01-2019 00:00:00 4.94833 C 43.1917 %
1275 28-01-2019 00:00:00 2.2025 C 45.2417 %
Sensor: Nr:Datum:Temp:Feuchte:
Aussen-T/F 1276 29-01-2019 00:00:00 0.865 C 44.1667 %
1277 30-01-2019 00:00:00 -0.46833 C 49.8250 %
1278 31-01-2019 00:00:00 -1.03333 C 52.2750 %
1279 01-02-2019 00:00:00 0.72167 C 56.8333 %
1280 02-02-2019 00:00:00 1.59587 C 62.5950 %
1281 03-02-2019 00:00:00 1.86583 C 40.0750 %
1282 04-02-2019 00:00:00 0.99417 C 40.5833 %
1283 05-02-2019 00:00:00 3.66167 C 30.5917 %
1284 06-02-2019 00:00:00 0.09417 C 46.8417 %
1285 07-02-2019 00:00:00 4.26083 C 38.9917 %
1286 08-02-2019 00:00:00 6.77417 C 31.6250 %
1287 09-02-2019 00:00:00 8.02083 C 28.8667 %
1288 10-02-2019 00:00:00 7.15083 C 39.6167 %
1289 11-02-2019 00:00:00 4.03667 C 38.3917 %
1290 12-02-2019 00:00:00 3.01917 C 38.2083 %
1291 13-02-2019 00:00:00 0.96333 C 46.8167 %
1292 14-02-2019 00:00:00 -0.46667 C 51.0250 %
1293 15-02-2019 00:00:00 0.9925 C 45.0667 %
1294 16-02-2019 00:00:00 1.9325 C 47.3750 %
1295 17-02-2019 00:00:00 2.17333 C 49.1333 %
1296 18-02-2019 00:00:00 2.31167 C 43.0500 %
1297 19-02-2019 00:00:00 4.89 C 40.9750 %
1298 20-02-2019 00:00:00 3.7725 C 45.5000 %
1299 21-02-2019 00:00:00 5.655 C 46.3667 %
1300 22-02-2019 00:00:00 9.27167 C 39.5167 %
Sensor: Nr:Datum:Temp:Feuchte:
Aussen-T/F 1301 23-02-2019 00:00:00 4.58167 C 33.2583 %
1302 24-02-2019 00:00:00 2.29833 C 32.9417 %
1303 25-02-2019 00:00:00 3.65667 C 31.8250 %
1304 26-02-2019 00:00:00 4.75583 C 37.6333 %
1305 27-02-2019 00:00:00 5.17417 C 38.9250 %
1306 28-02-2019 00:00:00 8.185 C 29.8833 %
1307 01-03-2019 00:00:00 7.515 C 43.8250 %
1308 02-03-2019 00:00:00 8.29333 C 34.1417 %
1309 03-03-2019 00:00:00 10.72417 C 28.1417 %
1310 04-03-2019 00:00:00 9.1575 C 27.8167 %
1311 05-03-2019 00:00:00 6.32167 C 30.8917 %
1312 06-03-2019 00:00:00 9.5125 C 32.3667 %
1313 07-03-2019 00:00:00 9.61917 C 28.3833 %
1314 08-03-2019 00:00:00 7.73167 C 28.8250 %
1315 09-03-2019 00:00:00 10.01667 C 26.3333 %
1316 10-03-2019 00:00:00 9.11083 C 30.1417 %
1317 11-03-2019 00:00:00 4.19667 C 30.2417 %
1318 12-03-2019 00:00:00 6.18083 C 27.8583 %
1319 13-03-2019 00:00:00 5.6775 C 31.5250 %
1320 14-03-2019 00:00:00 6.3325 C 38.0083 %
1321 15-03-2019 00:00:00 9.61417 C 37.6917 %
1322 16-03-2019 00:00:00 9.76833 C 35.9667 %
1323 17-03-2019 00:00:00 8.19083 C 26.8333 %
1324 18-03-2019 00:00:00 4.3225 C 36.6583 %
1325 19-03-2019 00:00:00 3.115 C 40.3583 %
Sensor: Nr:Datum:Temp:Feuchte:
Aussen-T/F 1326 20-03-2019 00:00:00 4.81417 C 37.4250 %
1327 21-03-2019 00:00:00 6.76333 C 35.7167 %
1328 22-03-2019 00:00:00 8.43083 C 34.0750 %
1329 23-03-2019 00:00:00 5.40167 C 40.0083 %
1330 24-03-2019 00:00:00 5.90583 C 38.2167 %
1331 25-03-2019 00:00:00 4.41583 C 37.7583 %
1332 26-03-2019 00:00:00 6.33417 C 32.9583 %
1333 27-03-2019 00:00:00 6.36583 C 35.3083 %
1334 28-03-2019 00:00:00 6.955 C 36.2417 %
1335 29-03-2019 00:00:00 8.44167 C 38.7750 %
1336 30-03-2019 00:00:00 10.07583 C 34.1833 %
1337 31-03-2019 00:00:00 9.90957 C 33.8174 %
1338 01-04-2019 00:00:00 8.9475 C 32.5750 %
1339 02-04-2019 00:00:00 10.5425 C 29.3083 %
1340 03-04-2019 00:00:00 7.865 C 38.6750 %
1341 04-04-2019 00:00:00 5.56833 C 48.7000 %
1342 05-04-2019 00:00:00 5.95417 C 48.0167 %
1343 06-04-2019 00:00:00 9.88333 C 42.1917 %
1344 07-04-2019 00:00:00 11.50833 C 36.8000 %
1345 08-04-2019 00:00:00 12.34417 C 33.9167 %
1346 09-04-2019 00:00:00 12.00333 C 40.7333 %
1347 10-04-2019 00:00:00 10.585 C 23.8417 %
1348 11-04-2019 00:00:00 6.52917 C 25.0583 %
1349 12-04-2019 00:00:00 4.68167 C 20.0000 %
1350 13-04-2019 00:00:00 3.585 C 24.4167 %
Sensor: Nr:Datum:Temp:Feuchte:
Aussen-T/F 1351 14-04-2019 00:00:00 5.23833 C 34.7917 %
1352 15-04-2019 00:00:00 10.29167 C 25.8000 %
1353 16-04-2019 00:00:00 10.91333 C 23.2000 %
1354 17-04-2019 00:00:00 12.4 C 35.6083 %
1355 18-04-2019 00:00:00 13.7675 C 28.5500 %
1356 19-04-2019 00:00:00 14.94917 C 24.5083 %
1357 20-04-2019 00:00:00 14.60167 C 27.5833 %
1358 21-04-2019 00:00:00 15.24333 C 24.6417 %
1359 22-04-2019 00:00:00 14.7825 C 27.5667 %
1360 23-04-2019 00:00:00 15.12667 C 20.1083 %
1361 24-04-2019 00:00:00 15.10083 C 30.7083 %
1362 25-04-2019 00:00:00 13.2425 C 38.0667 %
1363 26-04-2019 00:00:00 11.8 C 32.0000 %
1364 27-04-2019 00:00:00 9.01583 C 40.3667 %
1365 28-04-2019 00:00:00 8.43333 C 30.9750 %
1366 29-04-2019 00:00:00 8.62417 C 38.4083 %
1367 30-04-2019 00:00:00 13.94583 C 26.0833 %
1368 01-05-2019 00:00:00 13.03833 C 29.5000 %
1369 02-05-2019 00:00:00 12.08333 C 31.3667 %
1370 03-05-2019 00:00:00 11.20833 C 25.1500 %
1371 04-05-2019 00:00:00 6.17583 C 33.4500 %
1372 05-05-2019 00:00:00 6.66333 C 32.0417 %
1373 06-05-2019 00:00:00 7.6075 C 30.6583 %
1374 07-05-2019 00:00:00 9.645 C 28.6167 %
1375 08-05-2019 00:00:00 9.105 C 38.9750 %
Sensor: Nr:Datum:Temp:Feuchte:
Aussen-T/F 1376 09-05-2019 00:00:00 11.085 C 36.9583 %
1377 10-05-2019 00:00:00 12.44538 C 33.3866 %
1378 11-05-2019 00:00:00 9.52833 C 47.9417 %
1379 12-05-2019 00:00:00 9.4 C 31.3083 %
1380 13-05-2019 00:00:00 9.985 C 30.9083 %
1381 14-05-2019 00:00:00 9.66333 C 26.4333 %
1382 15-05-2019 00:00:00 10.57083 C 24.3500 %
1383 16-05-2019 00:00:00 10.61167 C 23.0917 %
1384 17-05-2019 00:00:00 11.4775 C 39.7250 %
1385 18-05-2019 00:00:00 14.67167 C 39.3500 %
1386 19-05-2019 00:00:00 15.91083 C 38.3750 %
1387 20-05-2019 00:00:00 13.655 C 37.8667 %
1388 21-05-2019 00:00:00 11.88167 C 45.6167 %
1389 22-05-2019 00:00:00 13.2875 C 33.7833 %
1390 23-05-2019 00:00:00 15.22667 C 33.1417 %
1391 24-05-2019 00:00:00 17.24 C 28.7500 %
1392 25-05-2019 00:00:00 15.89917 C 22.8167 %
1393 26-05-2019 00:00:00 16.26667 C 29.2667 %
1394 27-05-2019 00:00:00 14.66667 C 40.5417 %
1395 28-05-2019 00:00:00 14.29917 C 38.6250 %
1396 29-05-2019 00:00:00 15.28667 C 25.9000 %
1397 30-05-2019 00:00:00 15.82833 C 28.8250 %
1398 31-05-2019 00:00:00 19.45583 C 30.4167 %
1399 01-06-2019 00:00:00 20.21917 C 30.3583 %
1400 02-06-2019 00:00:00 22.16417 C 30.0500 %
Sensor: Nr:Datum:Temp:Feuchte:
Aussen-T/F 1401 03-06-2019 00:00:00 21.1475 C 27.1667 %
1402 04-06-2019 00:00:00 21.80333 C 28.3333 %
1403 05-06-2019 00:00:00 23.57917 C 22.7833 %
1404 06-06-2019 00:00:00 16.14167 C 28.3667 %
1405 07-06-2019 00:00:00 16.10083 C 29.5250 %
1406 08-06-2019 00:00:00 16.40917 C 20.2667 %
1407 09-06-2019 00:00:00 16.72333 C 27.7667 %
1408 10-06-2019 00:00:00 19.705 C 23.4750 %
1409 11-06-2019 00:00:00 17.38 C 32.4667 %
1410 12-06-2019 00:00:00 16.405 C 33.2917 %
1411 13-06-2019 00:00:00 16.27917 C 34.4333 %
1412 14-06-2019 00:00:00 18.17 C 35.6583 %
1413 15-06-2019 00:00:00 19.72583 C 33.0250 %
1414 16-06-2019 00:00:00 19.94417 C 24.9167 %
1415 17-06-2019 00:00:00 19.5125 C 29.1250 %
1416 18-06-2019 00:00:00 22.02333 C 27.1333 %
1417 19-06-2019 00:00:00 22.62583 C 27.6917 %
1418 20-06-2019 00:00:00 20 C 28.0167 %
1419 21-06-2019 00:00:00 19.3425 C 27.3333 %
1420 22-06-2019 00:00:00 19.82667 C 26.6167 %
1421 23-06-2019 00:00:00 22.3125 C 27.3750 %
1422 24-06-2019 00:00:00 24.96167 C 26.2167 %
1423 25-06-2019 00:00:00 26.83333 C 24.5583 %
1424 26-06-2019 00:00:00 27.635 C 23.0833 %
1425 27-06-2019 00:00:00 25.18917 C 20.6083 %
Sensor: Nr:Datum:Temp:Feuchte:
Aussen-T/F 1426 28-06-2019 00:00:00 22.44833 C 23.4333 %
1427 29-06-2019 00:00:00 24.38417 C 22.1750 %
1428 30-06-2019 00:00:00 26.0575 C 22.2333 %
1429 01-07-2019 00:00:00 23.3825 C 20.0000 %
1430 02-07-2019 00:00:00 19.63333 C 21.8667 %
1431 03-07-2019 00:00:00 18.14583 C 22.9833 %
1432 04-07-2019 00:00:00 18.95917 C 21.7583 %
1433 05-07-2019 00:00:00 21.28 C 20.0000 %
1434 06-07-2019 00:00:00 21.86 C 21.2917 %
1435 07-07-2019 00:00:00 17.9975 C 24.5833 %
1436 08-07-2019 00:00:00 14.77583 C 24.3917 %
1437 09-07-2019 00:00:00 15.65583 C 24.6667 %
1438 10-07-2019 00:00:00 17.64083 C 24.2083 %
1439 11-07-2019 00:00:00 17.65083 C 31.2583 %
1440 12-07-2019 00:00:00 17.16583 C 43.6333 %
1441 13-07-2019 00:00:00 17.9575 C 34.1250 %
1442 14-07-2019 00:00:00 17.12917 C 26.6667 %
1443 15-07-2019 00:00:00 16.56667 C 21.0917 %
1444 16-07-2019 00:00:00 16.26 C 28.0333 %
1445 17-07-2019 00:00:00 17.56833 C 29.2083 %
1446 18-07-2019 00:00:00 19.38333 C 28.1917 %
1447 19-07-2019 00:00:00 20.12667 C 31.9750 %
1448 20-07-2019 00:00:00 21.81667 C 30.3083 %
1449 21-07-2019 00:00:00 22.37333 C 25.8833 %
1450 22-07-2019 00:00:00 22.7225 C 26.2833 %
Sensor: Nr:Datum:Temp:Feuchte:
Aussen-T/F 1451 23-07-2019 00:00:00 25.34083 C 25.5333 %
1452 24-07-2019 00:00:00 27.1975 C 24.2750 %
1453 25-07-2019 00:00:00 28.90167 C 21.7333 %
1454 26-07-2019 00:00:00 27.54417 C 21.2500 %
1455 27-07-2019 00:00:00 23.4375 C 26.6833 %
1456 28-07-2019 00:00:00 19.93083 C 38.1333 %
1457 29-07-2019 00:00:00 21.45583 C 29.3333 %
1458 30-07-2019 00:00:00 22.35833 C 26.7167 %
1459 31-07-2019 00:00:00 21.48417 C 20.5333 %
1460 01-08-2019 00:00:00 19.83417 C 22.9750 %
1461 02-08-2019 00:00:00 20.8775 C 22.8500 %
1462 03-08-2019 00:00:00 20.77167 C 24.6333 %
1463 04-08-2019 00:00:00 21.00667 C 28.3000 %
1464 05-08-2019 00:00:00 22.56833 C 24.9167 %
1465 06-08-2019 00:00:00 20.0075 C 30.3333 %
1466 07-08-2019 00:00:00 19.10167 C 41.3833 %
1467 08-08-2019 00:00:00 20.55667 C 30.6417 %
1468 09-08-2019 00:00:00 19.73833 C 39.4583 %
1469 10-08-2019 00:00:00 20.72917 C 37.6833 %
1470 11-08-2019 00:00:00 17.03333 C 35.9000 %
1471 12-08-2019 00:00:00 16.51583 C 38.9833 %
1472 13-08-2019 00:00:00 16.10833 C 35.2833 %
1473 14-08-2019 00:00:00 16.6875 C 34.0417 %
1474 15-08-2019 00:00:00 17.20583 C 40.0250 %
1475 16-08-2019 00:00:00 17.84 C 34.2250 %
Sensor: Nr:Datum:Temp:Feuchte:
Aussen-T/F 1476 17-08-2019 00:00:00 17.89333 C 38.0750 %
1477 18-08-2019 00:00:00 19.71833 C 44.5000 %
1478 19-08-2019 00:00:00 18.45167 C 33.8417 %
1479 20-08-2019 00:00:00 15.91167 C 33.3250 %
1480 21-08-2019 00:00:00 16.52917 C 33.4750 %
1481 22-08-2019 00:00:00 17.12333 C 32.3667 %
1482 23-08-2019 00:00:00 18.31667 C 31.5083 %
1483 24-08-2019 00:00:00 19.36333 C 30.9833 %
1484 25-08-2019 00:00:00 21.54583 C 29.8917 %
1485 26-08-2019 00:00:00 22.17 C 33.4833 %
1486 27-08-2019 00:00:00 22.70333 C 35.1667 %
1487 28-08-2019 00:00:00 23.4425 C 30.4583 %
1488 29-08-2019 00:00:00 22.20333 C 28.3583 %
1489 30-08-2019 00:00:00 21.07 C 29.2583 %
1490 31-08-2019 00:00:00 21.975 C 30.7583 %
1491 01-09-2019 00:00:00 18.8525 C 26.8333 %
1492 02-09-2019 00:00:00 15.49333 C 28.2000 %
1493 03-09-2019 00:00:00 15.72917 C 28.0833 %
1494 04-09-2019 00:00:00 16.9525 C 33.9667 %
1495 05-09-2019 00:00:00 15.59 C 26.2917 %
1496 06-09-2019 00:00:00 13.58917 C 31.1917 %
1497 07-09-2019 00:00:00 12.6975 C 39.5000 %
1498 08-09-2019 00:00:00 12.7439 C 48.5935 %
1499 09-09-2019 00:00:00 15.23733 C 38.6667 %
1500 10-09-2019 00:00:00 12.20486 C 22.8264 %
Sensor: Nr:Datum:Temp:Feuchte:
Aussen-T/F 1501 11-09-2019 00:00:00 13.35556 C 20.8472 %
1502 12-09-2019 00:00:00 19.325 C 20.0000 %
1503 13-09-2019 00:00:00 17.86806 C 20.1111 %
1504 14-09-2019 00:00:00 15.93333 C 22.4375 %
1505 15-09-2019 00:00:00 15.65694 C 21.2778 %
1506 16-09-2019 00:00:00 16.21389 C 20.0000 %
1507 17-09-2019 00:00:00 15.87708 C 20.0000 %
1508 18-09-2019 00:00:00 11.47361 C 20.7917 %
1509 19-09-2019 00:00:00 10.53333 C 21.8194 %
1510 20-09-2019 00:00:00 10.80486 C 20.8472 %
1511 21-09-2019 00:00:00 12.45278 C 20.6597 %
1512 22-09-2019 00:00:00 14.78542 C 20.7500 %
1513 23-09-2019 00:00:00 16.6875 C 22.1528 %
1514 24-09-2019 00:00:00 13.94306 C 26.6319 %
1515 25-09-2019 00:00:00 15.31806 C 25.0417 %
1516 26-09-2019 00:00:00 16.10903 C 26.0000 %
1517 27-09-2019 00:00:00 16.23333 C 23.7708 %
1518 28-09-2019 00:00:00 15.40208 C 22.5833 %
1519 29-09-2019 00:00:00 16.05972 C 21.6597 %
1520 30-09-2019 00:00:00 15.48194 C 21.1319 %
1521 01-10-2019 00:00:00 15.84375 C 23.4931 %
1522 02-10-2019 00:00:00 12.57569 C 23.6111 %
1523 03-10-2019 00:00:00 9.35625 C 27.6944 %
1524 04-10-2019 00:00:00 10.03681 C 31.8403 %
1525 05-10-2019 00:00:00 10.32986 C 26.5903 %
Sensor: Nr:Datum:Temp:Feuchte:
Aussen-T/F 1526 06-10-2019 00:00:00 7.85764 C 34.1250 %
1527 07-10-2019 00:00:00 9.80764 C 31.8819 %
1528 08-10-2019 00:00:00 12.35833 C 31.0694 %
1529 09-10-2019 00:00:00 11.56667 C 27.7431 %
1530 10-10-2019 00:00:00 11.49097 C 26.2153 %
1531 11-10-2019 00:00:00 12.41458 C 28.8194 %
1532 12-10-2019 00:00:00 13.21111 C 29.6875 %
1533 13-10-2019 00:00:00 16.35417 C 28.4722 %
1534 14-10-2019 00:00:00 15.8125 C 27.6528 %
1535 15-10-2019 00:00:00 13.94028 C 29.8611 %
1536 16-10-2019 00:00:00 12.42153 C 29.2917 %
1537 17-10-2019 00:00:00 14.32708 C 27.4167 %
1538 18-10-2019 00:00:00 12.3125 C 29.7292 %
1539 19-10-2019 00:00:00 12.78194 C 28.2083 %
1540 20-10-2019 00:00:00 13.0875 C 34.7778 %
1541 21-10-2019 00:00:00 13.30486 C 29.2014 %
1542 22-10-2019 00:00:00 11.45 C 27.8819 %
1543 23-10-2019 00:00:00 10.68403 C 31.1181 %
1544 24-10-2019 00:00:00 13.85208 C 27.9236 %
1545 25-10-2019 00:00:00 13.1625 C 24.9444 %
1546 26-10-2019 00:00:00 12.72639 C 27.5417 %
1547 27-10-2019 00:00:00 9.68467 C 30.8733 %
1548 28-10-2019 00:00:00 5.91597 C 35.2014 %
1549 29-10-2019 00:00:00 6.21181 C 29.3264 %
1550 30-10-2019 00:00:00 2.93333 C 34.5347 %
Sensor: Nr:Datum:Temp:Feuchte:
Aussen-T/F 1551 31-10-2019 00:00:00 1.41875 C 34.8333 %
1552 01-11-2019 00:00:00 5.44792 C 36.7292 %
1553 02-11-2019 00:00:00 12.8125 C 27.6458 %
1554 03-11-2019 00:00:00 11.45069 C 29.7639 %
1555 04-11-2019 00:00:00 9.88542 C 30.2153 %
1556 05-11-2019 00:00:00 9.25069 C 27.4306 %
1557 06-11-2019 00:00:00 8.33542 C 34.7014 %
1558 07-11-2019 00:00:00 7.30278 C 33.8333 %
1559 08-11-2019 00:00:00 4.29028 C 37.7153 %
1560 09-11-2019 00:00:00 4.26806 C 33.1111 %
1561 10-11-2019 00:00:00 2.51319 C 34.9861 %
1562 11-11-2019 00:00:00 4.2 C 27.4792 %
1563 12-11-2019 00:00:00 5.41667 C 25.4792 %
1564 13-11-2019 00:00:00 4.93472 C 22.9861 %
1565 14-11-2019 00:00:00 4.86042 C 26.9861 %
1566 15-11-2019 00:00:00 4.08472 C 26.3333 %
1567 16-11-2019 00:00:00 1.19444 C 38.8125 %
1568 17-11-2019 00:00:00 2.39861 C 40.2708 %
1569 18-11-2019 00:00:00 3.51667 C 36.2847 %
1570 19-11-2019 00:00:00 3.06736 C 36.5833 %
1571 20-11-2019 00:00:00 0.75972 C 37.8403 %
1572 21-11-2019 00:00:00 1.18951 C 39.3846 %
1573 22-11-2019 00:00:00 3.65972 C 35.6806 %
1574 23-11-2019 00:00:00 4.64653 C 33.3889 %
1575 24-11-2019 00:00:00 1.99861 C 41.4722 %
Sensor: Nr:Datum:Temp:Feuchte:
Aussen-T/F 1576 25-11-2019 00:00:00 4.16319 C 39.3681 %
1577 26-11-2019 00:00:00 7.75903 C 34.8472 %
1578 27-11-2019 00:00:00 9.72083 C 30.6875 %
1579 28-11-2019 00:00:00 10.55833 C 22.1319 %
1580 29-11-2019 00:00:00 5.75486 C 30.7639 %
1581 30-11-2019 00:00:00 0.48194 C 42.0972 %
1582 01-12-2019 00:00:00 1.14236 C 33.0139 %
1583 02-12-2019 00:00:00 1.20556 C 36.2986 %
1584 03-12-2019 00:00:00 3.97431 C 39.2292 %
1585 04-12-2019 00:00:00 0.41389 C 41.6111 %
1586 05-12-2019 00:00:00 -2.03194 C 42.0972 %
1587 06-12-2019 00:00:00 2.6125 C 34.4722 %
1588 07-12-2019 00:00:00 8.20694 C 27.7292 %
1589 08-12-2019 00:00:00 9.69931 C 24.2778 %
1590 09-12-2019 00:00:00 7.09444 C 23.9722 %
1591 10-12-2019 00:00:00 2.37361 C 34.0000 %
1592 11-12-2019 00:00:00 3.12569 C 39.3056 %
1593 12-12-2019 00:00:00 2.64931 C 37.2500 %
1594 13-12-2019 00:00:00 3.25278 C 34.0069 %
1595 14-12-2019 00:00:00 6.22222 C 28.0625 %
1596 15-12-2019 00:00:00 7.24792 C 30.8958 %
1597 16-12-2019 00:00:00 7.47361 C 39.2986 %
1598 17-12-2019 00:00:00 9.69514 C 31.9653 %
1599 18-12-2019 00:00:00 6.95069 C 37.4792 %
1600 19-12-2019 00:00:00 4.60972 C 40.5417 %
Sensor: Nr:Datum:Temp:Feuchte:
Aussen-T/F 1601 20-12-2019 00:00:00 6.87778 C 35.7847 %
1602 21-12-2019 00:00:00 6.42778 C 32.4306 %
1603 22-12-2019 00:00:00 7.57917 C 31.0556 %
1604 23-12-2019 00:00:00 7.34861 C 28.6111 %
1605 24-12-2019 00:00:00 7.20278 C 29.9097 %
1606 25-12-2019 00:00:00 6.91944 C 32.8333 %
1607 26-12-2019 00:00:00 4.25278 C 40.6250 %
1608 27-12-2019 00:00:00 4.41181 C 36.8819 %
1609 28-12-2019 00:00:00 -1.22431 C 42.5000 %
1610 29-12-2019 00:00:00 -2.07708 C 39.8819 %
1611 30-12-2019 00:00:00 -1.99931 C 39.1319 %
1612 31-12-2019 00:00:00 -0.41736 C 39.5556 %
1613 01-01-2020 00:00:00 -0.10764 C 41.3403 %
1614 02-01-2020 00:00:00 0.98958 C 39.7014 %
1615 03-01-2020 00:00:00 7.00972 C 33.4653 %
1616 04-01-2020 00:00:00 4.78264 C 32.5903 %
1617 05-01-2020 00:00:00 5.21806 C 35.8750 %
1618 06-01-2020 00:00:00 2.11667 C 38.1667 %
1619 07-01-2020 00:00:00 4.43611 C 34.6944 %
1620 08-01-2020 00:00:00 7.71389 C 34.4167 %
1621 09-01-2020 00:00:00 10.33542 C 35.2292 %
1622 10-01-2020 00:00:00 8.27917 C 30.8958 %
1623 11-01-2020 00:00:00 3.61806 C 33.7639 %
1624 12-01-2020 00:00:00 4.57083 C 30.3889 %
1625 13-01-2020 00:00:00 5.88472 C 35.0903 %
Sensor: Nr:Datum:Temp:Feuchte:
Aussen-T/F 1626 14-01-2020 00:00:00 9.28264 C 24.1181 %
1627 15-01-2020 00:00:00 10.27083 C 23.7500 %
1628 16-01-2020 00:00:00 7.07569 C 40.1944 %
1629 17-01-2020 00:00:00 5.27986 C 39.1944 %
1630 18-01-2020 00:00:00 3.79028 C 32.6042 %
1631 19-01-2020 00:00:00 3.01389 C 40.8194 %
1632 20-01-2020 00:00:00 1.64861 C 39.3889 %
1633 21-01-2020 00:00:00 -2.675 C 44.7986 %
1634 22-01-2020 00:00:00 -1.95347 C 44.7153 %
1635 23-01-2020 00:00:00 0.53819 C 43.6458 %
1636 24-01-2020 00:00:00 0.81319 C 35.7222 %
1637 25-01-2020 00:00:00 1.99236 C 39.2014 %
1638 26-01-2020 00:00:00 2.13056 C 41.5625 %
1639 27-01-2020 00:00:00 5.48542 C 39.8264 %
1640 28-01-2020 00:00:00 5.07708 C 30.3750 %
1641 29-01-2020 00:00:00 4.20764 C 29.8611 %
1642 30-01-2020 00:00:00 7.57569 C 29.5694 %
1643 31-01-2020 00:00:00 12.86181 C 27.9167 %
1644 01-02-2020 00:00:00 11.16597 C 32.0972 %
1645 02-02-2020 00:00:00 9.925 C 31.1319 %
1646 03-02-2020 00:00:00 10.19236 C 29.5139 %
1647 04-02-2020 00:00:00 4.29514 C 36.4097 %
1648 05-02-2020 00:00:00 3.05069 C 37.1458 %
1649 06-02-2020 00:00:00 0.04514 C 42.7500 %
1650 07-02-2020 00:00:00 -0.30764 C 42.8264 %
Sensor: Nr:Datum:Temp:Feuchte:
Aussen-T/F 1651 08-02-2020 00:00:00 1.01389 C 43.0069 %
1652 09-02-2020 00:00:00 8.36458 C 32.5764 %
1653 10-02-2020 00:00:00 7.85 C 31.3611 %
1654 11-02-2020 00:00:00 5.29167 C 24.6597 %
1655 12-02-2020 00:00:00 4.32083 C 30.5972 %
1656 13-02-2020 00:00:00 3.32917 C 42.1250 %
1657 14-02-2020 00:00:00 5.46458 C 39.2639 %
1658 15-02-2020 00:00:00 5.89931 C 38.0278 %
1659 16-02-2020 00:00:00 14.44931 C 23.2431 %
1660 17-02-2020 00:00:00 8.25903 C 32.4167 %
1661 18-02-2020 00:00:00 6.89097 C 31.0347 %
1662 19-02-2020 00:00:00 5.73889 C 30.1875 %
1663 20-02-2020 00:00:00 7.7125 C 32.9722 %
1664 21-02-2020 00:00:00 4.71042 C 33.5972 %
1665 22-02-2020 00:00:00 7.67986 C 30.0347 %
1666 23-02-2020 00:00:00 10.01389 C 35.3403 %
1667 24-02-2020 00:00:00 7.74653 C 36.3194 %
1668 25-02-2020 00:00:00 8.81597 C 32.2778 %
1669 26-02-2020 00:00:00 4.37431 C 33.6806 %
1670 27-02-2020 00:00:00 2.22153 C 41.6806 %
1671 28-02-2020 00:00:00 3.52431 C 38.4514 %
1672 29-02-2020 00:00:00 8.60556 C 34.8889 %
1673 01-03-2020 00:00:00 7.15694 C 36.0000 %
1674 02-03-2020 00:00:00 5.99375 C 40.1667 %
1675 03-03-2020 00:00:00 4.26806 C 39.6458 %
Sensor: Nr:Datum:Temp:Feuchte:
Aussen-T/F 1676 04-03-2020 00:00:00 5.28958 C 37.5764 %
1677 05-03-2020 00:00:00 5.45764 C 43.0833 %
1678 06-03-2020 00:00:00 5.63958 C 40.4931 %
1679 07-03-2020 00:00:00 6.26458 C 33.7569 %
1680 08-03-2020 00:00:00 9.46458 C 32.2361 %
1681 09-03-2020 00:00:00 7.81875 C 35.4514 %
1682 10-03-2020 00:00:00 9.06181 C 39.4514 %
1683 11-03-2020 00:00:00 14.0375 C 35.2639 %
1684 12-03-2020 00:00:00 11.01597 C 30.3681 %
1685 13-03-2020 00:00:00 6.99236 C 33.4236 %
1686 14-03-2020 00:00:00 5.89028 C 38.1667 %
1687 15-03-2020 00:00:00 9.14653 C 32.2153 %
1688 16-03-2020 00:00:00 9.43264 C 35.6667 %
1689 17-03-2020 00:00:00 12.02708 C 33.7847 %
1690 18-03-2020 00:00:00 9.92639 C 36.2153 %
1691 19-03-2020 00:00:00 12.58194 C 32.0417 %
1692 20-03-2020 00:00:00 10.52657 C 36.2308 %
1693 21-03-2020 00:00:00 5.89653 C 34.6597 %
1694 22-03-2020 00:00:00 4.30139 C 28.5278 %
1695 23-03-2020 00:00:00 3.12292 C 27.0764 %
1696 24-03-2020 00:00:00 2.82431 C 27.8403 %
1697 25-03-2020 00:00:00 3.67014 C 25.0486 %
1698 26-03-2020 00:00:00 5.25486 C 23.4931 %
1699 27-03-2020 00:00:00 8.10139 C 29.8819 %
1700 28-03-2020 00:00:00 9.69236 C 30.9306 %
Sensor: Nr:Datum:Temp:Feuchte:
Aussen-T/F 1701 29-03-2020 00:00:00 5.0942 C 30.1377 %
1702 30-03-2020 00:00:00 2.89028 C 29.9167 %
1703 31-03-2020 00:00:00 5.79792 C 30.1528 %
1704 01-04-2020 00:00:00 4.16111 C 29.6944 %
1705 02-04-2020 00:00:00 5.26806 C 31.1944 %
1706 03-04-2020 00:00:00 7.93542 C 28.5069 %
1707 04-04-2020 00:00:00 6.89375 C 31.8958 %
1708 05-04-2020 00:00:00 9.74514 C 32.0625 %
1709 06-04-2020 00:00:00 12.17708 C 29.7431 %
1710 07-04-2020 00:00:00 14.2875 C 28.9028 %
1711 08-04-2020 00:00:00 15.02153 C 31.1528 %
1712 09-04-2020 00:00:00 15.89514 C 27.6458 %
1713 10-04-2020 00:00:00 14.80972 C 29.8333 %
1714 11-04-2020 00:00:00 14.775 C 25.4861 %
1715 12-04-2020 00:00:00 15.71319 C 27.3056 %
1716 13-04-2020 00:00:00 9.43542 C 29.6944 %
1717 14-04-2020 00:00:00 6.54583 C 28.1042 %
1718 15-04-2020 00:00:00 9.17222 C 30.8750 %
1719 16-04-2020 00:00:00 13.09792 C 29.6667 %
1720 17-04-2020 00:00:00 15.68056 C 30.2500 %
1721 18-04-2020 00:00:00 14.81597 C 32.5000 %
1722 19-04-2020 00:00:00 13.35694 C 32.8889 %
1723 20-04-2020 00:00:00 12.80069 C 22.9861 %
1724 21-04-2020 00:00:00 13.68472 C 21.3889 %
1725 22-04-2020 00:00:00 14.69375 C 23.2153 %
Sensor: Nr:Datum:Temp:Feuchte:
Aussen-T/F 1726 23-04-2020 00:00:00 14.90347 C 25.2917 %
1727 24-04-2020 00:00:00 14.72361 C 27.0278 %
1728 25-04-2020 00:00:00 13.03611 C 25.6597 %
1729 26-04-2020 00:00:00 12.22917 C 31.0069 %
1730 27-04-2020 00:00:00 13.17153 C 29.7431 %
1731 28-04-2020 00:00:00 12.62153 C 36.5556 %
1732 29-04-2020 00:00:00 14.57569 C 31.0903 %
1733 30-04-2020 00:00:00 12.09722 C 36.4583 %
1734 01-05-2020 00:00:00 10.66042 C 37.3542 %
1735 02-05-2020 00:00:00 10.00764 C 36.3611 %
1736 03-05-2020 00:00:00 10.75833 C 34.4653 %
1737 04-05-2020 00:00:00 11.74722 C 36.3681 %
1738 05-05-2020 00:00:00 11.26667 C 32.2083 %
1739 06-05-2020 00:00:00 11.08403 C 30.6181 %
1740 07-05-2020 00:00:00 13.50764 C 30.8056 %
1741 08-05-2020 00:00:00 15.85208 C 29.3056 %
1742 09-05-2020 00:00:00 16.28611 C 29.0139 %
1743 10-05-2020 00:00:00 15.97153 C 36.6389 %
1744 11-05-2020 00:00:00 9.26875 C 32.4028 %
1745 12-05-2020 00:00:00 8.55764 C 29.8264 %
1746 13-05-2020 00:00:00 9.41528 C 30.4444 %
1747 14-05-2020 00:00:00 9.74792 C 29.2917 %
1748 15-05-2020 00:00:00 11.27986 C 28.5903 %
1749 16-05-2020 00:00:00 11.95833 C 29.2986 %
1750 17-05-2020 00:00:00 14.25556 C 28.0625 %
Sensor: Nr:Datum:Temp:Feuchte:
Aussen-T/F 1751 18-05-2020 00:00:00 16.81042 C 28.8681 %
1752 19-05-2020 00:00:00 17.67986 C 29.2153 %
1753 20-05-2020 00:00:00 18.90417 C 29.3611 %
1754 21-05-2020 00:00:00 20.425 C 29.2361 %
1755 22-05-2020 00:00:00 20.27222 C 29.9583 %
1756 23-05-2020 00:00:00 13.65972 C 37.1111 %
1757 24-05-2020 00:00:00 13.68056 C 31.3750 %
1758 25-05-2020 00:00:00 16.41181 C 30.5625 %
1759 26-05-2020 00:00:00 15.69306 C 31.7292 %
1760 27-05-2020 00:00:00 18.09444 C 29.6597 %
1761 28-05-2020 00:00:00 18.81736 C 24.7153 %
1762 29-05-2020 00:00:00 16.43681 C 26.8056 %
1763 30-05-2020 00:00:00 16.61667 C 24.5000 %
1764 31-05-2020 00:00:00 16.21736 C 26.2153 %
1765 01-06-2020 00:00:00 19.27153 C 26.8889 %
1766 02-06-2020 00:00:00 21.30486 C 25.6250 %
1767 03-06-2020 00:00:00 21.06597 C 25.1042 %
1768 04-06-2020 00:00:00 14.39583 C 39.8403 %
1769 05-06-2020 00:00:00 11.4625 C 37.4306 %
1770 06-06-2020 00:00:00 12.76111 C 34.0347 %
1771 07-06-2020 00:00:00 13.84514 C 31.7083 %
1772 08-06-2020 00:00:00 15.57014 C 31.2986 %
1773 09-06-2020 00:00:00 14.49861 C 37.8333 %
1774 10-06-2020 00:00:00 15.8625 C 35.7431 %
1775 11-06-2020 00:00:00 15.99028 C 36.5486 %
Sensor: Nr:Datum:Temp:Feuchte:
Aussen-T/F 1776 12-06-2020 00:00:00 20.73403 C 31.5139 %
1777 13-06-2020 00:00:00 21.73403 C 27.8889 %
1778 14-06-2020 00:00:00 19.10208 C 32.2222 %
1779 15-06-2020 00:00:00 19.14306 C 31.8264 %
1780 16-06-2020 00:00:00 18.22986 C 36.8750 %
1781 17-06-2020 00:00:00 18.10486 C 36.5347 %
1782 18-06-2020 00:00:00 19.72569 C 31.4722 %
1783 19-06-2020 00:00:00 17.11181 C 35.9028 %
1784 20-06-2020 00:00:00 17.44514 C 34.6319 %
1785 21-06-2020 00:00:00 20.65208 C 31.4097 %
1786 22-06-2020 00:00:00 20.03958 C 29.0347 %
1787 23-06-2020 00:00:00 21.27708 C 29.8472 %
1788 24-06-2020 00:00:00 22.32569 C 27.2222 %
1789 25-06-2020 00:00:00 22.52222 C 26.3264 %
1790 26-06-2020 00:00:00 23.33542 C 29.4306 %
1791 27-06-2020 00:00:00 23.59236 C 27.9236 %
1792 28-06-2020 00:00:00 20.15625 C 29.1181 %
1793 29-06-2020 00:00:00 18.91667 C 29.3750 %
1794 30-06-2020 00:00:00 17.63611 C 29.2500 %
1795 01-07-2020 00:00:00 22.10764 C 27.2500 %
1796 02-07-2020 00:00:00 19.35903 C 32.8611 %
1797 03-07-2020 00:00:00 18.4375 C 30.9306 %
1798 04-07-2020 00:00:00 19.56528 C 27.8056 %
1799 05-07-2020 00:00:00 23.42222 C 26.5069 %
1800 06-07-2020 00:00:00 16.97292 C 27.8264 %
Sensor: Nr:Datum:Temp:Feuchte:
Aussen-T/F 1801 07-07-2020 00:00:00 16.98611 C 30.0903 %
1802 08-07-2020 00:00:00 15.99444 C 36.0486 %
1803 09-07-2020 00:00:00 22.42361 C 30.2153 %
1804 10-07-2020 00:00:00 18.77222 C 32.6042 %
1805 11-07-2020 00:00:00 17.44167 C 29.9514 %
1806 12-07-2020 00:00:00 18.36944 C 29.9792 %
1807 13-07-2020 00:00:00 20.63333 C 27.9931 %
1808 14-07-2020 00:00:00 19.57917 C 28.7153 %
1809 15-07-2020 00:00:00 18.56806 C 29.6389 %
1810 16-07-2020 00:00:00 16.03611 C 38.0625 %
1811 17-07-2020 00:00:00 19.64375 C 32.7222 %
1812 18-07-2020 00:00:00 20.24406 C 31.3636 %
1813 19-07-2020 00:00:00 23.3625 C 27.6597 %
1814 20-07-2020 00:00:00 20.29931 C 28.6111 %
1815 21-07-2020 00:00:00 18.99375 C 27.2083 %
1816 22-07-2020 00:00:00 18.52222 C 28.8542 %
1817 23-07-2020 00:00:00 20.38472 C 26.9306 %
1818 24-07-2020 00:00:00 21.93889 C 24.3333 %
1819 25-07-2020 00:00:00 21.73681 C 27.9583 %
1820 26-07-2020 00:00:00 21.61944 C 29.2361 %
1821 27-07-2020 00:00:00 22.74306 C 28.1181 %
1822 28-07-2020 00:00:00 23.63681 C 22.2569 %
1823 29-07-2020 00:00:00 20.21875 C 27.2083 %
1824 30-07-2020 00:00:00 21.74306 C 27.3958 %
1825 31-07-2020 00:00:00 25.38125 C 25.3056 %
Sensor: Nr:Datum:Temp:Feuchte:
Aussen-T/F 1826 01-08-2020 00:00:00 22.83611 C 31.0000 %
1827 02-08-2020 00:00:00 22.3625 C 29.5694 %
Sensor: Nr:Datum:Temp:Feuchte:
G-T/H 1 03-08-2015 00:00:00 20.1325 C 58.5833 %
2 04-08-2015 00:00:00 20.325 C 61.9083 %
3 05-08-2015 00:00:00 19.47833 C 64.3583 %
4 06-08-2015 00:00:00 20.25917 C 64.3583 %
5 07-08-2015 00:00:00 21.64083 C 65.0917 %
6 08-08-2015 00:00:00 22.08917 C 67.8167 %
7 09-08-2015 00:00:00 21.58083 C 67.9583 %
8 10-08-2015 00:00:00 21.44333 C 67.1417 %
9 11-08-2015 00:00:00 20.96333 C 67.0833 %
10 12-08-2015 00:00:00 21.32417 C 68.4000 %
11 13-08-2015 00:00:00 21.7175 C 68.6917 %
12 14-08-2015 00:00:00 22.36583 C 68.3750 %
13 15-08-2015 00:00:00 21.69333 C 66.6833 %
14 16-08-2015 00:00:00 20.2775 C 67.3583 %
15 17-08-2015 00:00:00 18.54417 C 68.6917 %
16 18-08-2015 00:00:00 18.02417 C 65.2417 %
17 19-08-2015 00:00:00 17.90417 C 60.9667 %
18 20-08-2015 00:00:00 19.13083 C 58.4750 %
19 21-08-2015 00:00:00 19.29417 C 60.4167 %
20 22-08-2015 00:00:00 18.915 C 60.9667 %
21 23-08-2015 00:00:00 18.9 C 61.1250 %
22 24-08-2015 00:00:00 19.19083 C 65.2833 %
23 25-08-2015 00:00:00 18.72667 C 64.5750 %
24 26-08-2015 00:00:00 18.58917 C 65.1833 %
25 27-08-2015 00:00:00 19.03083 C 67.3000 %
Sensor: Nr:Datum:Temp:Feuchte:
G-T/H 26 28-08-2015 00:00:00 18.38333 C 69.0250 %
27 29-08-2015 00:00:00 18.38417 C 70.4583 %
28 30-08-2015 00:00:00 19.39 C 72.3917 %
29 31-08-2015 00:00:00 20.6975 C 69.4083 %
30 01-09-2015 00:00:00 20.15 C 70.1583 %
31 02-09-2015 00:00:00 18.33167 C 68.7667 %
32 03-09-2015 00:00:00 17.54583 C 67.2417 %
33 04-09-2015 00:00:00 16.6275 C 64.0667 %
34 05-09-2015 00:00:00 14.8325 C 67.1583 %
35 06-09-2015 00:00:00 15.50833 C 66.5667 %
36 07-09-2015 00:00:00 15.67333 C 69.1250 %
37 08-09-2015 00:00:00 16.0075 C 71.3833 %
38 09-09-2015 00:00:00 16.68 C 65.9000 %
39 10-09-2015 00:00:00 15.92 C 64.2000 %
40 11-09-2015 00:00:00 15.59583 C 63.3917 %
41 12-09-2015 00:00:00 15.57 C 65.8583 %
42 13-09-2015 00:00:00 16.57667 C 71.0667 %
43 14-09-2015 00:00:00 16.69 C 71.9500 %
44 15-09-2015 00:00:00 15.7175 C 69.5500 %
45 16-09-2015 00:00:00 15.56417 C 72.2167 %
46 17-09-2015 00:00:00 15.93583 C 73.4417 %
47 18-09-2015 00:00:00 15.6125 C 73.4833 %
48 19-09-2015 00:00:00 15.85667 C 71.3750 %
49 20-09-2015 00:00:00 15.74917 C 72.2333 %
50 21-09-2015 00:00:00 15.62167 C 69.7583 %
Sensor: Nr:Datum:Temp:Feuchte:
G-T/H 51 22-09-2015 00:00:00 15.61417 C 71.9750 %
52 23-09-2015 00:00:00 14.74167 C 72.0667 %
53 24-09-2015 00:00:00 15.12083 C 72.9833 %
54 25-09-2015 00:00:00 15.3225 C 73.5083 %
55 26-09-2015 00:00:00 15.25667 C 72.2500 %
56 27-09-2015 00:00:00 14.47833 C 70.7250 %
57 28-09-2015 00:00:00 13.82083 C 63.8500 %
58 29-09-2015 00:00:00 13.9225 C 64.3833 %
59 30-09-2015 00:00:00 13.78667 C 63.5833 %
60 01-10-2015 00:00:00 12.79667 C 62.8583 %
61 02-10-2015 00:00:00 11.94833 C 64.4333 %
62 03-10-2015 00:00:00 12.395 C 70.0000 %
63 04-10-2015 00:00:00 13.28417 C 73.1000 %
64 05-10-2015 00:00:00 13.6925 C 73.3583 %
65 06-10-2015 00:00:00 14.75417 C 74.7000 %
66 07-10-2015 00:00:00 15.23833 C 74.9833 %
67 08-10-2015 00:00:00 15.18667 C 73.9750 %
68 09-10-2015 00:00:00 14.90167 C 74.2417 %
69 10-10-2015 00:00:00 14.54667 C 73.4250 %
70 11-10-2015 00:00:00 13.0525 C 61.8500 %
71 12-10-2015 00:00:00 11.29 C 60.7667 %
72 13-10-2015 00:00:00 10.26417 C 62.5750 %
73 14-10-2015 00:00:00 10.07 C 64.2000 %
74 15-10-2015 00:00:00 10.03 C 67.6500 %
75 16-10-2015 00:00:00 10.35583 C 70.7583 %
Sensor: Nr:Datum:Temp:Feuchte:
G-T/H 76 17-10-2015 00:00:00 10.84417 C 70.2250 %
77 18-10-2015 00:00:00 11.1475 C 71.3417 %
78 19-10-2015 00:00:00 11.18917 C 70.2667 %
79 20-10-2015 00:00:00 11.92083 C 73.4083 %
80 21-10-2015 00:00:00 12.1125 C 74.2667 %
81 22-10-2015 00:00:00 12.43083 C 74.8083 %
82 23-10-2015 00:00:00 12.8525 C 74.9750 %
83 24-10-2015 00:00:00 12.94083 C 73.2333 %
84 25-10-2015 00:00:00 12.9792 C 75.2880 %
85 26-10-2015 00:00:00 12.87083 C 74.4417 %
86 27-10-2015 00:00:00 11.90417 C 71.7000 %
87 28-10-2015 00:00:00 12.22417 C 74.5667 %
88 29-10-2015 00:00:00 12.4025 C 76.0083 %
89 30-10-2015 00:00:00 11.73667 C 72.8167 %
90 31-10-2015 00:00:00 11.19583 C 71.7583 %
91 01-11-2015 00:00:00 11.01 C 71.9750 %
92 02-11-2015 00:00:00 10.25583 C 69.3417 %
93 03-11-2015 00:00:00 9.9 C 70.3417 %
94 04-11-2015 00:00:00 10.06333 C 72.9667 %
95 05-11-2015 00:00:00 11.00667 C 76.0333 %
96 06-11-2015 00:00:00 12.04833 C 77.4500 %
97 07-11-2015 00:00:00 13.56417 C 78.3083 %
98 08-11-2015 00:00:00 13.79583 C 78.0000 %
99 09-11-2015 00:00:00 13.61583 C 78.0000 %
100 10-11-2015 00:00:00 13.80667 C 77.5667 %
Sensor: Nr:Datum:Temp:Feuchte:
G-T/H 101 11-11-2015 00:00:00 13.58 C 75.5167 %
102 12-11-2015 00:00:00 13.18583 C 76.2500 %
103 13-11-2015 00:00:00 12.58833 C 74.3167 %
104 14-11-2015 00:00:00 11.79167 C 70.2667 %
105 15-11-2015 00:00:00 12.18917 C 75.3083 %
106 16-11-2015 00:00:00 12.73 C 76.3750 %
107 17-11-2015 00:00:00 13.1775 C 77.0250 %
108 18-11-2015 00:00:00 13.73417 C 75.3917 %
109 19-11-2015 00:00:00 13.50583 C 75.1167 %
110 20-11-2015 00:00:00 12.18583 C 73.3667 %
111 21-11-2015 00:00:00 10.22417 C 66.4333 %
112 22-11-2015 00:00:00 8.77167 C 65.9583 %
113 23-11-2015 00:00:00 8.46833 C 67.1833 %
114 24-11-2015 00:00:00 8.06917 C 63.9917 %
115 25-11-2015 00:00:00 8.435 C 70.2917 %
116 26-11-2015 00:00:00 8.96833 C 72.8250 %
117 27-11-2015 00:00:00 8.3625 C 67.3417 %
118 28-11-2015 00:00:00 8.02333 C 67.4417 %
119 29-11-2015 00:00:00 8.965 C 72.4583 %
120 30-11-2015 00:00:00 10.345 C 74.4000 %
121 01-12-2015 00:00:00 11.16167 C 75.7250 %
122 02-12-2015 00:00:00 11.5875 C 75.8583 %
123 03-12-2015 00:00:00 11.085 C 72.3083 %
124 04-12-2015 00:00:00 10.09583 C 70.4250 %
125 05-12-2015 00:00:00 9.69167 C 72.4167 %
Sensor: Nr:Datum:Temp:Feuchte:
G-T/H 126 06-12-2015 00:00:00 9.48167 C 73.3917 %
127 07-12-2015 00:00:00 10.12083 C 75.0750 %
128 08-12-2015 00:00:00 9.17917 C 71.0417 %
129 09-12-2015 00:00:00 9.33333 C 74.2750 %
130 10-12-2015 00:00:00 8.84 C 70.2167 %
131 11-12-2015 00:00:00 8.05417 C 68.8833 %
132 12-12-2015 00:00:00 9.27583 C 74.2583 %
133 13-12-2015 00:00:00 10.04333 C 75.4167 %
134 14-12-2015 00:00:00 9.92917 C 75.1000 %
135 15-12-2015 00:00:00 8.91417 C 73.0167 %
136 16-12-2015 00:00:00 9.75667 C 76.1250 %
137 17-12-2015 00:00:00 11.36167 C 76.8583 %
138 18-12-2015 00:00:00 11.77417 C 77.0000 %
139 19-12-2015 00:00:00 12.04333 C 76.6167 %
140 20-12-2015 00:00:00 10.83917 C 74.4583 %
141 21-12-2015 00:00:00 10.93667 C 76.5083 %
142 22-12-2015 00:00:00 11.40833 C 76.6833 %
143 23-12-2015 00:00:00 11.51 C 76.4250 %
144 24-12-2015 00:00:00 10.82167 C 76.2250 %
145 25-12-2015 00:00:00 11.42167 C 77.0000 %
146 26-12-2015 00:00:00 11.68 C 77.0000 %
147 27-12-2015 00:00:00 10.6275 C 76.1250 %
148 28-12-2015 00:00:00 8.98083 C 70.9167 %
149 29-12-2015 00:00:00 7.58917 C 69.2083 %
150 30-12-2015 00:00:00 8.2025 C 73.7833 %
Sensor: Nr:Datum:Temp:Feuchte:
G-T/H 151 31-12-2015 00:00:00 8.56 C 74.3250 %
152 01-01-2016 00:00:00 8.00917 C 72.2667 %
153 02-01-2016 00:00:00 8.71833 C 74.2667 %
154 03-01-2016 00:00:00 8.725 C 75.2083 %
155 04-01-2016 00:00:00 8.69917 C 74.9333 %
156 05-01-2016 00:00:00 9.12417 C 76.0333 %
157 06-01-2016 00:00:00 9.33417 C 76.5000 %
158 07-01-2016 00:00:00 8.90667 C 74.1667 %
159 08-01-2016 00:00:00 7.98 C 70.4583 %
160 09-01-2016 00:00:00 6.60833 C 68.3250 %
161 10-01-2016 00:00:00 7.60084 C 74.0504 %
162 11-01-2016 00:00:00 8.1325 C 75.1500 %
163 12-01-2016 00:00:00 8.33667 C 75.0583 %
164 13-01-2016 00:00:00 8.1275 C 74.2917 %
165 14-01-2016 00:00:00 7.54667 C 70.0167 %
166 15-01-2016 00:00:00 7.395 C 71.2083 %
167 16-01-2016 00:00:00 6.98083 C 69.2833 %
168 17-01-2016 00:00:00 6.295 C 64.9750 %
169 18-01-2016 00:00:00 5.49917 C 64.8333 %
170 19-01-2016 00:00:00 4.78917 C 65.5000 %
171 20-01-2016 00:00:00 4.82833 C 66.9000 %
172 21-01-2016 00:00:00 5.51167 C 69.6167 %
173 22-01-2016 00:00:00 5.29667 C 68.5750 %
174 23-01-2016 00:00:00 5.67667 C 71.7167 %
175 24-01-2016 00:00:00 6.94167 C 74.3250 %
Sensor: Nr:Datum:Temp:Feuchte:
G-T/H 176 25-01-2016 00:00:00 8.14667 C 75.6833 %
177 26-01-2016 00:00:00 8.69 C 76.0750 %
178 27-01-2016 00:00:00 9.62167 C 75.4667 %
179 28-01-2016 00:00:00 9.90917 C 71.6667 %
180 29-01-2016 00:00:00 8.14667 C 68.8333 %
181 30-01-2016 00:00:00 9.08833 C 72.6167 %
182 31-01-2016 00:00:00 8.2675 C 70.5417 %
183 01-02-2016 00:00:00 9.75167 C 74.1417 %
184 02-02-2016 00:00:00 10.6475 C 74.2833 %
185 03-02-2016 00:00:00 9.35 C 67.8167 %
186 04-02-2016 00:00:00 8.42333 C 69.5417 %
187 05-02-2016 00:00:00 8.7975 C 72.7417 %
188 06-02-2016 00:00:00 9.6175 C 74.0000 %
189 07-02-2016 00:00:00 9.48833 C 73.2917 %
190 08-02-2016 00:00:00 9.44917 C 72.5417 %
191 09-02-2016 00:00:00 9.0575 C 70.2250 %
192 10-02-2016 00:00:00 8.62667 C 70.6833 %
193 11-02-2016 00:00:00 8.3975 C 71.5583 %
194 12-02-2016 00:00:00 7.87 C 67.5667 %
195 13-02-2016 00:00:00 7.18917 C 68.7583 %
196 14-02-2016 00:00:00 7.68417 C 72.7250 %
197 15-02-2016 00:00:00 7.525 C 70.2000 %
198 16-02-2016 00:00:00 6.49167 C 61.4583 %
199 17-02-2016 00:00:00 5.91083 C 64.0333 %
200 18-02-2016 00:00:00 6.93833 C 65.5917 %
Sensor: Nr:Datum:Temp:Feuchte:
G-T/H 201 19-02-2016 00:00:00 6.6725 C 64.0250 %
202 20-02-2016 00:00:00 6.87083 C 67.9667 %
203 21-02-2016 00:00:00 9.16417 C 72.3250 %
204 22-02-2016 00:00:00 10.13333 C 71.9167 %
205 23-02-2016 00:00:00 8.49917 C 67.6583 %
206 24-02-2016 00:00:00 7.5 C 68.0167 %
207 25-02-2016 00:00:00 6.74417 C 63.8250 %
208 26-02-2016 00:00:00 7.16167 C 63.9917 %
209 27-02-2016 00:00:00 7.0225 C 62.2167 %
210 28-02-2016 00:00:00 6.65833 C 63.3667 %
211 29-02-2016 00:00:00 7.045 C 60.9750 %
212 01-03-2016 00:00:00 6.78 C 60.8000 %
213 02-03-2016 00:00:00 7.31917 C 67.4500 %
214 03-03-2016 00:00:00 7.86333 C 68.0000 %
215 04-03-2016 00:00:00 7.1075 C 67.2583 %
216 05-03-2016 00:00:00 7.6825 C 73.4167 %
217 06-03-2016 00:00:00 7.565 C 70.6083 %
218 07-03-2016 00:00:00 7.475 C 71.4583 %
219 08-03-2016 00:00:00 6.84833 C 68.9583 %
220 09-03-2016 00:00:00 6.70833 C 65.5750 %
221 10-03-2016 00:00:00 6.68667 C 63.9583 %
222 11-03-2016 00:00:00 7.33667 C 67.2750 %
223 12-03-2016 00:00:00 7.66833 C 66.7333 %
224 13-03-2016 00:00:00 7.70417 C 66.4583 %
225 14-03-2016 00:00:00 7.42583 C 60.7917 %
Sensor: Nr:Datum:Temp:Feuchte:
G-T/H 226 15-03-2016 00:00:00 7.42583 C 63.4250 %
227 16-03-2016 00:00:00 7.295 C 63.0833 %
228 17-03-2016 00:00:00 6.89417 C 62.0000 %
229 18-03-2016 00:00:00 6.8975 C 63.3667 %
230 19-03-2016 00:00:00 7.8175 C 67.6500 %
231 20-03-2016 00:00:00 8.15083 C 68.6333 %
232 21-03-2016 00:00:00 8.68667 C 70.5417 %
233 22-03-2016 00:00:00 9.1375 C 70.2917 %
234 23-03-2016 00:00:00 9.6 C 70.4500 %
235 24-03-2016 00:00:00 9.6925 C 70.1333 %
236 25-03-2016 00:00:00 9.5625 C 71.4250 %
237 26-03-2016 00:00:00 9.97667 C 69.9250 %
238 27-03-2016 00:00:00 10.11913 C 70.8522 %
239 28-03-2016 00:00:00 9.8125 C 71.8083 %
240 29-03-2016 00:00:00 9.8175 C 71.2500 %
241 30-03-2016 00:00:00 10.3175 C 71.9583 %
242 31-03-2016 00:00:00 10.36417 C 72.2333 %
243 01-04-2016 00:00:00 9.36833 C 70.1750 %
244 02-04-2016 00:00:00 9.53083 C 70.8583 %
245 03-04-2016 00:00:00 11.37 C 71.6750 %
246 04-04-2016 00:00:00 12.26583 C 72.9083 %
247 05-04-2016 00:00:00 12.2875 C 73.0000 %
248 06-04-2016 00:00:00 11.68833 C 72.7250 %
249 07-04-2016 00:00:00 11.33 C 66.9500 %
250 08-04-2016 00:00:00 9.98417 C 63.2583 %
Sensor: Nr:Datum:Temp:Feuchte:
G-T/H 251 09-04-2016 00:00:00 10.4475 C 56.7917 %
252 10-04-2016 00:00:00 11.64167 C 62.6500 %
253 11-04-2016 00:00:00 12.65833 C 59.8833 %
254 12-04-2016 00:00:00 12.55833 C 64.0000 %
255 13-04-2016 00:00:00 11.98167 C 66.8667 %
256 14-04-2016 00:00:00 11.6325 C 68.1250 %
257 15-04-2016 00:00:00 12.27917 C 68.8667 %
258 16-04-2016 00:00:00 12.6725 C 69.5750 %
259 17-04-2016 00:00:00 12.02583 C 64.1750 %
260 18-04-2016 00:00:00 10.66333 C 60.4083 %
261 19-04-2016 00:00:00 10.79083 C 61.0333 %
262 20-04-2016 00:00:00 10.72417 C 60.2417 %
263 21-04-2016 00:00:00 11.09917 C 62.1167 %
264 22-04-2016 00:00:00 12.2725 C 64.0500 %
265 23-04-2016 00:00:00 12.21833 C 62.2583 %
266 24-04-2016 00:00:00 10.46833 C 58.8250 %
267 25-04-2016 00:00:00 9.705 C 62.8083 %
268 26-04-2016 00:00:00 9.39833 C 63.1083 %
269 27-04-2016 00:00:00 9.11583 C 62.9500 %
270 28-04-2016 00:00:00 9.37917 C 62.3333 %
271 29-04-2016 00:00:00 10.05167 C 61.3083 %
272 30-04-2016 00:00:00 10.66583 C 63.3250 %
273 01-05-2016 00:00:00 10.81833 C 66.3917 %
274 02-05-2016 00:00:00 11.39917 C 66.7083 %
275 03-05-2016 00:00:00 12.1925 C 66.1750 %
Sensor: Nr:Datum:Temp:Feuchte:
G-T/H 276 04-05-2016 00:00:00 11.66667 C 60.8083 %
277 05-05-2016 00:00:00 12.47917 C 58.2167 %
278 06-05-2016 00:00:00 13.25583 C 62.6333 %
279 07-05-2016 00:00:00 15.64667 C 58.6167 %
280 08-05-2016 00:00:00 16.73667 C 55.0000 %
281 09-05-2016 00:00:00 17.65083 C 55.0000 %
282 10-05-2016 00:00:00 16.9875 C 60.4583 %
283 11-05-2016 00:00:00 17.78917 C 59.5583 %
284 12-05-2016 00:00:00 18.00333 C 57.3333 %
285 13-05-2016 00:00:00 16.81833 C 62.8500 %
286 14-05-2016 00:00:00 15.055 C 60.3667 %
287 15-05-2016 00:00:00 13.6825 C 58.5667 %
288 16-05-2016 00:00:00 13.37833 C 57.1917 %
289 17-05-2016 00:00:00 14.11583 C 54.8500 %
290 18-05-2016 00:00:00 15.44083 C 56.8667 %
291 19-05-2016 00:00:00 15.42417 C 61.6833 %
292 20-05-2016 00:00:00 15.11917 C 63.5583 %
293 21-05-2016 00:00:00 17.11417 C 61.2417 %
294 22-05-2016 00:00:00 17.1375 C 63.3083 %
295 23-05-2016 00:00:00 16.6675 C 65.4333 %
296 24-05-2016 00:00:00 15.11083 C 66.7500 %
297 25-05-2016 00:00:00 14.5625 C 67.5333 %
298 26-05-2016 00:00:00 15.84083 C 64.6833 %
299 27-05-2016 00:00:00 16.43417 C 67.0667 %
300 28-05-2016 00:00:00 16.33333 C 69.2250 %
Sensor: Nr:Datum:Temp:Feuchte:
G-T/H 301 29-05-2016 00:00:00 16.47 C 70.2000 %
302 30-05-2016 00:00:00 16.7675 C 71.2917 %
303 31-05-2016 00:00:00 17.39032 C 69.3145 %
304 01-06-2016 00:00:00 16.90764 C 69.8090 %
305 02-06-2016 00:00:00 16.60486 C 71.1215 %
306 03-06-2016 00:00:00 16.82674 C 71.6979 %
307 04-06-2016 00:00:00 17.00764 C 72.5278 %
308 05-06-2016 00:00:00 17.47083 C 72.4375 %
309 06-06-2016 00:00:00 19.17188 C 71.5417 %
310 07-06-2016 00:00:00 19.49514 C 71.1979 %
311 08-06-2016 00:00:00 19.99896 C 67.3368 %
312 09-06-2016 00:00:00 19.07396 C 58.3681 %
313 10-06-2016 00:00:00 18.28403 C 60.7847 %
314 11-06-2016 00:00:00 18.9066 C 59.1458 %
315 12-06-2016 00:00:00 18.61424 C 63.5208 %
316 13-06-2016 00:00:00 17.83333 C 67.1563 %
317 14-06-2016 00:00:00 17.39931 C 68.4757 %
318 15-06-2016 00:00:00 17.24583 C 68.5903 %
319 16-06-2016 00:00:00 16.24236 C 71.1944 %
320 17-06-2016 00:00:00 16.34861 C 71.3090 %
321 18-06-2016 00:00:00 16.23056 C 71.5174 %
322 19-06-2016 00:00:00 16.85556 C 67.8368 %
323 20-06-2016 00:00:00 16.76798 C 58.9298 %
324 21-06-2016 00:00:00 18.16552 C 65.3017 %
325 22-06-2016 00:00:00 18.4725 C 69.0917 %
Sensor: Nr:Datum:Temp:Feuchte:
G-T/H 326 23-06-2016 00:00:00 19.365 C 71.3250 %
327 24-06-2016 00:00:00 20.41417 C 72.4667 %
328 25-06-2016 00:00:00 19.32667 C 72.2667 %
329 26-06-2016 00:00:00 17.69417 C 71.1667 %
330 27-06-2016 00:00:00 17.605 C 66.4750 %
331 28-06-2016 00:00:00 19.10167 C 64.6917 %
332 29-06-2016 00:00:00 19.85417 C 57.5417 %
333 30-06-2016 00:00:00 19.8875 C 60.6333 %
334 01-07-2016 00:00:00 20.32 C 62.7500 %
335 02-07-2016 00:00:00 19.3525 C 63.5667 %
336 03-07-2016 00:00:00 17.94167 C 64.7167 %
337 04-07-2016 00:00:00 18.07917 C 66.9333 %
338 05-07-2016 00:00:00 19.50833 C 65.1500 %
339 06-07-2016 00:00:00 18.59333 C 64.1000 %
340 07-07-2016 00:00:00 18.89 C 58.9500 %
341 08-07-2016 00:00:00 20.49583 C 59.9917 %
342 09-07-2016 00:00:00 20.265 C 63.4500 %
343 10-07-2016 00:00:00 20.23583 C 66.0667 %
344 11-07-2016 00:00:00 21.90583 C 60.9500 %
345 12-07-2016 00:00:00 21.28583 C 56.5333 %
346 13-07-2016 00:00:00 19.58583 C 61.2667 %
347 14-07-2016 00:00:00 18.12833 C 63.5000 %
348 15-07-2016 00:00:00 17.85833 C 64.4333 %
349 16-07-2016 00:00:00 17.93083 C 65.6917 %
350 17-07-2016 00:00:00 20.08 C 64.7667 %
Sensor: Nr:Datum:Temp:Feuchte:
G-T/H 351 18-07-2016 00:00:00 21.79667 C 59.9333 %
352 19-07-2016 00:00:00 22.34917 C 60.7583 %
353 20-07-2016 00:00:00 21.63333 C 64.3000 %
354 21-07-2016 00:00:00 21.57583 C 66.2500 %
355 22-07-2016 00:00:00 20.68417 C 68.0833 %
356 23-07-2016 00:00:00 20.68833 C 68.8750 %
357 24-07-2016 00:00:00 20.48333 C 69.4167 %
358 25-07-2016 00:00:00 20.91333 C 69.4000 %
359 26-07-2016 00:00:00 20.91083 C 69.4500 %
360 27-07-2016 00:00:00 20.35 C 69.0333 %
361 28-07-2016 00:00:00 20.44667 C 69.0333 %
362 29-07-2016 00:00:00 20.34167 C 68.9833 %
363 30-07-2016 00:00:00 20.43833 C 68.3250 %
364 31-07-2016 00:00:00 20.0325 C 68.5917 %
365 01-08-2016 00:00:00 19.39333 C 58.7417 %
366 02-08-2016 00:00:00 19.16833 C 63.6417 %
367 03-08-2016 00:00:00 18.67333 C 68.2083 %
368 04-08-2016 00:00:00 18.74667 C 70.3583 %
369 05-08-2016 00:00:00 18.29667 C 70.3333 %
370 06-08-2016 00:00:00 19.07417 C 69.3750 %
371 07-08-2016 00:00:00 19.03 C 69.0833 %
372 08-08-2016 00:00:00 20.345 C 62.8750 %
373 09-08-2016 00:00:00 19.3975 C 57.0333 %
374 10-08-2016 00:00:00 18.12167 C 59.1917 %
375 11-08-2016 00:00:00 16.77899 C 61.9748 %
Sensor: Nr:Datum:Temp:Feuchte:
G-T/H 376 12-08-2016 00:00:00 17.08917 C 67.0000 %
377 13-08-2016 00:00:00 18.70167 C 66.4667 %
378 14-08-2016 00:00:00 19.23583 C 66.2917 %
379 15-08-2016 00:00:00 19.80833 C 63.8583 %
380 16-08-2016 00:00:00 20.05583 C 57.9917 %
381 17-08-2016 00:00:00 19.5975 C 59.9500 %
382 18-08-2016 00:00:00 19.10667 C 62.0250 %
383 19-08-2016 00:00:00 19.285 C 65.6833 %
384 20-08-2016 00:00:00 19.33917 C 67.0167 %
385 21-08-2016 00:00:00 18.56083 C 67.8500 %
386 22-08-2016 00:00:00 18.2 C 68.1000 %
387 23-08-2016 00:00:00 18.51083 C 68.4750 %
388 24-08-2016 00:00:00 20.7375 C 63.8417 %
389 25-08-2016 00:00:00 21.7675 C 61.5667 %
390 26-08-2016 00:00:00 21.88833 C 64.2083 %
391 27-08-2016 00:00:00 21.44167 C 67.6000 %
392 28-08-2016 00:00:00 21.2675 C 68.1333 %
393 29-08-2016 00:00:00 20.725 C 67.0750 %
394 30-08-2016 00:00:00 19.75833 C 63.6083 %
395 31-08-2016 00:00:00 19.81833 C 59.3500 %
396 01-09-2016 00:00:00 20.415 C 61.3167 %
397 02-09-2016 00:00:00 20.5325 C 60.0417 %
398 03-09-2016 00:00:00 21.2775 C 58.3833 %
399 04-09-2016 00:00:00 20.23417 C 62.0333 %
400 05-09-2016 00:00:00 19.63 C 61.6750 %
Sensor: Nr:Datum:Temp:Feuchte:
G-T/H 401 06-09-2016 00:00:00 19.45667 C 59.8000 %
402 07-09-2016 00:00:00 17.9625 C 62.8833 %
403 08-09-2016 00:00:00 20.22417 C 62.2667 %
404 09-09-2016 00:00:00 20.395 C 59.8500 %
405 10-09-2016 00:00:00 19.37583 C 63.5083 %
406 11-09-2016 00:00:00 19.84167 C 61.8500 %
407 12-09-2016 00:00:00 19.2425 C 63.9750 %
408 13-09-2016 00:00:00 19.18917 C 67.2250 %
409 14-09-2016 00:00:00 19.21167 C 67.7167 %
410 15-09-2016 00:00:00 20.69 C 62.9250 %
411 16-09-2016 00:00:00 19.985 C 62.3917 %
412 17-09-2016 00:00:00 18.71583 C 62.1417 %
413 18-09-2016 00:00:00 18.4775 C 65.9583 %
414 19-09-2016 00:00:00 18.15833 C 63.7833 %
415 20-09-2016 00:00:00 17.68667 C 65.4583 %
416 21-09-2016 00:00:00 16.9825 C 64.3250 %
417 22-09-2016 00:00:00 16.06167 C 59.4417 %
418 23-09-2016 00:00:00 15.82583 C 65.3667 %
419 24-09-2016 00:00:00 15.64417 C 67.9583 %
420 25-09-2016 00:00:00 15.26917 C 68.1167 %
421 26-09-2016 00:00:00 16.33 C 68.2917 %
422 27-09-2016 00:00:00 15.98083 C 69.3167 %
423 28-09-2016 00:00:00 16.32 C 68.9750 %
424 29-09-2016 00:00:00 16.83 C 70.3417 %
425 30-09-2016 00:00:00 17.00583 C 70.6167 %
Sensor: Nr:Datum:Temp:Feuchte:
G-T/H 426 01-10-2016 00:00:00 16.32667 C 71.0000 %
427 02-10-2016 00:00:00 15.67333 C 71.6083 %
428 03-10-2016 00:00:00 15.18 C 72.4000 %
429 04-10-2016 00:00:00 14.88 C 72.3167 %
430 05-10-2016 00:00:00 12.96083 C 60.0750 %
431 06-10-2016 00:00:00 12.69583 C 64.3417 %
432 07-10-2016 00:00:00 13.35833 C 70.4250 %
433 08-10-2016 00:00:00 13.4975 C 71.5583 %
434 09-10-2016 00:00:00 13.15583 C 69.0833 %
435 10-10-2016 00:00:00 12.26667 C 65.6583 %
436 11-10-2016 00:00:00 12.15083 C 68.7417 %
437 12-10-2016 00:00:00 12.37167 C 69.5583 %
438 13-10-2016 00:00:00 11.78 C 63.9417 %
439 14-10-2016 00:00:00 12.04583 C 65.1000 %
440 15-10-2016 00:00:00 12.9775 C 69.8500 %
441 16-10-2016 00:00:00 12.80667 C 68.1833 %
442 17-10-2016 00:00:00 12.835 C 72.4250 %
443 18-10-2016 00:00:00 13.08 C 73.2750 %
444 19-10-2016 00:00:00 12.90917 C 72.6917 %
445 20-10-2016 00:00:00 12.49167 C 72.9250 %
446 21-10-2016 00:00:00 12.16917 C 72.9667 %
447 22-10-2016 00:00:00 11.97167 C 73.1167 %
448 23-10-2016 00:00:00 11.56167 C 71.1250 %
449 24-10-2016 00:00:00 11.85333 C 73.8167 %
450 25-10-2016 00:00:00 12.67417 C 75.2000 %
Sensor: Nr:Datum:Temp:Feuchte:
G-T/H 451 26-10-2016 00:00:00 12.92083 C 72.7667 %
452 27-10-2016 00:00:00 11.9975 C 70.7667 %
453 28-10-2016 00:00:00 12.79417 C 71.9083 %
454 29-10-2016 00:00:00 13.4925 C 73.2500 %
455 30-10-2016 00:00:00 12.6816 C 71.9200 %
456 31-10-2016 00:00:00 11.75083 C 70.0667 %
457 01-11-2016 00:00:00 11.04417 C 69.4750 %
458 02-11-2016 00:00:00 11.27917 C 71.5500 %
459 03-11-2016 00:00:00 10.86 C 69.9917 %
460 04-11-2016 00:00:00 10.0325 C 67.5750 %
461 05-11-2016 00:00:00 10.58917 C 71.7750 %
462 06-11-2016 00:00:00 10.1525 C 69.2083 %
463 07-11-2016 00:00:00 9.85 C 68.7833 %
464 08-11-2016 00:00:00 9.42417 C 66.2417 %
465 09-11-2016 00:00:00 8.82583 C 66.7333 %
466 10-11-2016 00:00:00 9.30167 C 70.3000 %
467 11-11-2016 00:00:00 9.65417 C 71.9000 %
468 12-11-2016 00:00:00 8.685 C 64.9333 %
469 13-11-2016 00:00:00 8.31083 C 64.6083 %
470 14-11-2016 00:00:00 7.62917 C 61.3083 %
471 15-11-2016 00:00:00 8.05833 C 68.3083 %
472 16-11-2016 00:00:00 9.605 C 73.2917 %
473 17-11-2016 00:00:00 10.72917 C 74.0000 %
474 18-11-2016 00:00:00 11.2175 C 72.3333 %
475 19-11-2016 00:00:00 9.86333 C 67.3833 %
Sensor: Nr:Datum:Temp:Feuchte:
G-T/H 476 20-11-2016 00:00:00 9.69583 C 70.2250 %
477 21-11-2016 00:00:00 10.8675 C 72.8417 %
478 22-11-2016 00:00:00 11.305 C 73.8750 %
479 23-11-2016 00:00:00 11.27583 C 74.1333 %
480 24-11-2016 00:00:00 11.035 C 74.8083 %
481 25-11-2016 00:00:00 10.7 C 72.8750 %
482 26-11-2016 00:00:00 10.5825 C 71.8333 %
483 27-11-2016 00:00:00 10.20167 C 70.9917 %
484 28-11-2016 00:00:00 8.60417 C 61.3417 %
485 29-11-2016 00:00:00 7.215 C 58.6917 %
486 30-11-2016 00:00:00 5.98167 C 59.2667 %
487 01-12-2016 00:00:00 3.9525 C 66.1500 %
488 02-12-2016 00:00:00 8.02083 C 70.3667 %
489 03-12-2016 00:00:00 7.42417 C 63.9833 %
490 04-12-2016 00:00:00 6.275 C 61.7083 %
491 05-12-2016 00:00:00 5.36667 C 64.7667 %
492 06-12-2016 00:00:00 4.82967 C 64.3626 %
493 07-12-2016 00:00:00 5.38252 C 68.3883 %
494 08-12-2016 00:00:00 5.9125 C 69.6000 %
495 09-12-2016 00:00:00 6.99833 C 71.6333 %
496 10-12-2016 00:00:00 7.755 C 72.6417 %
497 11-12-2016 00:00:00 8.39667 C 74.1583 %
498 12-12-2016 00:00:00 9.10083 C 74.1333 %
499 13-12-2016 00:00:00 8.56083 C 71.4833 %
500 14-12-2016 00:00:00 8.81583 C 74.0417 %
Sensor: Nr:Datum:Temp:Feuchte:
G-T/H 501 15-12-2016 00:00:00 9.39 C 74.3000 %
502 16-12-2016 00:00:00 9.12417 C 69.5333 %
503 17-12-2016 00:00:00 7.19138 C 66.8793 %
504 18-12-2016 00:00:00 6.47667 C 73.8167 %
505 19-12-2016 00:00:00 6.53917 C 69.9833 %
506 20-12-2016 00:00:00 7.37 C 63.5167 %
507 21-12-2016 00:00:00 6.99 C 64.7917 %
508 22-12-2016 00:00:00 7.68917 C 69.0917 %
509 23-12-2016 00:00:00 7.73917 C 71.5917 %
510 24-12-2016 00:00:00 8.2975 C 72.4083 %
511 25-12-2016 00:00:00 8.90417 C 73.3417 %
512 26-12-2016 00:00:00 9.52917 C 72.0250 %
513 27-12-2016 00:00:00 8.22333 C 68.1667 %
514 28-12-2016 00:00:00 8.0975 C 69.3167 %
515 29-12-2016 00:00:00 6.70583 C 61.8833 %
516 30-12-2016 00:00:00 5.99833 C 63.3083 %
517 31-12-2016 00:00:00 5.83083 C 62.2667 %
518 01-01-2017 00:00:00 5.44917 C 64.1833 %
519 02-01-2017 00:00:00 5.875 C 67.6500 %
520 03-01-2017 00:00:00 6.26833 C 69.1333 %
521 04-01-2017 00:00:00 6.87333 C 70.5333 %
522 05-01-2017 00:00:00 6.42167 C 64.7417 %
523 06-01-2017 00:00:00 5.2175 C 62.1250 %
524 07-01-2017 00:00:00 5.225 C 61.2333 %
525 08-01-2017 00:00:00 5.37083 C 67.6667 %
Sensor: Nr:Datum:Temp:Feuchte:
G-T/H 526 09-01-2017 00:00:00 5.805 C 70.2583 %
527 10-01-2017 00:00:00 6.215 C 69.9833 %
528 11-01-2017 00:00:00 6.85417 C 73.1167 %
529 12-01-2017 00:00:00 7.36667 C 72.3333 %
530 13-01-2017 00:00:00 7.38917 C 68.9917 %
531 14-01-2017 00:00:00 6.96667 C 66.6000 %
532 15-01-2017 00:00:00 6.63083 C 66.1917 %
533 16-01-2017 00:00:00 5.80917 C 64.9167 %
534 17-01-2017 00:00:00 5.4625 C 65.3000 %
535 18-01-2017 00:00:00 5.16083 C 63.5417 %
536 19-01-2017 00:00:00 4.74667 C 62.7667 %
537 20-01-2017 00:00:00 4.44583 C 61.4250 %
538 21-01-2017 00:00:00 4.46917 C 61.4667 %
539 22-01-2017 00:00:00 6.90667 C 56.2500 %
540 23-01-2017 00:00:00 4.80167 C 59.9750 %
541 24-01-2017 00:00:00 4.74333 C 66.7000 %
542 25-01-2017 00:00:00 5.13697 C 66.5546 %
543 26-01-2017 00:00:00 4.95 C 66.4333 %
544 27-01-2017 00:00:00 4.87667 C 64.0167 %
545 28-01-2017 00:00:00 4.965 C 64.2417 %
546 29-01-2017 00:00:00 5.46167 C 67.2750 %
547 30-01-2017 00:00:00 6.3575 C 70.0750 %
548 31-01-2017 00:00:00 7.135 C 70.9417 %
549 01-02-2017 00:00:00 7.0975 C 69.4500 %
550 02-02-2017 00:00:00 7.63083 C 71.6000 %
Sensor: Nr:Datum:Temp:Feuchte:
G-T/H 551 03-02-2017 00:00:00 7.80583 C 71.7917 %
552 04-02-2017 00:00:00 7.86667 C 73.2833 %
553 05-02-2017 00:00:00 7.52167 C 72.1917 %
554 06-02-2017 00:00:00 7.44667 C 71.3500 %
555 07-02-2017 00:00:00 7.65917 C 69.1583 %
556 08-02-2017 00:00:00 7.745 C 67.0667 %
557 09-02-2017 00:00:00 6.61083 C 60.3750 %
558 10-02-2017 00:00:00 6.26583 C 62.6250 %
559 11-02-2017 00:00:00 6.50167 C 66.3417 %
560 12-02-2017 00:00:00 6.90333 C 69.8583 %
561 13-02-2017 00:00:00 6.77417 C 66.2250 %
562 14-02-2017 00:00:00 6.34667 C 63.3750 %
563 15-02-2017 00:00:00 6.06333 C 64.3167 %
564 16-02-2017 00:00:00 6.4425 C 67.4583 %
565 17-02-2017 00:00:00 7.16417 C 70.9167 %
566 18-02-2017 00:00:00 7.8825 C 71.6500 %
567 19-02-2017 00:00:00 6.91667 C 66.6917 %
568 20-02-2017 00:00:00 7.93417 C 71.2667 %
569 21-02-2017 00:00:00 9.10333 C 73.0000 %
570 22-02-2017 00:00:00 9.84667 C 73.5750 %
571 23-02-2017 00:00:00 10.02917 C 72.3500 %
572 24-02-2017 00:00:00 9.025 C 66.0583 %
573 25-02-2017 00:00:00 7.8125 C 64.1750 %
574 26-02-2017 00:00:00 8.2975 C 69.2667 %
575 27-02-2017 00:00:00 9.63917 C 70.5750 %
Sensor: Nr:Datum:Temp:Feuchte:
G-T/H 576 28-02-2017 00:00:00 9.33 C 66.9583 %
577 01-03-2017 00:00:00 8.60583 C 69.5417 %
578 02-03-2017 00:00:00 8.9175 C 65.6500 %
579 03-03-2017 00:00:00 8.58667 C 65.2583 %
580 04-03-2017 00:00:00 9.72083 C 67.1417 %
581 05-03-2017 00:00:00 9.9025 C 68.5167 %
582 06-03-2017 00:00:00 9.1775 C 69.4333 %
583 07-03-2017 00:00:00 8.97833 C 70.7333 %
584 08-03-2017 00:00:00 8.28333 C 70.1333 %
585 09-03-2017 00:00:00 9.54333 C 71.3083 %
586 10-03-2017 00:00:00 9.94 C 66.3417 %
587 11-03-2017 00:00:00 9.4 C 61.6667 %
588 12-03-2017 00:00:00 9.37083 C 56.6667 %
589 13-03-2017 00:00:00 9.06083 C 61.4333 %
590 14-03-2017 00:00:00 9.58917 C 65.5667 %
591 15-03-2017 00:00:00 10.38083 C 67.1833 %
592 16-03-2017 00:00:00 9.89833 C 64.6750 %
593 17-03-2017 00:00:00 9.92917 C 66.9833 %
594 18-03-2017 00:00:00 10.04833 C 66.3167 %
595 19-03-2017 00:00:00 10.80333 C 69.8417 %
596 20-03-2017 00:00:00 11.3975 C 70.0000 %
597 21-03-2017 00:00:00 11.28667 C 69.3000 %
598 22-03-2017 00:00:00 9.84 C 63.8000 %
599 23-03-2017 00:00:00 10.27083 C 66.0750 %
600 24-03-2017 00:00:00 10.7825 C 62.7500 %
Sensor: Nr:Datum:Temp:Feuchte:
G-T/H 601 25-03-2017 00:00:00 10.76167 C 57.7333 %
602 26-03-2017 00:00:00 10.54783 C 58.5826 %
603 27-03-2017 00:00:00 10.2775 C 50.5417 %
604 28-03-2017 00:00:00 11.49667 C 53.5167 %
605 29-03-2017 00:00:00 12.4025 C 60.0000 %
606 30-03-2017 00:00:00 13.8 C 58.8333 %
607 31-03-2017 00:00:00 13.9 C 55.5083 %
608 01-04-2017 00:00:00 13.5225 C 61.1333 %
609 02-04-2017 00:00:00 13.045 C 62.0500 %
610 03-04-2017 00:00:00 12.37917 C 61.7583 %
611 04-04-2017 00:00:00 11.70917 C 61.7250 %
612 05-04-2017 00:00:00 11.2225 C 60.3000 %
613 06-04-2017 00:00:00 11.25083 C 61.8833 %
614 07-04-2017 00:00:00 11.30833 C 61.5667 %
615 08-04-2017 00:00:00 12.10917 C 64.3167 %
616 09-04-2017 00:00:00 11.93083 C 63.3250 %
617 10-04-2017 00:00:00 12.2625 C 64.3417 %
618 11-04-2017 00:00:00 11.93333 C 61.3750 %
619 12-04-2017 00:00:00 11.73417 C 62.1250 %
620 13-04-2017 00:00:00 12.4775 C 62.8750 %
621 14-04-2017 00:00:00 12.10583 C 60.6583 %
622 15-04-2017 00:00:00 11.93917 C 62.9917 %
623 16-04-2017 00:00:00 11.1475 C 62.5750 %
624 17-04-2017 00:00:00 10.5075 C 62.2583 %
625 18-04-2017 00:00:00 9.84833 C 61.1750 %
Sensor: Nr:Datum:Temp:Feuchte:
G-T/H 626 19-04-2017 00:00:00 9.13917 C 59.2667 %
627 20-04-2017 00:00:00 8.37167 C 53.2417 %
628 21-04-2017 00:00:00 9.44167 C 57.5750 %
629 22-04-2017 00:00:00 10.7925 C 61.3833 %
630 23-04-2017 00:00:00 10.56417 C 59.6333 %
631 24-04-2017 00:00:00 10.66583 C 57.9750 %
632 25-04-2017 00:00:00 11.07395 C 57.7143 %
633 26-04-2017 00:00:00 10.9975 C 52.8000 %
634 27-04-2017 00:00:00 10.80167 C 55.5250 %
635 28-04-2017 00:00:00 9.695 C 54.5000 %
636 29-04-2017 00:00:00 10.51083 C 59.0833 %
637 30-04-2017 00:00:00 11.60583 C 55.6167 %
638 01-05-2017 00:00:00 12.7 C 56.0000 %
639 02-05-2017 00:00:00 11.525 C 63.9432 %
640 03-05-2017 00:00:00 11.48417 C 65.4750 %
641 04-05-2017 00:00:00 12.02333 C 66.8667 %
642 05-05-2017 00:00:00 12.46583 C 66.8917 %
643 06-05-2017 00:00:00 12.505 C 65.2333 %
644 07-05-2017 00:00:00 13.83043 C 67.2696 %
645 08-05-2017 00:00:00 12.83417 C 66.4333 %
646 09-05-2017 00:00:00 12.20583 C 62.3250 %
647 10-05-2017 00:00:00 12.52917 C 54.6833 %
648 11-05-2017 00:00:00 13.12917 C 60.2667 %
649 12-05-2017 00:00:00 14.3375 C 64.2333 %
650 13-05-2017 00:00:00 14.86667 C 65.6583 %
Sensor: Nr:Datum:Temp:Feuchte:
G-T/H 651 14-05-2017 00:00:00 15.34083 C 65.8667 %
652 15-05-2017 00:00:00 16.35667 C 54.4250 %
653 16-05-2017 00:00:00 18.42417 C 50.3083 %
654 17-05-2017 00:00:00 19.76083 C 51.8500 %
655 18-05-2017 00:00:00 18.36833 C 59.9083 %
656 19-05-2017 00:00:00 16.6075 C 64.9333 %
657 20-05-2017 00:00:00 14.935 C 64.1833 %
658 21-05-2017 00:00:00 15.3875 C 58.0667 %
659 22-05-2017 00:00:00 16.8975 C 56.7000 %
660 23-05-2017 00:00:00 17.30167 C 60.5667 %
661 24-05-2017 00:00:00 17.77333 C 59.5750 %
662 25-05-2017 00:00:00 17.38 C 63.0583 %
663 26-05-2017 00:00:00 18.09583 C 61.1583 %
664 27-05-2017 00:00:00 17.95583 C 63.3917 %
665 28-05-2017 00:00:00 18.6625 C 65.0333 %
666 29-05-2017 00:00:00 22.53667 C 59.7333 %
667 30-05-2017 00:00:00 22.135 C 60.5250 %
668 31-05-2017 00:00:00 19.19583 C 54.8917 %
669 01-06-2017 00:00:00 19.02333 C 60.4250 %
670 02-06-2017 00:00:00 19.42667 C 64.1667 %
671 03-06-2017 00:00:00 18.96167 C 68.0500 %
672 04-06-2017 00:00:00 18.245 C 68.2333 %
673 05-06-2017 00:00:00 17.78167 C 63.8583 %
674 06-06-2017 00:00:00 17.53167 C 62.7417 %
675 07-06-2017 00:00:00 16.31 C 63.1083 %
Sensor: Nr:Datum:Temp:Feuchte:
G-T/H 676 08-06-2017 00:00:00 17.10583 C 63.0167 %
677 09-06-2017 00:00:00 17.65833 C 65.4167 %
678 10-06-2017 00:00:00 17.03667 C 64.8083 %
679 11-06-2017 00:00:00 17.98917 C 66.8667 %
680 12-06-2017 00:00:00 20.2225 C 51.9750 %
681 13-06-2017 00:00:00 19.605 C 52.3167 %
682 14-06-2017 00:00:00 20.2375 C 52.8333 %
683 15-06-2017 00:00:00 22.41083 C 52.1917 %
684 16-06-2017 00:00:00 21.05417 C 50.7750 %
685 17-06-2017 00:00:00 19.55083 C 56.9583 %
686 18-06-2017 00:00:00 19.47917 C 61.1333 %
687 19-06-2017 00:00:00 21.37083 C 53.8417 %
688 20-06-2017 00:00:00 23.81417 C 48.4333 %
689 21-06-2017 00:00:00 23.19167 C 55.3333 %
690 22-06-2017 00:00:00 24.54167 C 57.7417 %
691 23-06-2017 00:00:00 23.06 C 57.7583 %
692 24-06-2017 00:00:00 22.64 C 51.3500 %
693 25-06-2017 00:00:00 21.49083 C 54.8583 %
694 26-06-2017 00:00:00 21.5775 C 55.2833 %
695 27-06-2017 00:00:00 20.69417 C 59.6083 %
696 28-06-2017 00:00:00 19.86 C 64.0167 %
697 29-06-2017 00:00:00 19.49417 C 65.1083 %
698 30-06-2017 00:00:00 19.17167 C 60.7667 %
699 01-07-2017 00:00:00 18.81833 C 64.2833 %
700 02-07-2017 00:00:00 18.1925 C 66.6917 %
Sensor: Nr:Datum:Temp:Feuchte:
G-T/H 701 03-07-2017 00:00:00 19.315 C 56.5417 %
702 04-07-2017 00:00:00 20.50083 C 54.7667 %
703 05-07-2017 00:00:00 21.10917 C 57.5583 %
704 06-07-2017 00:00:00 21.4425 C 61.7000 %
705 07-07-2017 00:00:00 21.30333 C 64.3833 %
706 08-07-2017 00:00:00 22.9425 C 56.5250 %
707 09-07-2017 00:00:00 22.685 C 59.5417 %
708 10-07-2017 00:00:00 21.98167 C 63.7417 %
709 11-07-2017 00:00:00 21.20417 C 60.4000 %
710 12-07-2017 00:00:00 20.39167 C 63.4250 %
711 13-07-2017 00:00:00 18.97917 C 57.3833 %
712 14-07-2017 00:00:00 18.96417 C 57.4250 %
713 15-07-2017 00:00:00 18.67083 C 60.6333 %
714 16-07-2017 00:00:00 19.535 C 63.6583 %
715 17-07-2017 00:00:00 19.89917 C 65.6333 %
716 18-07-2017 00:00:00 21.48667 C 62.7583 %
717 19-07-2017 00:00:00 23.825 C 58.2333 %
718 20-07-2017 00:00:00 22.49083 C 62.1083 %
719 21-07-2017 00:00:00 21.79917 C 56.1083 %
720 22-07-2017 00:00:00 22.77167 C 60.8833 %
721 23-07-2017 00:00:00 20.45167 C 59.6000 %
722 24-07-2017 00:00:00 19.83667 C 60.9500 %
723 25-07-2017 00:00:00 18.2725 C 64.9333 %
724 26-07-2017 00:00:00 17.95417 C 67.3667 %
725 27-07-2017 00:00:00 18.53667 C 68.7167 %
Sensor: Nr:Datum:Temp:Feuchte:
G-T/H 726 28-07-2017 00:00:00 18.61833 C 68.6833 %
727 29-07-2017 00:00:00 19.14917 C 68.9333 %
728 30-07-2017 00:00:00 20.87667 C 66.4833 %
729 31-07-2017 00:00:00 21.91167 C 61.1500 %
730 01-08-2017 00:00:00 20.985 C 66.8500 %
731 02-08-2017 00:00:00 21.5925 C 67.6250 %
732 03-08-2017 00:00:00 22.08 C 67.0000 %
733 04-08-2017 00:00:00 21.2975 C 66.9500 %
734 05-08-2017 00:00:00 21.27333 C 64.2583 %
735 06-08-2017 00:00:00 20.1425 C 61.5500 %
736 07-08-2017 00:00:00 19.51083 C 54.8250 %
737 08-08-2017 00:00:00 19.4725 C 62.0000 %
738 09-08-2017 00:00:00 19.2825 C 61.9750 %
739 10-08-2017 00:00:00 18.88083 C 65.6083 %
740 11-08-2017 00:00:00 17.85167 C 68.4083 %
741 12-08-2017 00:00:00 17.38667 C 69.6917 %
742 13-08-2017 00:00:00 17.925 C 70.8917 %
743 14-08-2017 00:00:00 19.18583 C 69.3417 %
744 15-08-2017 00:00:00 19.95167 C 75.4000 %
745 16-08-2017 00:00:00 20.395 C 70.4750 %
746 17-08-2017 00:00:00 20.77833 C 67.9583 %
747 18-08-2017 00:00:00 20.07417 C 69.9500 %
748 19-08-2017 00:00:00 18.63167 C 65.2583 %
749 20-08-2017 00:00:00 18.18833 C 65.5833 %
750 21-08-2017 00:00:00 18.33833 C 61.8250 %
Sensor: Nr:Datum:Temp:Feuchte:
G-T/H 751 22-08-2017 00:00:00 18.3375 C 62.2833 %
752 23-08-2017 00:00:00 19.39 C 63.6250 %
753 24-08-2017 00:00:00 19.39667 C 66.6750 %
754 25-08-2017 00:00:00 19.01417 C 68.4583 %
755 26-08-2017 00:00:00 19.33833 C 70.7917 %
756 27-08-2017 00:00:00 19.525 C 71.7250 %
757 28-08-2017 00:00:00 20.30583 C 68.8833 %
758 29-08-2017 00:00:00 21.09333 C 67.8833 %
759 30-08-2017 00:00:00 20.41167 C 70.1917 %
760 31-08-2017 00:00:00 19.86975 C 70.1176 %
761 01-09-2017 00:00:00 18.04083 C 64.9250 %
762 02-09-2017 00:00:00 17.755 C 68.6500 %
763 03-09-2017 00:00:00 16.90667 C 68.1250 %
764 04-09-2017 00:00:00 16.00917 C 69.3750 %
765 05-09-2017 00:00:00 18.28917 C 72.6000 %
766 06-09-2017 00:00:00 18.70833 C 64.8917 %
767 07-09-2017 00:00:00 17.72833 C 62.5167 %
768 08-09-2017 00:00:00 17.6225 C 64.3417 %
769 09-09-2017 00:00:00 17.3775 C 67.9250 %
770 10-09-2017 00:00:00 16.50417 C 66.3083 %
771 11-09-2017 00:00:00 16.29333 C 68.5500 %
772 12-09-2017 00:00:00 16.13083 C 70.5250 %
773 13-09-2017 00:00:00 15.99917 C 71.1667 %
774 14-09-2017 00:00:00 15.7775 C 71.3250 %
775 15-09-2017 00:00:00 15.14 C 71.7083 %
Sensor: Nr:Datum:Temp:Feuchte:
G-T/H 776 16-09-2017 00:00:00 14.15 C 67.6833 %
777 17-09-2017 00:00:00 14.06833 C 69.8750 %
778 18-09-2017 00:00:00 13.68417 C 70.3917 %
779 19-09-2017 00:00:00 14.2875 C 73.3667 %
780 20-09-2017 00:00:00 14.18167 C 72.9250 %
781 21-09-2017 00:00:00 14.33333 C 68.9000 %
782 22-09-2017 00:00:00 14.20083 C 71.1333 %
783 23-09-2017 00:00:00 14.86583 C 71.6917 %
784 24-09-2017 00:00:00 13.5 C 74.4750 %
785 25-09-2017 00:00:00 14.49667 C 74.4000 %
786 26-09-2017 00:00:00 14.90833 C 74.1417 %
787 27-09-2017 00:00:00 15.24333 C 75.2000 %
788 28-09-2017 00:00:00 15.29833 C 75.7917 %
789 29-09-2017 00:00:00 16.4625 C 76.9750 %
790 30-09-2017 00:00:00 16.51167 C 76.8667 %
791 01-10-2017 00:00:00 15.07167 C 73.4917 %
792 02-10-2017 00:00:00 14.96167 C 75.8333 %
793 03-10-2017 00:00:00 15.05583 C 75.3167 %
794 04-10-2017 00:00:00 14.14417 C 72.4833 %
795 05-10-2017 00:00:00 14.39917 C 74.4417 %
796 06-10-2017 00:00:00 13.515 C 72.0000 %
797 07-10-2017 00:00:00 13.36583 C 74.1000 %
798 08-10-2017 00:00:00 13.59833 C 76.1167 %
799 09-10-2017 00:00:00 13.71417 C 76.4750 %
800 10-10-2017 00:00:00 14.10667 C 77.2250 %
Sensor: Nr:Datum:Temp:Feuchte:
G-T/H 801 11-10-2017 00:00:00 14.48833 C 77.7500 %
802 12-10-2017 00:00:00 14.45833 C 77.2083 %
803 13-10-2017 00:00:00 14.39417 C 77.1167 %
804 14-10-2017 00:00:00 14.55667 C 77.2000 %
805 15-10-2017 00:00:00 14.22167 C 77.1917 %
806 16-10-2017 00:00:00 14.72417 C 80.6250 %
807 17-10-2017 00:00:00 14.50583 C 80.0333 %
808 18-10-2017 00:00:00 14.23 C 79.1833 %
809 19-10-2017 00:00:00 13.8025 C 76.9750 %
810 20-10-2017 00:00:00 14.11261 C 77.8235 %
811 21-10-2017 00:00:00 13.58417 C 75.6250 %
812 22-10-2017 00:00:00 13.64333 C 74.5083 %
813 23-10-2017 00:00:00 13.15167 C 73.8667 %
814 24-10-2017 00:00:00 13.7125 C 77.3167 %
815 25-10-2017 00:00:00 14.60167 C 78.0000 %
816 26-10-2017 00:00:00 14.7325 C 78.0000 %
817 27-10-2017 00:00:00 14.395 C 76.2583 %
818 28-10-2017 00:00:00 13.38917 C 71.6000 %
819 29-10-2017 00:00:00 13.2736 C 70.4000 %
820 30-10-2017 00:00:00 11.94167 C 67.1167 %
821 31-10-2017 00:00:00 11.315 C 67.7083 %
822 01-11-2017 00:00:00 11.75833 C 71.3750 %
823 02-11-2017 00:00:00 11.43667 C 71.0500 %
824 03-11-2017 00:00:00 11.36333 C 71.6167 %
825 04-11-2017 00:00:00 11.05083 C 71.6417 %
Sensor: Nr:Datum:Temp:Feuchte:
G-T/H 826 05-11-2017 00:00:00 11.7925 C 73.8417 %
827 06-11-2017 00:00:00 10.80417 C 68.9083 %
828 07-11-2017 00:00:00 10.16167 C 68.1500 %
829 08-11-2017 00:00:00 10.51583 C 72.8417 %
830 09-11-2017 00:00:00 10.89833 C 74.4833 %
831 10-11-2017 00:00:00 10.70833 C 72.4333 %
832 11-11-2017 00:00:00 10.25917 C 71.3500 %
833 12-11-2017 00:00:00 9.99417 C 71.9333 %
834 13-11-2017 00:00:00 9.82667 C 72.4833 %
835 14-11-2017 00:00:00 9.44833 C 71.5833 %
836 15-11-2017 00:00:00 9.78417 C 73.4833 %
837 16-11-2017 00:00:00 9.8675 C 71.0000 %
838 17-11-2017 00:00:00 10.21917 C 72.6917 %
839 18-11-2017 00:00:00 8.93333 C 68.2833 %
840 19-11-2017 00:00:00 9.44917 C 70.7667 %
841 20-11-2017 00:00:00 9.4175 C 70.1500 %
842 21-11-2017 00:00:00 10.07833 C 73.5833 %
843 22-11-2017 00:00:00 10.72 C 73.9917 %
844 23-11-2017 00:00:00 10.0175 C 71.3000 %
845 24-11-2017 00:00:00 11.32583 C 75.4750 %
846 25-11-2017 00:00:00 10.815 C 70.9083 %
847 26-11-2017 00:00:00 9.25 C 65.7167 %
848 27-11-2017 00:00:00 9.09917 C 68.4083 %
849 28-11-2017 00:00:00 9.38167 C 70.0917 %
850 29-11-2017 00:00:00 8.70583 C 68.4167 %
Sensor: Nr:Datum:Temp:Feuchte:
G-T/H 851 30-11-2017 00:00:00 8.38083 C 67.8167 %
852 01-12-2017 00:00:00 7.8275 C 66.9750 %
853 02-12-2017 00:00:00 6.8025 C 64.3667 %
854 03-12-2017 00:00:00 7.2 C 63.1583 %
855 04-12-2017 00:00:00 7.5275 C 69.7417 %
856 05-12-2017 00:00:00 8.31833 C 73.2750 %
857 06-12-2017 00:00:00 8.98333 C 73.6833 %
858 07-12-2017 00:00:00 8.76667 C 67.2083 %
859 08-12-2017 00:00:00 8.66917 C 66.2417 %
860 09-12-2017 00:00:00 7.4925 C 59.9167 %
861 10-12-2017 00:00:00 7.18333 C 64.1750 %
862 11-12-2017 00:00:00 7.94417 C 72.5667 %
863 12-12-2017 00:00:00 8.19083 C 68.4083 %
864 13-12-2017 00:00:00 7.93917 C 67.1333 %
865 14-12-2017 00:00:00 7.92667 C 69.1000 %
866 15-12-2017 00:00:00 7.94167 C 70.5000 %
867 16-12-2017 00:00:00 7.925 C 71.0833 %
868 17-12-2017 00:00:00 7.8375 C 69.7667 %
869 18-12-2017 00:00:00 7.10333 C 67.6500 %
870 19-12-2017 00:00:00 7.60417 C 70.4667 %
871 20-12-2017 00:00:00 8.29083 C 73.0000 %
872 21-12-2017 00:00:00 9.43333 C 74.8833 %
873 22-12-2017 00:00:00 10.32333 C 75.8833 %
874 23-12-2017 00:00:00 10.45667 C 76.0750 %
875 24-12-2017 00:00:00 10.61417 C 75.9000 %
Sensor: Nr:Datum:Temp:Feuchte:
G-T/H 876 25-12-2017 00:00:00 10.30833 C 71.7667 %
877 26-12-2017 00:00:00 9.0975 C 68.1083 %
878 27-12-2017 00:00:00 8.905 C 71.4083 %
879 28-12-2017 00:00:00 8.96167 C 70.6417 %
880 29-12-2017 00:00:00 14.36852 C 70.8611 %
881 30-12-2017 00:00:00 8.1925 C 73.4750 %
882 31-12-2017 00:00:00 10.73 C 74.9167 %
883 01-01-2018 00:00:00 10.91333 C 70.9167 %
884 02-01-2018 00:00:00 9.93833 C 71.7000 %
885 03-01-2018 00:00:00 9.98417 C 71.9333 %
886 04-01-2018 00:00:00 9.81167 C 73.7667 %
887 05-01-2018 00:00:00 10.06833 C 72.5333 %
888 06-01-2018 00:00:00 9.95417 C 74.1667 %
889 07-01-2018 00:00:00 9.5275 C 72.0083 %
890 08-01-2018 00:00:00 8.9575 C 69.3000 %
891 09-01-2018 00:00:00 8.81583 C 71.4583 %
892 10-01-2018 00:00:00 9.03917 C 73.1917 %
893 11-01-2018 00:00:00 9.4725 C 74.4333 %
894 12-01-2018 00:00:00 9.7375 C 75.0000 %
895 13-01-2018 00:00:00 9.48 C 71.6333 %
896 14-01-2018 00:00:00 8.7325 C 64.1833 %
897 15-01-2018 00:00:00 8.00083 C 65.2500 %
898 16-01-2018 00:00:00 8.6025 C 70.4000 %
899 17-01-2018 00:00:00 8.19 C 66.7833 %
900 18-01-2018 00:00:00 8.2875 C 68.1000 %
Sensor: Nr:Datum:Temp:Feuchte:
G-T/H 901 19-01-2018 00:00:00 8.47333 C 67.2417 %
902 20-01-2018 00:00:00 7.515 C 67.7833 %
903 21-01-2018 00:00:00 7.5275 C 70.9250 %
904 22-01-2018 00:00:00 7.75 C 71.9417 %
905 23-01-2018 00:00:00 8.69492 C 73.4661 %
906 24-01-2018 00:00:00 9.75556 C 74.8120 %
907 25-01-2018 00:00:00 10.6075 C 75.1917 %
908 26-01-2018 00:00:00 10.3125 C 74.1917 %
909 27-01-2018 00:00:00 9.54 C 72.2583 %
910 28-01-2018 00:00:00 9.4625 C 73.1917 %
911 29-01-2018 00:00:00 10.13833 C 74.2667 %
912 30-01-2018 00:00:00 9.76167 C 71.3917 %
913 31-01-2018 00:00:00 9.43 C 72.7083 %
914 01-02-2018 00:00:00 8.55 C 67.8083 %
915 02-02-2018 00:00:00 7.83917 C 68.3833 %
916 03-02-2018 00:00:00 7.98992 C 68.2521 %
917 04-02-2018 00:00:00 7.4 C 63.4333 %
918 05-02-2018 00:00:00 6.47 C 60.2917 %
919 06-02-2018 00:00:00 6.30833 C 61.8333 %
920 07-02-2018 00:00:00 6.2075 C 63.0250 %
921 08-02-2018 00:00:00 5.975 C 61.9833 %
922 09-02-2018 00:00:00 5.43333 C 63.6917 %
923 10-02-2018 00:00:00 6.105 C 66.3083 %
924 11-02-2018 00:00:00 6.99167 C 66.3833 %
925 12-02-2018 00:00:00 7.07833 C 64.5250 %
Sensor: Nr:Datum:Temp:Feuchte:
G-T/H 926 13-02-2018 00:00:00 6.335 C 60.4167 %
927 14-02-2018 00:00:00 5.87917 C 61.6500 %
928 15-02-2018 00:00:00 5.88583 C 66.8833 %
929 16-02-2018 00:00:00 6.29667 C 70.6750 %
930 17-02-2018 00:00:00 6.07083 C 67.1000 %
931 18-02-2018 00:00:00 5.89667 C 66.5500 %
932 19-02-2018 00:00:00 5.89083 C 68.3167 %
933 20-02-2018 00:00:00 6.01 C 66.1333 %
934 21-02-2018 00:00:00 5.89083 C 63.8500 %
935 22-02-2018 00:00:00 5.73333 C 61.2667 %
936 23-02-2018 00:00:00 5.48583 C 60.5583 %
937 24-02-2018 00:00:00 5.12583 C 59.3667 %
938 25-02-2018 00:00:00 4.93667 C 56.8667 %
939 26-02-2018 00:00:00 4.61167 C 55.2417 %
940 27-02-2018 00:00:00 4.5275 C 52.9667 %
941 28-02-2018 00:00:00 4.28667 C 51.9750 %
942 01-03-2018 00:00:00 4.305 C 53.0333 %
943 02-03-2018 00:00:00 4.77417 C 54.7917 %
944 03-03-2018 00:00:00 5.21917 C 60.2833 %
945 04-03-2018 00:00:00 6.01083 C 65.3000 %
946 05-03-2018 00:00:00 7.26 C 67.7083 %
947 06-03-2018 00:00:00 7.275 C 64.2583 %
948 07-03-2018 00:00:00 8.05833 C 67.2083 %
949 08-03-2018 00:00:00 8.30667 C 69.2500 %
950 09-03-2018 00:00:00 8.13 C 70.0750 %
Sensor: Nr:Datum:Temp:Feuchte:
G-T/H 951 10-03-2018 00:00:00 8.92167 C 72.5500 %
952 11-03-2018 00:00:00 10.33 C 74.6417 %
953 12-03-2018 00:00:00 10.33667 C 74.2417 %
954 13-03-2018 00:00:00 10.06083 C 73.3417 %
955 14-03-2018 00:00:00 9.31667 C 70.8667 %
956 15-03-2018 00:00:00 8.67083 C 68.2833 %
957 16-03-2018 00:00:00 9.4175 C 72.0250 %
958 17-03-2018 00:00:00 8.13333 C 61.2417 %
959 18-03-2018 00:00:00 6.64 C 57.5417 %
960 19-03-2018 00:00:00 6.395 C 58.4417 %
961 20-03-2018 00:00:00 6.19167 C 59.8333 %
962 21-03-2018 00:00:00 6.24 C 61.0167 %
963 22-03-2018 00:00:00 6.45333 C 62.8500 %
964 23-03-2018 00:00:00 7.555 C 68.1250 %
965 24-03-2018 00:00:00 7.95833 C 66.2333 %
966 25-03-2018 00:00:00 7.42522 C 63.5130 %
967 26-03-2018 00:00:00 8.47583 C 65.8417 %
968 27-03-2018 00:00:00 8.32583 C 65.0083 %
969 28-03-2018 00:00:00 9.05 C 70.1833 %
970 29-03-2018 00:00:00 9.1875 C 67.9333 %
971 30-03-2018 00:00:00 8.73083 C 65.5333 %
972 31-03-2018 00:00:00 9.3075 C 68.4417 %
973 01-04-2018 00:00:00 9.65917 C 69.4500 %
974 02-04-2018 00:00:00 9.52333 C 68.1000 %
975 03-04-2018 00:00:00 10.725 C 69.7000 %
Sensor: Nr:Datum:Temp:Feuchte:
G-T/H 976 04-04-2018 00:00:00 11.48583 C 70.6333 %
977 05-04-2018 00:00:00 10.94833 C 68.8000 %
978 06-04-2018 00:00:00 9.26167 C 62.4833 %
979 07-04-2018 00:00:00 10.58667 C 62.3917 %
980 08-04-2018 00:00:00 13.47 C 59.0417 %
981 09-04-2018 00:00:00 14.53917 C 57.1667 %
982 10-04-2018 00:00:00 13.77667 C 63.5000 %
983 11-04-2018 00:00:00 13.00917 C 66.6083 %
984 12-04-2018 00:00:00 12.9425 C 66.9917 %
985 13-04-2018 00:00:00 12.73333 C 67.2917 %
986 14-04-2018 00:00:00 13.63417 C 61.7667 %
987 15-04-2018 00:00:00 13.92167 C 65.0333 %
988 16-04-2018 00:00:00 14.52167 C 62.0000 %
989 17-04-2018 00:00:00 14.20333 C 61.1500 %
990 18-04-2018 00:00:00 14.54417 C 62.2333 %
991 19-04-2018 00:00:00 14.79583 C 62.5583 %
992 20-04-2018 00:00:00 15.73333 C 61.3833 %
993 21-04-2018 00:00:00 15.80333 C 63.5083 %
994 22-04-2018 00:00:00 15.78333 C 66.2917 %
995 23-04-2018 00:00:00 17.01667 C 62.7833 %
996 24-04-2018 00:00:00 16.23833 C 56.5917 %
997 25-04-2018 00:00:00 15.21833 C 62.0333 %
998 26-04-2018 00:00:00 13.76 C 51.5583 %
999 27-04-2018 00:00:00 13.61917 C 56.6250 %
1000 28-04-2018 00:00:00 13.9325 C 61.2917 %
Sensor: Nr:Datum:Temp:Feuchte:
G-T/H 1001 29-04-2018 00:00:00 14.02083 C 64.6000 %
1002 30-04-2018 00:00:00 14.6725 C 64.2917 %
1003 01-05-2018 00:00:00 13.36417 C 58.0083 %
1004 02-05-2018 00:00:00 13.24833 C 56.1500 %
1005 03-05-2018 00:00:00 13.77 C 57.8750 %
1006 04-05-2018 00:00:00 13.83917 C 58.3750 %
1007 05-05-2018 00:00:00 15.43167 C 55.9333 %
1008 06-05-2018 00:00:00 15.6825 C 57.6750 %
1009 07-05-2018 00:00:00 17.61 C 52.7917 %
1010 08-05-2018 00:00:00 18.74917 C 49.1583 %
1011 09-05-2018 00:00:00 17.61417 C 55.5167 %
1012 10-05-2018 00:00:00 16.74583 C 61.1667 %
1013 11-05-2018 00:00:00 15.555 C 63.3500 %
1014 12-05-2018 00:00:00 15.79083 C 63.9333 %
1015 13-05-2018 00:00:00 16.08833 C 66.4583 %
1016 14-05-2018 00:00:00 15.57667 C 68.2083 %
1017 15-05-2018 00:00:00 16.8825 C 59.6083 %
1018 16-05-2018 00:00:00 16.71333 C 63.0083 %
1019 17-05-2018 00:00:00 15.91 C 63.1083 %
1020 18-05-2018 00:00:00 15.1975 C 60.7083 %
1021 19-05-2018 00:00:00 15.0375 C 63.1750 %
1022 20-05-2018 00:00:00 15.13333 C 64.4667 %
1023 21-05-2018 00:00:00 16.85667 C 64.3167 %
1024 22-05-2018 00:00:00 17.2475 C 65.6333 %
1025 23-05-2018 00:00:00 16.85417 C 68.0583 %
Sensor: Nr:Datum:Temp:Feuchte:
G-T/H 1026 24-05-2018 00:00:00 16.56417 C 69.4500 %
1027 25-05-2018 00:00:00 17.3275 C 69.1583 %
1028 26-05-2018 00:00:00 18.92583 C 67.1167 %
1029 27-05-2018 00:00:00 18.99167 C 68.2750 %
1030 28-05-2018 00:00:00 18.94167 C 69.8667 %
1031 29-05-2018 00:00:00 19.4375 C 69.9667 %
1032 30-05-2018 00:00:00 19.22417 C 70.2750 %
1033 31-05-2018 00:00:00 19.74667 C 69.8500 %
1034 01-06-2018 00:00:00 19.70417 C 70.5583 %
1035 02-06-2018 00:00:00 19.1175 C 70.5000 %
1036 03-06-2018 00:00:00 19.86917 C 66.6000 %
1037 04-06-2018 00:00:00 21.16 C 62.4500 %
1038 05-06-2018 00:00:00 21.1225 C 62.2500 %
1039 06-06-2018 00:00:00 20.28167 C 64.7000 %
1040 07-06-2018 00:00:00 20.33167 C 66.7250 %
1041 08-06-2018 00:00:00 20.14167 C 68.3250 %
1042 09-06-2018 00:00:00 21.14508 C 68.4918 %
1043 10-06-2018 00:00:00 20.73583 C 69.4833 %
1044 11-06-2018 00:00:00 20.2075 C 70.2833 %
1045 12-06-2018 00:00:00 18.93333 C 70.9417 %
1046 13-06-2018 00:00:00 17.78333 C 67.8500 %
1047 14-06-2018 00:00:00 17.08167 C 65.6167 %
1048 15-06-2018 00:00:00 17.87667 C 69.7333 %
1049 16-06-2018 00:00:00 19.23167 C 66.0250 %
1050 17-06-2018 00:00:00 19.20917 C 66.1250 %
Sensor: Nr:Datum:Temp:Feuchte:
G-T/H 1051 18-06-2018 00:00:00 18.5725 C 66.5167 %
1052 19-06-2018 00:00:00 19.3025 C 68.1667 %
1053 20-06-2018 00:00:00 21.34417 C 62.6417 %
1054 21-06-2018 00:00:00 20.40083 C 61.7667 %
1055 22-06-2018 00:00:00 18.12583 C 59.1417 %
1056 23-06-2018 00:00:00 16.91917 C 60.9000 %
1057 24-06-2018 00:00:00 17.08583 C 64.6833 %
1058 25-06-2018 00:00:00 17.72833 C 66.0250 %
1059 26-06-2018 00:00:00 18.48917 C 62.1583 %
1060 27-06-2018 00:00:00 19.815 C 57.9000 %
1061 28-06-2018 00:00:00 20.73667 C 53.0667 %
1062 29-06-2018 00:00:00 22.01 C 53.8250 %
1063 30-06-2018 00:00:00 22.90917 C 48.2667 %
1064 01-07-2018 00:00:00 21.50833 C 49.2500 %
1065 02-07-2018 00:00:00 21.34083 C 43.1083 %
1066 03-07-2018 00:00:00 20.70167 C 49.9250 %
1067 04-07-2018 00:00:00 21.1075 C 60.3667 %
1068 05-07-2018 00:00:00 21.2225 C 66.7750 %
1069 06-07-2018 00:00:00 20.8225 C 63.6917 %
1070 07-07-2018 00:00:00 20.45126 C 62.5294 %
1071 08-07-2018 00:00:00 20.11833 C 59.9000 %
1072 09-07-2018 00:00:00 20.74917 C 55.1417 %
1073 10-07-2018 00:00:00 20.3825 C 58.3167 %
1074 11-07-2018 00:00:00 18.89583 C 62.6083 %
1075 12-07-2018 00:00:00 18.92167 C 65.2500 %
Sensor: Nr:Datum:Temp:Feuchte:
G-T/H 1076 13-07-2018 00:00:00 20.39417 C 62.1167 %
1077 14-07-2018 00:00:00 20.52583 C 63.2833 %
1078 15-07-2018 00:00:00 20.67417 C 63.4333 %
1079 16-07-2018 00:00:00 20.8475 C 63.2583 %
1080 17-07-2018 00:00:00 20.97167 C 63.0667 %
1081 18-07-2018 00:00:00 20.9325 C 59.6167 %
1082 19-07-2018 00:00:00 21.11667 C 54.9500 %
1083 20-07-2018 00:00:00 21.86917 C 52.9083 %
1084 21-07-2018 00:00:00 21.57333 C 58.8500 %
1085 22-07-2018 00:00:00 20.75417 C 62.4750 %
1086 23-07-2018 00:00:00 22.1575 C 57.9833 %
1087 24-07-2018 00:00:00 23.88 C 52.9250 %
1088 25-07-2018 00:00:00 24.83333 C 49.4917 %
1089 26-07-2018 00:00:00 25.99417 C 48.0750 %
1090 27-07-2018 00:00:00 25.445 C 46.9000 %
1091 28-07-2018 00:00:00 24.04917 C 55.1667 %
1092 29-07-2018 00:00:00 22.61667 C 58.5167 %
1093 30-07-2018 00:00:00 24.22583 C 54.8000 %
1094 31-07-2018 00:00:00 25.41833 C 51.8250 %
1095 01-08-2018 00:00:00 23.80667 C 61.0833 %
1096 02-08-2018 00:00:00 23.36417 C 62.3583 %
1097 03-08-2018 00:00:00 24.53167 C 58.5333 %
1098 04-08-2018 00:00:00 25.9125 C 50.5583 %
1099 05-08-2018 00:00:00 24.74417 C 53.5917 %
1100 06-08-2018 00:00:00 24.53333 C 49.9583 %
Sensor: Nr:Datum:Temp:Feuchte:
G-T/H 1101 07-08-2018 00:00:00 24.12667 C 54.2583 %
1102 08-08-2018 00:00:00 24.27667 C 57.4917 %
1103 09-08-2018 00:00:00 23.23333 C 60.5250 %
1104 10-08-2018 00:00:00 21.49417 C 54.0000 %
1105 11-08-2018 00:00:00 20.81667 C 56.0583 %
1106 12-08-2018 00:00:00 20.13 C 56.1333 %
1107 13-08-2018 00:00:00 20.07083 C 60.5667 %
1108 14-08-2018 00:00:00 19.80333 C 63.5000 %
1109 15-08-2018 00:00:00 19.82917 C 65.0667 %
1110 16-08-2018 00:00:00 19.9875 C 64.3500 %
1111 17-08-2018 00:00:00 20.46083 C 64.9583 %
1112 18-08-2018 00:00:00 19.96167 C 62.2667 %
1113 19-08-2018 00:00:00 19.83667 C 62.1667 %
1114 20-08-2018 00:00:00 21.2525 C 62.2667 %
1115 21-08-2018 00:00:00 21.17667 C 63.9333 %
1116 22-08-2018 00:00:00 21.1725 C 64.1750 %
1117 23-08-2018 00:00:00 21.47667 C 64.7000 %
1118 24-08-2018 00:00:00 21.1275 C 62.0417 %
1119 25-08-2018 00:00:00 19.5075 C 59.1667 %
1120 26-08-2018 00:00:00 18.22417 C 55.7083 %
1121 27-08-2018 00:00:00 18.48167 C 60.4500 %
1122 28-08-2018 00:00:00 18.53833 C 61.2250 %
1123 29-08-2018 00:00:00 18.56917 C 62.2417 %
1124 30-08-2018 00:00:00 18.82333 C 63.4833 %
1125 31-08-2018 00:00:00 18.3025 C 59.8750 %
Sensor: Nr:Datum:Temp:Feuchte:
G-T/H 1126 01-09-2018 00:00:00 17.4825 C 59.8917 %
1127 02-09-2018 00:00:00 16.9325 C 62.1583 %
1128 03-09-2018 00:00:00 18.13333 C 66.0000 %
1129 04-09-2018 00:00:00 19.61083 C 66.7083 %
1130 05-09-2018 00:00:00 19.59583 C 67.1750 %
1131 06-09-2018 00:00:00 19.38917 C 68.3667 %
1132 07-09-2018 00:00:00 18.6775 C 67.7917 %
1133 08-09-2018 00:00:00 17.10833 C 59.8333 %
1134 09-09-2018 00:00:00 17.1975 C 64.7667 %
1135 10-09-2018 00:00:00 18.47583 C 60.5250 %
1136 11-09-2018 00:00:00 19.45417 C 58.4917 %
1137 12-09-2018 00:00:00 18.84083 C 60.8833 %
1138 13-09-2018 00:00:00 18.58083 C 66.2167 %
1139 14-09-2018 00:00:00 18.04833 C 65.0000 %
1140 15-09-2018 00:00:00 17.66667 C 59.8833 %
1141 16-09-2018 00:00:00 16.83 C 61.8000 %
1142 17-09-2018 00:00:00 17.8475 C 57.0583 %
1143 18-09-2018 00:00:00 19.79417 C 56.2333 %
1144 19-09-2018 00:00:00 21.03083 C 58.0583 %
1145 20-09-2018 00:00:00 20.82 C 55.5500 %
1146 21-09-2018 00:00:00 19.29417 C 59.4833 %
1147 22-09-2018 00:00:00 17.24917 C 60.5250 %
1148 23-09-2018 00:00:00 16.50167 C 65.7500 %
1149 24-09-2018 00:00:00 15.14583 C 63.3167 %
1150 25-09-2018 00:00:00 13.7275 C 62.7333 %
Sensor: Nr:Datum:Temp:Feuchte:
G-T/H 1151 26-09-2018 00:00:00 13.02583 C 63.2917 %
1152 27-09-2018 00:00:00 13.0625 C 65.7333 %
1153 28-09-2018 00:00:00 13.53583 C 69.5083 %
1154 29-09-2018 00:00:00 12.62 C 64.5750 %
1155 30-09-2018 00:00:00 11.83417 C 63.4000 %
1156 01-10-2018 00:00:00 12.43167 C 68.0167 %
1157 02-10-2018 00:00:00 12.47917 C 67.0333 %
1158 03-10-2018 00:00:00 13.125 C 70.8750 %
1159 04-10-2018 00:00:00 12.85083 C 66.8417 %
1160 05-10-2018 00:00:00 13.175 C 68.1250 %
1161 06-10-2018 00:00:00 12.79833 C 73.9167 %
1162 07-10-2018 00:00:00 14.22167 C 74.0833 %
1163 08-10-2018 00:00:00 13.52083 C 69.3917 %
1164 09-10-2018 00:00:00 13.39083 C 72.8583 %
1165 10-10-2018 00:00:00 13.75333 C 75.3000 %
1166 11-10-2018 00:00:00 13.985 C 75.0167 %
1167 12-10-2018 00:00:00 14.54333 C 75.8417 %
1168 13-10-2018 00:00:00 15.69 C 72.6083 %
1169 14-10-2018 00:00:00 15.11667 C 72.1917 %
1170 15-10-2018 00:00:00 14.6725 C 73.1583 %
1171 16-10-2018 00:00:00 14.08333 C 72.8917 %
1172 17-10-2018 00:00:00 13.86667 C 73.4083 %
1173 18-10-2018 00:00:00 14.26083 C 74.7500 %
1174 19-10-2018 00:00:00 14.28333 C 73.2417 %
1175 20-10-2018 00:00:00 14.01833 C 72.8250 %
Sensor: Nr:Datum:Temp:Feuchte:
G-T/H 1176 21-10-2018 00:00:00 12.52583 C 67.5917 %
1177 22-10-2018 00:00:00 11.7575 C 67.8750 %
1178 23-10-2018 00:00:00 11.71417 C 69.2333 %
1179 24-10-2018 00:00:00 13.1175 C 73.3417 %
1180 25-10-2018 00:00:00 13.88083 C 73.4083 %
1181 26-10-2018 00:00:00 13.5375 C 68.0250 %
1182 27-10-2018 00:00:00 12.19667 C 65.8417 %
1183 28-10-2018 00:00:00 10.9176 C 62.4880 %
1184 29-10-2018 00:00:00 10.95583 C 65.6250 %
1185 30-10-2018 00:00:00 10.86333 C 67.5167 %
1186 31-10-2018 00:00:00 10.8775 C 68.4750 %
1187 01-11-2018 00:00:00 10.72083 C 69.2750 %
1188 02-11-2018 00:00:00 11.285 C 72.4667 %
1189 03-11-2018 00:00:00 10.44 C 67.0750 %
1190 04-11-2018 00:00:00 10.265 C 68.6167 %
1191 05-11-2018 00:00:00 11.60167 C 72.5750 %
1192 06-11-2018 00:00:00 11.5475 C 72.0167 %
1193 07-11-2018 00:00:00 11.24083 C 72.4083 %
1194 08-11-2018 00:00:00 11.87833 C 74.0333 %
1195 09-11-2018 00:00:00 11.62333 C 73.2750 %
1196 10-11-2018 00:00:00 12.22833 C 74.7000 %
1197 11-11-2018 00:00:00 12.73917 C 75.7833 %
1198 12-11-2018 00:00:00 13.255 C 75.6083 %
1199 13-11-2018 00:00:00 13.2975 C 75.3417 %
1200 14-11-2018 00:00:00 11.54667 C 70.8583 %
Sensor: Nr:Datum:Temp:Feuchte:
G-T/H 1201 15-11-2018 00:00:00 11.19417 C 71.8333 %
1202 16-11-2018 00:00:00 10.76833 C 68.8833 %
1203 17-11-2018 00:00:00 9.25167 C 68.0000 %
1204 18-11-2018 00:00:00 8.3775 C 68.4167 %
1205 19-11-2018 00:00:00 8.15 C 69.1333 %
1206 20-11-2018 00:00:00 8.56667 C 68.8833 %
1207 21-11-2018 00:00:00 8.45333 C 69.6833 %
1208 22-11-2018 00:00:00 8.65333 C 70.9083 %
1209 23-11-2018 00:00:00 7.69667 C 69.4917 %
1210 24-11-2018 00:00:00 8.0325 C 72.4750 %
1211 25-11-2018 00:00:00 9.05667 C 73.9333 %
1212 26-11-2018 00:00:00 9.6625 C 74.3250 %
1213 27-11-2018 00:00:00 9.61333 C 72.8000 %
1214 28-11-2018 00:00:00 8.91917 C 71.9583 %
1215 29-11-2018 00:00:00 9.26083 C 73.8000 %
1216 30-11-2018 00:00:00 9.63 C 74.7833 %
1217 01-12-2018 00:00:00 9.92417 C 74.6250 %
1218 02-12-2018 00:00:00 10.7275 C 75.6167 %
1219 03-12-2018 00:00:00 11.87333 C 76.5417 %
1220 04-12-2018 00:00:00 11.3275 C 72.0250 %
1221 05-12-2018 00:00:00 9.61933 C 69.0504 %
1222 06-12-2018 00:00:00 10.40583 C 72.9583 %
1223 07-12-2018 00:00:00 11.82917 C 74.0583 %
1224 08-12-2018 00:00:00 11.04667 C 70.6667 %
1225 09-12-2018 00:00:00 10.81167 C 72.8000 %
Sensor: Nr:Datum:Temp:Feuchte:
G-T/H 1226 10-12-2018 00:00:00 10.01083 C 71.3083 %
1227 11-12-2018 00:00:00 9.19083 C 71.8583 %
1228 12-12-2018 00:00:00 8.70667 C 72.1583 %
1229 13-12-2018 00:00:00 8.07083 C 70.1167 %
1230 14-12-2018 00:00:00 7.78 C 68.6583 %
1231 15-12-2018 00:00:00 7.575 C 68.1083 %
1232 16-12-2018 00:00:00 7.33667 C 67.4333 %
1233 17-12-2018 00:00:00 7.74583 C 71.2333 %
1234 18-12-2018 00:00:00 8.3475 C 72.4667 %
1235 19-12-2018 00:00:00 8.60083 C 72.9417 %
1236 20-12-2018 00:00:00 9.3175 C 74.0000 %
1237 21-12-2018 00:00:00 10.0375 C 74.8333 %
1238 22-12-2018 00:00:00 10.99417 C 74.3000 %
1239 23-12-2018 00:00:00 10.525 C 74.6917 %
1240 24-12-2018 00:00:00 10.26583 C 72.2917 %
1241 25-12-2018 00:00:00 8.6825 C 71.1167 %
1242 26-12-2018 00:00:00 7.58083 C 70.1333 %
1243 27-12-2018 00:00:00 6.98167 C 70.2333 %
1244 28-12-2018 00:00:00 6.8575 C 71.5833 %
1245 29-12-2018 00:00:00 7.085 C 72.4583 %
1246 30-12-2018 00:00:00 8.24 C 74.4417 %
1247 31-12-2018 00:00:00 9.18833 C 75.6083 %
1248 01-01-2019 00:00:00 9.65583 C 75.8167 %
1249 02-01-2019 00:00:00 8.91333 C 73.4000 %
1250 03-01-2019 00:00:00 7.65417 C 72.7000 %
Sensor: Nr:Datum:Temp:Feuchte:
G-T/H 1251 04-01-2019 00:00:00 7.72667 C 73.7750 %
1252 05-01-2019 00:00:00 8.26833 C 74.6083 %
1253 06-01-2019 00:00:00 8.8 C 75.9250 %
1254 07-01-2019 00:00:00 8.94 C 75.0167 %
1255 08-01-2019 00:00:00 9.01833 C 74.5417 %
1256 09-01-2019 00:00:00 8.46417 C 73.0417 %
1257 10-01-2019 00:00:00 7.90083 C 71.3750 %
1258 11-01-2019 00:00:00 7.57167 C 72.1167 %
1259 12-01-2019 00:00:00 8.24417 C 74.2500 %
1260 13-01-2019 00:00:00 8.91667 C 75.6333 %
1261 14-01-2019 00:00:00 9.11083 C 74.7417 %
1262 15-01-2019 00:00:00 8.33333 C 74.3833 %
1263 16-01-2019 00:00:00 8.5125 C 74.7083 %
1264 17-01-2019 00:00:00 8.4975 C 74.5500 %
1265 18-01-2019 00:00:00 7.79333 C 72.6583 %
1266 19-01-2019 00:00:00 6.99833 C 69.2000 %
1267 20-01-2019 00:00:00 6.61083 C 64.8583 %
1268 21-01-2019 00:00:00 6.18667 C 61.1750 %
1269 22-01-2019 00:00:00 6.04833 C 60.2083 %
1270 23-01-2019 00:00:00 6.2575 C 63.4917 %
1271 24-01-2019 00:00:00 6.30833 C 65.6583 %
1272 25-01-2019 00:00:00 6.2425 C 67.2833 %
1273 26-01-2019 00:00:00 6.51833 C 71.7083 %
1274 27-01-2019 00:00:00 7.75333 C 73.9667 %
1275 28-01-2019 00:00:00 7.77417 C 74.2417 %
Sensor: Nr:Datum:Temp:Feuchte:
G-T/H 1276 29-01-2019 00:00:00 7.46167 C 73.9917 %
1277 30-01-2019 00:00:00 6.65667 C 69.5667 %
1278 31-01-2019 00:00:00 6.54333 C 72.1667 %
1279 01-02-2019 00:00:00 6.475 C 73.4167 %
1280 02-02-2019 00:00:00 6.70083 C 74.6612 %
1281 03-02-2019 00:00:00 6.98667 C 74.3417 %
1282 04-02-2019 00:00:00 6.68333 C 73.8083 %
1283 05-02-2019 00:00:00 7.12 C 74.5083 %
1284 06-02-2019 00:00:00 6.9875 C 73.4333 %
1285 07-02-2019 00:00:00 7.0025 C 74.8750 %
1286 08-02-2019 00:00:00 7.93833 C 76.1083 %
1287 09-02-2019 00:00:00 8.85917 C 76.1583 %
1288 10-02-2019 00:00:00 9.2225 C 75.9667 %
1289 11-02-2019 00:00:00 8.8125 C 75.1083 %
1290 12-02-2019 00:00:00 8.09167 C 74.2167 %
1291 13-02-2019 00:00:00 7.47583 C 73.5000 %
1292 14-02-2019 00:00:00 6.95583 C 72.5083 %
1293 15-02-2019 00:00:00 6.6825 C 71.6250 %
1294 16-02-2019 00:00:00 6.53917 C 73.3083 %
1295 17-02-2019 00:00:00 6.63667 C 74.1417 %
1296 18-02-2019 00:00:00 6.65583 C 74.3000 %
1297 19-02-2019 00:00:00 7.19417 C 75.8083 %
1298 20-02-2019 00:00:00 7.495 C 75.5500 %
1299 21-02-2019 00:00:00 7.76167 C 75.7333 %
1300 22-02-2019 00:00:00 9.21417 C 77.2250 %
Sensor: Nr:Datum:Temp:Feuchte:
G-T/H 1301 23-02-2019 00:00:00 9.20583 C 74.8917 %
1302 24-02-2019 00:00:00 8.01917 C 72.1333 %
1303 25-02-2019 00:00:00 7.5975 C 71.6250 %
1304 26-02-2019 00:00:00 7.74083 C 71.5500 %
1305 27-02-2019 00:00:00 6.63667 C 68.6917 %
1306 28-02-2019 00:00:00 8.11917 C 73.1500 %
1307 01-03-2019 00:00:00 9.37083 C 74.7583 %
1308 02-03-2019 00:00:00 9.69333 C 72.8750 %
1309 03-03-2019 00:00:00 10.36917 C 73.5083 %
1310 04-03-2019 00:00:00 10.60917 C 73.1083 %
1311 05-03-2019 00:00:00 9.71 C 71.6083 %
1312 06-03-2019 00:00:00 9.71 C 73.4333 %
1313 07-03-2019 00:00:00 10.48417 C 73.6500 %
1314 08-03-2019 00:00:00 10.0575 C 72.7250 %
1315 09-03-2019 00:00:00 10.17167 C 73.4333 %
1316 10-03-2019 00:00:00 10.60917 C 71.4667 %
1317 11-03-2019 00:00:00 9.44833 C 67.3667 %
1318 12-03-2019 00:00:00 8.92417 C 70.4667 %
1319 13-03-2019 00:00:00 9.345 C 71.3250 %
1320 14-03-2019 00:00:00 9.13333 C 72.3750 %
1321 15-03-2019 00:00:00 10.055 C 74.0583 %
1322 16-03-2019 00:00:00 10.57417 C 72.1333 %
1323 17-03-2019 00:00:00 9.70583 C 61.2083 %
1324 18-03-2019 00:00:00 6.8675 C 62.4667 %
1325 19-03-2019 00:00:00 6.02333 C 59.7583 %
Sensor: Nr:Datum:Temp:Feuchte:
G-T/H 1326 20-03-2019 00:00:00 7.52333 C 64.5167 %
1327 21-03-2019 00:00:00 9.29167 C 60.4917 %
1328 22-03-2019 00:00:00 10.14833 C 61.3250 %
1329 23-03-2019 00:00:00 10.15917 C 64.7250 %
1330 24-03-2019 00:00:00 9.54833 C 67.2167 %
1331 25-03-2019 00:00:00 9.15583 C 67.9000 %
1332 26-03-2019 00:00:00 9.0525 C 69.7250 %
1333 27-03-2019 00:00:00 9.47917 C 69.9333 %
1334 28-03-2019 00:00:00 9.49583 C 69.9417 %
1335 29-03-2019 00:00:00 10.2825 C 66.2583 %
1336 30-03-2019 00:00:00 9.79667 C 60.6083 %
1337 31-03-2019 00:00:00 11.2313 C 64.9130 %
1338 01-04-2019 00:00:00 11.50333 C 60.3833 %
1339 02-04-2019 00:00:00 11.2875 C 63.6333 %
1340 03-04-2019 00:00:00 11.49833 C 67.0000 %
1341 04-04-2019 00:00:00 10.56333 C 67.8833 %
1342 05-04-2019 00:00:00 9.87333 C 68.5417 %
1343 06-04-2019 00:00:00 10.76333 C 69.0417 %
1344 07-04-2019 00:00:00 11.4925 C 68.0667 %
1345 08-04-2019 00:00:00 12.30917 C 70.6833 %
1346 09-04-2019 00:00:00 12.2875 C 74.7333 %
1347 10-04-2019 00:00:00 12.35917 C 56.9917 %
1348 11-04-2019 00:00:00 10.73083 C 48.4917 %
1349 12-04-2019 00:00:00 9.57417 C 46.6333 %
1350 13-04-2019 00:00:00 9.48583 C 55.2583 %
Sensor: Nr:Datum:Temp:Feuchte:
G-T/H 1351 14-04-2019 00:00:00 9.175 C 58.5167 %
1352 15-04-2019 00:00:00 10.07667 C 62.0833 %
1353 16-04-2019 00:00:00 11.07083 C 62.2083 %
1354 17-04-2019 00:00:00 12.33417 C 65.8333 %
1355 18-04-2019 00:00:00 13.09417 C 62.0833 %
1356 19-04-2019 00:00:00 14.9125 C 51.5500 %
1357 20-04-2019 00:00:00 15.6775 C 48.0417 %
1358 21-04-2019 00:00:00 16.29 C 47.3167 %
1359 22-04-2019 00:00:00 15.22333 C 52.2417 %
1360 23-04-2019 00:00:00 15.61417 C 53.2333 %
1361 24-04-2019 00:00:00 15.37833 C 59.4167 %
1362 25-04-2019 00:00:00 14.5575 C 61.5833 %
1363 26-04-2019 00:00:00 14.28667 C 64.1250 %
1364 27-04-2019 00:00:00 13.445 C 64.1833 %
1365 28-04-2019 00:00:00 12.45 C 64.1833 %
1366 29-04-2019 00:00:00 11.95083 C 63.4083 %
1367 30-04-2019 00:00:00 13.89833 C 57.8083 %
1368 01-05-2019 00:00:00 14.135 C 60.2833 %
1369 02-05-2019 00:00:00 13.82333 C 62.1750 %
1370 03-05-2019 00:00:00 13.86417 C 59.4750 %
1371 04-05-2019 00:00:00 12.72083 C 59.0083 %
1372 05-05-2019 00:00:00 11.31667 C 59.7917 %
1373 06-05-2019 00:00:00 11.38833 C 61.2833 %
1374 07-05-2019 00:00:00 11.88083 C 62.6250 %
1375 08-05-2019 00:00:00 11.97 C 62.9333 %
Sensor: Nr:Datum:Temp:Feuchte:
G-T/H 1376 09-05-2019 00:00:00 12.35167 C 66.7333 %
1377 10-05-2019 00:00:00 12.92101 C 67.6218 %
1378 11-05-2019 00:00:00 13.15833 C 68.0833 %
1379 12-05-2019 00:00:00 12.12833 C 64.0833 %
1380 13-05-2019 00:00:00 12.045 C 60.0000 %
1381 14-05-2019 00:00:00 12.31083 C 59.7417 %
1382 15-05-2019 00:00:00 12.7725 C 52.9833 %
1383 16-05-2019 00:00:00 13.015 C 56.6333 %
1384 17-05-2019 00:00:00 13.21917 C 63.1000 %
1385 18-05-2019 00:00:00 14.04667 C 66.4250 %
1386 19-05-2019 00:00:00 14.825 C 68.0750 %
1387 20-05-2019 00:00:00 14.84583 C 68.8000 %
1388 21-05-2019 00:00:00 14.15167 C 70.0167 %
1389 22-05-2019 00:00:00 13.71167 C 69.7583 %
1390 23-05-2019 00:00:00 15.29917 C 61.3750 %
1391 24-05-2019 00:00:00 17.54 C 55.6333 %
1392 25-05-2019 00:00:00 17.29083 C 56.6250 %
1393 26-05-2019 00:00:00 16.44583 C 60.8167 %
1394 27-05-2019 00:00:00 16.3925 C 64.3917 %
1395 28-05-2019 00:00:00 15.71583 C 66.5333 %
1396 29-05-2019 00:00:00 16.0475 C 54.4250 %
1397 30-05-2019 00:00:00 15.75417 C 61.4167 %
1398 31-05-2019 00:00:00 17.74167 C 65.2667 %
1399 01-06-2019 00:00:00 18.025 C 65.0750 %
1400 02-06-2019 00:00:00 18.60667 C 66.0917 %
Sensor: Nr:Datum:Temp:Feuchte:
G-T/H 1401 03-06-2019 00:00:00 19.92333 C 65.8667 %
1402 04-06-2019 00:00:00 19.69667 C 66.1500 %
1403 05-06-2019 00:00:00 20.025 C 66.6917 %
1404 06-06-2019 00:00:00 19.2775 C 64.1917 %
1405 07-06-2019 00:00:00 17.86583 C 60.1250 %
1406 08-06-2019 00:00:00 17.565 C 60.2333 %
1407 09-06-2019 00:00:00 16.99667 C 61.5667 %
1408 10-06-2019 00:00:00 17.96333 C 64.8583 %
1409 11-06-2019 00:00:00 18.18333 C 66.3917 %
1410 12-06-2019 00:00:00 17.70333 C 67.3917 %
1411 13-06-2019 00:00:00 17.89167 C 58.1667 %
1412 14-06-2019 00:00:00 19.59083 C 60.6083 %
1413 15-06-2019 00:00:00 19.6625 C 64.9917 %
1414 16-06-2019 00:00:00 19.56917 C 62.4417 %
1415 17-06-2019 00:00:00 19.01167 C 62.8417 %
1416 18-06-2019 00:00:00 21.23667 C 58.9250 %
1417 19-06-2019 00:00:00 21.53167 C 61.1000 %
1418 20-06-2019 00:00:00 20.7375 C 63.5667 %
1419 21-06-2019 00:00:00 20.53083 C 52.5000 %
1420 22-06-2019 00:00:00 20.16917 C 54.8083 %
1421 23-06-2019 00:00:00 21.31917 C 57.1667 %
1422 24-06-2019 00:00:00 23.94167 C 55.3000 %
1423 25-06-2019 00:00:00 23.93083 C 58.5083 %
1424 26-06-2019 00:00:00 24.37417 C 62.9417 %
1425 27-06-2019 00:00:00 23.60667 C 60.8333 %
Sensor: Nr:Datum:Temp:Feuchte:
G-T/H 1426 28-06-2019 00:00:00 22.21417 C 58.6667 %
1427 29-06-2019 00:00:00 24.105 C 45.4667 %
1428 30-06-2019 00:00:00 23.46833 C 52.6667 %
1429 01-07-2019 00:00:00 23.14417 C 56.9333 %
1430 02-07-2019 00:00:00 21.5975 C 49.7667 %
1431 03-07-2019 00:00:00 20.46667 C 46.5000 %
1432 04-07-2019 00:00:00 20.24 C 44.2750 %
1433 05-07-2019 00:00:00 20.99583 C 47.4667 %
1434 06-07-2019 00:00:00 21.055 C 53.0250 %
1435 07-07-2019 00:00:00 20.39667 C 54.9083 %
1436 08-07-2019 00:00:00 18.37167 C 51.1250 %
1437 09-07-2019 00:00:00 18.10583 C 49.1417 %
1438 10-07-2019 00:00:00 18.91917 C 42.0333 %
1439 11-07-2019 00:00:00 18.91167 C 59.7083 %
1440 12-07-2019 00:00:00 18.3025 C 73.7917 %
1441 13-07-2019 00:00:00 18.47333 C 67.7417 %
1442 14-07-2019 00:00:00 18.46917 C 65.0917 %
1443 15-07-2019 00:00:00 18.2725 C 59.6250 %
1444 16-07-2019 00:00:00 17.95917 C 58.3667 %
1445 17-07-2019 00:00:00 18.23667 C 61.2917 %
1446 18-07-2019 00:00:00 19.79417 C 58.3083 %
1447 19-07-2019 00:00:00 19.79417 C 61.5917 %
1448 20-07-2019 00:00:00 19.78583 C 63.8500 %
1449 21-07-2019 00:00:00 20.41333 C 63.8583 %
1450 22-07-2019 00:00:00 22.33167 C 54.5167 %
Sensor: Nr:Datum:Temp:Feuchte:
G-T/H 1451 23-07-2019 00:00:00 22.5225 C 56.8667 %
1452 24-07-2019 00:00:00 23.21833 C 58.3417 %
1453 25-07-2019 00:00:00 24.345 C 57.0083 %
1454 26-07-2019 00:00:00 24.17667 C 57.8500 %
1455 27-07-2019 00:00:00 23.54 C 61.3083 %
1456 28-07-2019 00:00:00 22.08333 C 64.8167 %
1457 29-07-2019 00:00:00 21.58833 C 59.7917 %
1458 30-07-2019 00:00:00 21.785 C 58.7750 %
1459 31-07-2019 00:00:00 22.4025 C 50.4333 %
1460 01-08-2019 00:00:00 21.77083 C 49.7000 %
1461 02-08-2019 00:00:00 21.34583 C 55.7750 %
1462 03-08-2019 00:00:00 20.90667 C 59.1167 %
1463 04-08-2019 00:00:00 20.4525 C 59.4750 %
1464 05-08-2019 00:00:00 22.07 C 57.0167 %
1465 06-08-2019 00:00:00 21.48083 C 59.7417 %
1466 07-08-2019 00:00:00 21.08 C 63.1500 %
1467 08-08-2019 00:00:00 20.60333 C 62.6167 %
1468 09-08-2019 00:00:00 20.50167 C 64.6000 %
1469 10-08-2019 00:00:00 20.38917 C 65.0917 %
1470 11-08-2019 00:00:00 19.8725 C 64.3750 %
1471 12-08-2019 00:00:00 19.0475 C 65.6000 %
1472 13-08-2019 00:00:00 18.645 C 58.8417 %
1473 14-08-2019 00:00:00 18.54583 C 57.0833 %
1474 15-08-2019 00:00:00 18.91583 C 62.6250 %
1475 16-08-2019 00:00:00 18.59917 C 65.5583 %
Sensor: Nr:Datum:Temp:Feuchte:
G-T/H 1476 17-08-2019 00:00:00 18.78167 C 67.1583 %
1477 18-08-2019 00:00:00 19.07417 C 68.7167 %
1478 19-08-2019 00:00:00 19.70167 C 61.8833 %
1479 20-08-2019 00:00:00 18.7775 C 58.6500 %
1480 21-08-2019 00:00:00 18.37 C 62.6500 %
1481 22-08-2019 00:00:00 18.7725 C 58.7167 %
1482 23-08-2019 00:00:00 19.34333 C 56.0250 %
1483 24-08-2019 00:00:00 19.1825 C 58.5917 %
1484 25-08-2019 00:00:00 19.53 C 63.3500 %
1485 26-08-2019 00:00:00 21.84417 C 64.5833 %
1486 27-08-2019 00:00:00 21.31417 C 66.1667 %
1487 28-08-2019 00:00:00 21.07 C 66.6583 %
1488 29-08-2019 00:00:00 21.03417 C 66.8417 %
1489 30-08-2019 00:00:00 20.6775 C 66.8917 %
1490 31-08-2019 00:00:00 20.2775 C 66.5917 %
1491 01-09-2019 00:00:00 20.59167 C 65.4167 %
1492 02-09-2019 00:00:00 18.59583 C 51.3417 %
1493 03-09-2019 00:00:00 16.5475 C 53.5583 %
1494 04-09-2019 00:00:00 18.68667 C 56.9667 %
1495 05-09-2019 00:00:00 18.34667 C 60.0000 %
1496 06-09-2019 00:00:00 17.44333 C 56.1750 %
1497 07-09-2019 00:00:00 17.36583 C 60.4417 %
1498 08-09-2019 00:00:00 16.54309 C 65.9350 %
1499 09-09-2019 00:00:00 16.06067 C 66.7333 %
1500 10-09-2019 00:00:00 15.23333 C 63.6597 %
Sensor: Nr:Datum:Temp:Feuchte:
G-T/H 1501 11-09-2019 00:00:00 15.74097 C 61.0833 %
1502 12-09-2019 00:00:00 17.93194 C 67.6319 %
1503 13-09-2019 00:00:00 18.68472 C 70.9653 %
1504 14-09-2019 00:00:00 18.01181 C 65.5903 %
1505 15-09-2019 00:00:00 17.60347 C 61.9722 %
1506 16-09-2019 00:00:00 17.78264 C 60.7361 %
1507 17-09-2019 00:00:00 17.67431 C 62.7083 %
1508 18-09-2019 00:00:00 15.39444 C 57.2778 %
1509 19-09-2019 00:00:00 14.12361 C 57.3125 %
1510 20-09-2019 00:00:00 13.22639 C 59.3056 %
1511 21-09-2019 00:00:00 15.10833 C 52.5278 %
1512 22-09-2019 00:00:00 15.13194 C 59.2083 %
1513 23-09-2019 00:00:00 16.27153 C 64.4028 %
1514 24-09-2019 00:00:00 16.11528 C 66.2778 %
1515 25-09-2019 00:00:00 16.20556 C 67.8681 %
1516 26-09-2019 00:00:00 16.33542 C 69.4097 %
1517 27-09-2019 00:00:00 16.76458 C 69.3611 %
1518 28-09-2019 00:00:00 16.47083 C 68.9792 %
1519 29-09-2019 00:00:00 16.41458 C 69.6528 %
1520 30-09-2019 00:00:00 16.64236 C 66.7917 %
1521 01-10-2019 00:00:00 16.54167 C 68.3542 %
1522 02-10-2019 00:00:00 16.15694 C 67.3056 %
1523 03-10-2019 00:00:00 14.67222 C 66.7361 %
1524 04-10-2019 00:00:00 14.15556 C 70.1319 %
1525 05-10-2019 00:00:00 14.31875 C 71.1667 %
Sensor: Nr:Datum:Temp:Feuchte:
G-T/H 1526 06-10-2019 00:00:00 13.69306 C 70.7847 %
1527 07-10-2019 00:00:00 13.58056 C 72.7153 %
1528 08-10-2019 00:00:00 14.14097 C 74.1597 %
1529 09-10-2019 00:00:00 14.23472 C 74.0486 %
1530 10-10-2019 00:00:00 14.00139 C 74.0278 %
1531 11-10-2019 00:00:00 13.98819 C 74.3333 %
1532 12-10-2019 00:00:00 14.71181 C 71.7639 %
1533 13-10-2019 00:00:00 15.13472 C 74.9097 %
1534 14-10-2019 00:00:00 16.34722 C 74.3958 %
1535 15-10-2019 00:00:00 15.98125 C 73.6597 %
1536 16-10-2019 00:00:00 15.42708 C 73.2986 %
1537 17-10-2019 00:00:00 15.28056 C 74.7292 %
1538 18-10-2019 00:00:00 15.18681 C 74.6042 %
1539 19-10-2019 00:00:00 14.72222 C 74.1944 %
1540 20-10-2019 00:00:00 14.40278 C 81.1597 %
1541 21-10-2019 00:00:00 14.60625 C 80.9028 %
1542 22-10-2019 00:00:00 14.62153 C 77.5000 %
1543 23-10-2019 00:00:00 14.00764 C 76.3542 %
1544 24-10-2019 00:00:00 14.52986 C 78.0139 %
1545 25-10-2019 00:00:00 15.10694 C 74.8681 %
1546 26-10-2019 00:00:00 14.99028 C 74.2153 %
1547 27-10-2019 00:00:00 14.43933 C 74.9333 %
1548 28-10-2019 00:00:00 12.81389 C 71.1806 %
1549 29-10-2019 00:00:00 12.35556 C 71.6389 %
1550 30-10-2019 00:00:00 10.98611 C 65.8194 %
Sensor: Nr:Datum:Temp:Feuchte:
G-T/H 1551 31-10-2019 00:00:00 9.49097 C 64.1736 %
1552 01-11-2019 00:00:00 9.67014 C 69.2569 %
1553 02-11-2019 00:00:00 12.01181 C 74.2222 %
1554 03-11-2019 00:00:00 12.91806 C 75.4861 %
1555 04-11-2019 00:00:00 12.97569 C 75.6250 %
1556 05-11-2019 00:00:00 12.58194 C 75.9444 %
1557 06-11-2019 00:00:00 12.33194 C 75.6528 %
1558 07-11-2019 00:00:00 12.18403 C 75.3403 %
1559 08-11-2019 00:00:00 11.13611 C 70.1181 %
1560 09-11-2019 00:00:00 11.02014 C 69.0972 %
1561 10-11-2019 00:00:00 9.95556 C 68.3056 %
1562 11-11-2019 00:00:00 9.96458 C 71.2708 %
1563 12-11-2019 00:00:00 10.11458 C 72.0972 %
1564 13-11-2019 00:00:00 10.0125 C 72.4097 %
1565 14-11-2019 00:00:00 9.73403 C 68.3958 %
1566 15-11-2019 00:00:00 9.68819 C 69.4028 %
1567 16-11-2019 00:00:00 9.6125 C 68.7083 %
1568 17-11-2019 00:00:00 9.03819 C 69.9306 %
1569 18-11-2019 00:00:00 9.47361 C 72.2500 %
1570 19-11-2019 00:00:00 9.40903 C 72.0833 %
1571 20-11-2019 00:00:00 8.93333 C 71.1181 %
1572 21-11-2019 00:00:00 8.40559 C 70.8182 %
1573 22-11-2019 00:00:00 8.70556 C 72.6736 %
1574 23-11-2019 00:00:00 9.32569 C 73.0972 %
1575 24-11-2019 00:00:00 9.08333 C 72.0764 %
Sensor: Nr:Datum:Temp:Feuchte:
G-T/H 1576 25-11-2019 00:00:00 9.04375 C 73.5069 %
1577 26-11-2019 00:00:00 9.85139 C 74.9375 %
1578 27-11-2019 00:00:00 10.87847 C 75.9236 %
1579 28-11-2019 00:00:00 11.51597 C 75.5069 %
1580 29-11-2019 00:00:00 11.25208 C 72.3542 %
1581 30-11-2019 00:00:00 9.66736 C 68.9097 %
1582 01-12-2019 00:00:00 8.81806 C 70.1806 %
1583 02-12-2019 00:00:00 8.35278 C 70.5417 %
1584 03-12-2019 00:00:00 8.74514 C 73.3472 %
1585 04-12-2019 00:00:00 8.79375 C 71.8403 %
1586 05-12-2019 00:00:00 7.92014 C 69.1458 %
1587 06-12-2019 00:00:00 7.57292 C 70.7014 %
1588 07-12-2019 00:00:00 8.97014 C 74.4514 %
1589 08-12-2019 00:00:00 10.25694 C 75.1667 %
1590 09-12-2019 00:00:00 10.48403 C 74.1111 %
1591 10-12-2019 00:00:00 9.34028 C 71.5903 %
1592 11-12-2019 00:00:00 8.75694 C 73.1250 %
1593 12-12-2019 00:00:00 8.81042 C 73.2500 %
1594 13-12-2019 00:00:00 8.51944 C 72.1458 %
1595 14-12-2019 00:00:00 8.92153 C 73.0764 %
1596 15-12-2019 00:00:00 9.56736 C 74.6667 %
1597 16-12-2019 00:00:00 9.90486 C 75.1389 %
1598 17-12-2019 00:00:00 10.43333 C 75.4583 %
1599 18-12-2019 00:00:00 10.925 C 75.4861 %
1600 19-12-2019 00:00:00 9.76667 C 73.6667 %
Sensor: Nr:Datum:Temp:Feuchte:
G-T/H 1601 20-12-2019 00:00:00 9.69375 C 75.0208 %
1602 21-12-2019 00:00:00 10.06458 C 74.5833 %
1603 22-12-2019 00:00:00 10.1375 C 75.1528 %
1604 23-12-2019 00:00:00 10.30417 C 75.3681 %
1605 24-12-2019 00:00:00 10.12639 C 74.9375 %
1606 25-12-2019 00:00:00 10.24444 C 75.9653 %
1607 26-12-2019 00:00:00 9.92708 C 75.2569 %
1608 27-12-2019 00:00:00 9.69444 C 75.5833 %
1609 28-12-2019 00:00:00 8.37639 C 70.3194 %
1610 29-12-2019 00:00:00 7.21528 C 69.6875 %
1611 30-12-2019 00:00:00 7.16944 C 69.0486 %
1612 31-12-2019 00:00:00 6.93194 C 69.9722 %
1613 01-01-2020 00:00:00 7.23125 C 70.8403 %
1614 02-01-2020 00:00:00 7.28958 C 70.5417 %
1615 03-01-2020 00:00:00 8.41389 C 73.4792 %
1616 04-01-2020 00:00:00 9.12431 C 73.5833 %
1617 05-01-2020 00:00:00 9.42917 C 73.5694 %
1618 06-01-2020 00:00:00 9.33958 C 72.1181 %
1619 07-01-2020 00:00:00 8.74583 C 72.1111 %
1620 08-01-2020 00:00:00 9.18611 C 74.0347 %
1621 09-01-2020 00:00:00 10.3875 C 76.5556 %
1622 10-01-2020 00:00:00 11.02153 C 75.1389 %
1623 11-01-2020 00:00:00 10.04097 C 73.2014 %
1624 12-01-2020 00:00:00 9.14861 C 72.8958 %
1625 13-01-2020 00:00:00 9.30833 C 74.5139 %
Sensor: Nr:Datum:Temp:Feuchte:
G-T/H 1626 14-01-2020 00:00:00 9.78958 C 75.6597 %
1627 15-01-2020 00:00:00 10.59028 C 75.5972 %
1628 16-01-2020 00:00:00 10.82222 C 75.8264 %
1629 17-01-2020 00:00:00 9.87847 C 74.9583 %
1630 18-01-2020 00:00:00 9.38125 C 74.1597 %
1631 19-01-2020 00:00:00 8.86667 C 74.2569 %
1632 20-01-2020 00:00:00 8.75 C 73.1111 %
1633 21-01-2020 00:00:00 7.77014 C 69.7847 %
1634 22-01-2020 00:00:00 7.17083 C 69.5903 %
1635 23-01-2020 00:00:00 7.63472 C 70.8611 %
1636 24-01-2020 00:00:00 7.71319 C 70.9097 %
1637 25-01-2020 00:00:00 7.96806 C 71.5139 %
1638 26-01-2020 00:00:00 7.98611 C 72.6597 %
1639 27-01-2020 00:00:00 8.21875 C 74.7500 %
1640 28-01-2020 00:00:00 8.85833 C 75.1458 %
1641 29-01-2020 00:00:00 8.44306 C 74.0000 %
1642 30-01-2020 00:00:00 8.61389 C 74.8750 %
1643 31-01-2020 00:00:00 10.32431 C 76.3958 %
1644 01-02-2020 00:00:00 11.40556 C 76.3681 %
1645 02-02-2020 00:00:00 11.15903 C 73.6736 %
1646 03-02-2020 00:00:00 11.4875 C 75.0000 %
1647 04-02-2020 00:00:00 10.54722 C 71.2847 %
1648 05-02-2020 00:00:00 9.47153 C 71.9236 %
1649 06-02-2020 00:00:00 8.34306 C 70.5208 %
1650 07-02-2020 00:00:00 7.79097 C 69.9167 %
Sensor: Nr:Datum:Temp:Feuchte:
G-T/H 1651 08-02-2020 00:00:00 7.33681 C 70.6528 %
1652 09-02-2020 00:00:00 8.3 C 73.5694 %
1653 10-02-2020 00:00:00 9.82708 C 73.9167 %
1654 11-02-2020 00:00:00 9.18194 C 72.2431 %
1655 12-02-2020 00:00:00 8.72083 C 72.8750 %
1656 13-02-2020 00:00:00 8.20208 C 72.5208 %
1657 14-02-2020 00:00:00 8.84653 C 74.7500 %
1658 15-02-2020 00:00:00 8.93958 C 73.5903 %
1659 16-02-2020 00:00:00 11.3125 C 68.1111 %
1660 17-02-2020 00:00:00 11.77708 C 69.2778 %
1661 18-02-2020 00:00:00 10.43056 C 67.4028 %
1662 19-02-2020 00:00:00 9.94514 C 69.4583 %
1663 20-02-2020 00:00:00 9.73472 C 71.6875 %
1664 21-02-2020 00:00:00 9.56875 C 71.4931 %
1665 22-02-2020 00:00:00 9.25625 C 72.0625 %
1666 23-02-2020 00:00:00 10.38403 C 73.7708 %
1667 24-02-2020 00:00:00 10.40903 C 71.9792 %
1668 25-02-2020 00:00:00 10.88819 C 73.0278 %
1669 26-02-2020 00:00:00 10.02917 C 68.9306 %
1670 27-02-2020 00:00:00 9.17986 C 71.0208 %
1671 28-02-2020 00:00:00 8.31042 C 73.7708 %
1672 29-02-2020 00:00:00 9.28125 C 75.1597 %
1673 01-03-2020 00:00:00 9.80486 C 74.3403 %
1674 02-03-2020 00:00:00 9.67847 C 73.5833 %
1675 03-03-2020 00:00:00 9.53681 C 73.3194 %
Sensor: Nr:Datum:Temp:Feuchte:
G-T/H 1676 04-03-2020 00:00:00 8.95833 C 73.5139 %
1677 05-03-2020 00:00:00 9.15833 C 73.9861 %
1678 06-03-2020 00:00:00 9.48958 C 74.9514 %
1679 07-03-2020 00:00:00 9.38611 C 74.0556 %
1680 08-03-2020 00:00:00 9.99583 C 74.7292 %
1681 09-03-2020 00:00:00 10.54861 C 73.8819 %
1682 10-03-2020 00:00:00 10.28056 C 73.3819 %
1683 11-03-2020 00:00:00 11.72083 C 75.8889 %
1684 12-03-2020 00:00:00 12.29653 C 71.3333 %
1685 13-03-2020 00:00:00 11.08333 C 68.2014 %
1686 14-03-2020 00:00:00 10.32361 C 70.1250 %
1687 15-03-2020 00:00:00 10.87153 C 65.1667 %
1688 16-03-2020 00:00:00 10.71667 C 66.3819 %
1689 17-03-2020 00:00:00 11.47153 C 70.7292 %
1690 18-03-2020 00:00:00 11.42569 C 70.3472 %
1691 19-03-2020 00:00:00 12.36736 C 67.4583 %
1692 20-03-2020 00:00:00 12.53217 C 67.5944 %
1693 21-03-2020 00:00:00 11.55903 C 63.9097 %
1694 22-03-2020 00:00:00 9.66111 C 61.2292 %
1695 23-03-2020 00:00:00 8.67431 C 62.8819 %
1696 24-03-2020 00:00:00 8.04028 C 63.8611 %
1697 25-03-2020 00:00:00 7.80833 C 63.4722 %
1698 26-03-2020 00:00:00 8.04028 C 64.0208 %
1699 27-03-2020 00:00:00 9.19722 C 61.4583 %
1700 28-03-2020 00:00:00 10.48264 C 59.6944 %
Sensor: Nr:Datum:Temp:Feuchte:
G-T/H 1701 29-03-2020 00:00:00 10.14855 C 60.5362 %
1702 30-03-2020 00:00:00 8.62708 C 59.5417 %
1703 31-03-2020 00:00:00 8.58472 C 62.8194 %
1704 01-04-2020 00:00:00 8.20764 C 62.6181 %
1705 02-04-2020 00:00:00 8.18194 C 64.4097 %
1706 03-04-2020 00:00:00 9.17708 C 61.3125 %
1707 04-04-2020 00:00:00 7.05486 C 55.4306 %
1708 05-04-2020 00:00:00 9.21944 C 61.8056 %
1709 06-04-2020 00:00:00 10.2125 C 63.7569 %
1710 07-04-2020 00:00:00 13.11319 C 59.7083 %
1711 08-04-2020 00:00:00 13.17153 C 61.2847 %
1712 09-04-2020 00:00:00 13.65556 C 60.0069 %
1713 10-04-2020 00:00:00 13.73681 C 60.7847 %
1714 11-04-2020 00:00:00 13.3125 C 61.3611 %
1715 12-04-2020 00:00:00 13.45 C 63.2500 %
1716 13-04-2020 00:00:00 13.15556 C 59.7986 %
1717 14-04-2020 00:00:00 11.44375 C 58.7847 %
1718 15-04-2020 00:00:00 11.16875 C 56.8333 %
1719 16-04-2020 00:00:00 11.42917 C 52.3542 %
1720 17-04-2020 00:00:00 14.90625 C 55.3958 %
1721 18-04-2020 00:00:00 14.63333 C 62.5347 %
1722 19-04-2020 00:00:00 14.45833 C 64.6250 %
1723 20-04-2020 00:00:00 13.53681 C 59.6042 %
1724 21-04-2020 00:00:00 13.28819 C 58.7986 %
1725 22-04-2020 00:00:00 13.43958 C 59.4167 %
Sensor: Nr:Datum:Temp:Feuchte:
G-T/H 1726 23-04-2020 00:00:00 13.68125 C 59.6181 %
1727 24-04-2020 00:00:00 14.95139 C 52.1875 %
1728 25-04-2020 00:00:00 14.65694 C 48.8681 %
1729 26-04-2020 00:00:00 11.22569 C 54.7014 %
1730 27-04-2020 00:00:00 13.14028 C 57.4375 %
1731 28-04-2020 00:00:00 13.66528 C 62.0139 %
1732 29-04-2020 00:00:00 13.85625 C 64.5486 %
1733 30-04-2020 00:00:00 14.0875 C 65.0556 %
1734 01-05-2020 00:00:00 13.42361 C 65.1111 %
1735 02-05-2020 00:00:00 12.90972 C 65.8542 %
1736 03-05-2020 00:00:00 12.50278 C 65.6389 %
1737 04-05-2020 00:00:00 13.3096 C 66.6560 %

Maximal/Minimal-Werte vom 03.08.2015 - 02.08.2020

Sensor Min Max Avg
Temp
(Aussen-T/F)
-18.7 °C
20-06-2016  11:38:17
46.2 °C
19-06-2017  18:30:17
11.23 °C
Feuchte
(Aussen-T/F)
20 %
03-08-2015  14:48:17
95 %
15-10-2015  01:05:17
36.92 %
Temp
(G-T/H)
-6 °C
01-12-2016  10:32:18
29.7 °C
26-07-2018  16:25:17
13.29 °C
Feuchte
(G-T/H)
25 %
29-06-2019  18:04:17
85 %
16-10-2017  15:03:17
66.96 %

Die Daten stammen von einer Davis Vantage Pro 2 Wetter-Station und werden unter Linux mit der Software wview2wettercgi und aufbereitet. Alle Angaben erfolgen ohne Gewähr für ihre Vollständigkeit oder Richtigkeit.
Kontakt: Rainer Krienke krienke@uni-koblenz.de . Meine Webseiten an der Uni Koblenz oder privat.
Version: $Revision: 0.78 $